     2.10           OBSERVATION DATA    G (GPS)             RINEX VERSION / TYPE
teqc 2003Nov3 GPS Data Processor 20031211 22:34:18UTC       PGM / RUN BY / DATE
Solaris 2.7|Ultra 2|cc SC5.0|=+-|*Sparc                     COMMENT
2 OBSERVATION DATA                                          COMMENT
ASRINEXO V2.2.0 UX USGS 16-MAR-94 16:04                     COMMENT
HI'S ARE VERT TO BASE OF ANTENNA                            COMMENT
hatc Hat_Creek_NCMN_D_1985_NGS                              MARKER NAME
                                                            MARKER NUMBER
NEK USGS                                                    OBSERVER / AGENCY
762 ASHTECH L-XII 6A                                        REC # / TYPE / VERS
0745 ASH700228A NONE                                        ANT # / TYPE
 -2524010.0000 -4123445.0000  4147771.0000                  APPROX POSITION XYZ
        1.3961        0.0000        0.0000                  ANTENNA: DELTA H/E/N
     1     1                                                WAVELENGTH FACT L1/2
     3    L1    L2    C1                                    # / TYPES OF OBSERV
    30.0000                                                 INTERVAL
                                                            COMMENT
Receiver type modified to reflect codeless receiver         COMMENT
Original receiver designation: ASHTECH LM-XII3              COMMENT
                                                            COMMENT
                                                            COMMENT
  1992     3    13     3    28   30.0000000     GPS         TIME OF FIRST OBS
                                                            END OF HEADER
 92  3 13  3 28 30.0000000  0  1G 6
    103122.352 4     80355.21122  27873103.647
 92  3 13  3 29  0.0000000  0  4G12G 6G 2G24
    -69229.389 8    -53945.50727  28691523.867
    103139.429 4     80368.32923  30591189.366
     73772.431 5     57484.88823  30465446.203
   -106865.246 6    -83271.64424  30236323.832
 92  3 13  3 29 30.0000000  0  4G12G 6G 2G24
    -68954.604 8    -53731.27928  21782950.573
    103480.291 5     80634.23623  23715995.563
     74017.244 5     57675.66822  23584539.862
   -106845.800 6    -83256.52625  23320423.610
 92  3 13  3 30  0.0000000  0  5G12G 6G13G 2G24
   -138599.948 8   -108000.28828  21769697.952
    208927.242 5    162800.65823  23736060.068
     20227.414 8     15761.34129  20416329.878
    149460.183 5    116462.33123  23598899.018
   -215203.671 6   -167691.01223  23299799.983
 92  3 13  3 30 30.0000000  0  5G12G 6G13G 2G24
   -207767.202 8   -161896.75228  21756534.660
    314719.110 5    245235.82521  23756191.739
     31263.027 8     24360.56529  20418428.423
    225180.134 5    175464.88523  23613314.539
   -323271.869 6   -251899.82024  23279233.627
 92  3 13  3 31  0.0000000  0  5G12G 6G13G 2G24
   -276423.197 8   -215394.83927  21743468.809
    420884.407 5    327961.97322  23776389.947
     42905.187 8     33432.41029  20420644.775
    301197.943 5    234699.58922  23627783.421
   -431008.810 6   -335850.49024  23258732.012
 92  3 13  3 31 30.0000000  0  5G12G 6G13G 2G24
   -344559.401 8   -268487.89227  21730503.978
    527426.864 5    410982.01223  23796660.713
     55159.188 8     42981.01429  20422978.969
    377520.517 5    294171.70522  23642295.180
   -538409.277 6   -419538.97722  23238288.576
 92  3 13  3 32  0.0000000  0  5G12G 6G13G 2G24
   -412016.767 8   -321051.98627  21717664.474
    634500.910 5    494416.30124  23817039.706
     68179.515 8     53126.75529  20425457.057
    454328.908 5    354022.35923  23656919.963
   -645324.013 6   -502849.00524  23217948.253
 92  3 13  3 32 30.0000000  0  5G12G 6G13G 2G24
   -478848.910 8   -373128.88927  21704949.373
    742048.626 5    578219.65422  23837511.638
     81908.610 8     63824.77529  20428068.534
    531575.134 5    414214.30522  23671615.489
   -751813.008 6   -585827.25023  23197683.176
 92  3 13  3 33  0.0000000  0  5G12G 6G13G 2G24
   -545155.877 8   -424796.57227  21692333.808
    849964.954 5    662310.25823  23858043.512
     96241.776 8     74993.51029  20430794.258
    609148.683 5    474661.20424  23686381.462
   -857987.727 6   -668560.63025  23177481.966
 92  3 13  3 33 30.0000000  0  5G12G 6G13G 2G24
   -610905.493 8   -476029.95527  21679819.873
    958277.373 4    746709.52722  23878653.650
    111207.111 8     86654.84329  20433638.679
    687079.482 5    535386.47922  23701206.801
   -963811.657 6   -751020.65225  23157346.108
 92  3 13  3 34  0.0000000  0  5G12G 6G13G 2G24
   -676082.174 8   -526816.89828  21667418.963
   1066996.801 4    831425.88021  23899340.534
    126816.088 8     98817.71329  20436610.224
    765385.889 5    596404.51822  23716110.072
  -1069258.238 6   -833186.66025  23137279.195
 92  3 13  3 34 30.0000000  0  5G12G 6G13G 2G24
   -740665.296 8   -577141.32727  21655126.262
   1176139.275 5    916471.87321  23920115.245
    143084.982 8    111494.81029  20439704.688
    844058.371 5    657707.73723  23731090.700
  -1174296.485 6   -915034.46225  23117291.436
 92  3 13  3 35  0.0000000  0  5G12G 6G13G 2G24
   -804637.713 8   -626989.88027  21642956.201
   1285717.350 4   1001857.34623  23940967.906
    160026.739 8    124696.20529  20442930.745
    923110.488 5    719306.75322  23746121.410
  -1278902.192 6   -996545.24025  23097385.205
 92  3 13  3 35 30.0000000  0  5G12G 6G13G 2G24
   -868040.154 8   -676394.30128  21630887.752
   1395685.299 4   1087546.63123  23961890.735
    177596.240 8    138386.75829  20446273.736
   1002513.805 5    781179.45122  23761240.540
  -1383104.263 6  -1077741.48623  23077559.332
 92  3 13  3 36  0.0000000  0  5G12G 6G13G 2G24
   -930873.494 8   -725355.28727  21618934.126
   1506037.797 4   1173535.54723  23982894.480
    195788.347 8    152562.44729  20449736.051
   1082263.707 5    843322.23822  23776404.937
  -1486907.335 6  -1158626.83326  23057807.204
 92  3 13  3 36 30.0000000  0  5G12G 6G13G 2G24
   -993144.898 8   -773878.38428  21607083.020
   1616762.971 4   1259814.84723  24003958.202
    214591.711 8    167214.45329  20453314.358
   1162347.952 5    905725.58122  23791653.286
  -1590322.613 6  -1239210.00525  23038118.036
 92  3 13  3 37  0.0000000  0  5G12G 6G13G 2G24
  -1054853.998 8   -821963.32828  21595339.251
   1727856.451 4   1346381.11322  24025100.467
    234002.645 8    182339.89228  20457013.210
   1242777.691 5    968398.02722  23806953.183
  -1693361.611 6  -1319499.97225  23018517.009
 92  3 13  3 37 30.0000000  0  5G12G 6G13G 2G24
  -1115997.966 8   -869607.91328  21583705.505
   1839316.578 4   1433233.13722  24046321.275
    254019.359 8    197937.34529  20460818.475
   1323544.316 5   1031333.14521  23822323.248
  -1796027.019 6  -1399498.82625  22998975.644
 92  3 13  3 38  0.0000000  0  5G12G 6G13G 2G24
  -1176586.492 8   -916819.68729  21572176.687
   1951128.552 4   1520359.31523  24067584.365
    274627.418 8    213995.60829  20464739.748
   1404623.547 5   1094511.73621  23837750.566
  -1898345.072 6  -1479227.03323  22979503.522
 92  3 13  3 38 30.0000000  0  5G12G 6G13G 2G24
  -1236628.508 8   -963605.59728  21560747.702
   2063279.132 4   1607749.31222  24088921.183
    295814.501 8    230505.04129  20468773.471
   1486002.745 5   1157924.08523  23853238.455
  -2000326.586 6  -1558693.01125  22960094.361
 92  3 13  3 39  0.0000000  0  5G12G 6G13G 2G24
  -1296111.944 8  -1009956.26729  21549428.443
   2175775.188 4   1695408.53222  24110338.952
    317587.982 8    247471.42429  20472917.793
   1567685.084 4   1221572.63822  23868774.890
  -2101955.838 6  -1637884.49923  22940762.835
 92  3 13  3 39 30.0000000  0  5G12G 6G13G 2G24
  -1355051.474 8  -1055883.10829  21538213.206
   2288597.767 5   1783322.14523  24131808.600
    339928.961 8    264880.00028  20477166.746
   1649652.598 4   1285443.53222  23884380.584
  -2203240.883 6  -1716807.74224  22921486.190
 92  3 13  3 40  0.0000000  0  5G12G 6G13G 2G24
  -1413434.810 8  -1101376.56129  21527101.396
   2401754.694 4   1871496.33121  24153333.095
    362845.003 8    282736.69029  20481527.538
   1731911.089 4   1349540.94523  23900031.545
  -2304166.373 6  -1795450.83825  22902282.679
 92  3 13  3 40 30.0000000  0  5G12G 6G13G 2G24
  -1471265.206 8  -1146439.14129  21516100.813
   2515237.660 5   1959924.56122  24174931.038
    386328.387 8    301035.45929  20485996.836
   1814456.976 4   1413862.39823  23915741.575
  -2404727.058 6  -1873809.68025  22883141.239
 92  3 13  3 41  0.0000000  0  5G12G 6G13G 2G24
  -1528540.927 8  -1191069.52329  21505199.453
   2629043.902 4   2048604.72423  24196582.046
    410376.849 8    319774.53329  20490574.377
   1897289.957 5   1478407.58122  23931508.562
  -2504908.614 6  -1951873.09125  22864077.137
 92  3 13  3 41 30.0000000  0  5G12G 6G13G 2G24
  -1585267.816 8  -1235272.23829  21494404.539
   2743162.901 4   2137528.56223  24218305.613
    434980.952 8    338946.59329  20495255.031
   1980399.475 5   1543168.29322  23947317.220
  -2604713.438 6  -2029642.92824  22845088.578
 92  3 13  3 42  0.0000000  0  5G12G 6G13G 2G24
  -1641446.611 8  -1279047.86728  21483712.127
   2857589.233 4   2226691.91022  24240088.842
    460134.725 8    358546.96829  20500040.020
   2063775.469 4   1608136.54023  23963180.428
  -2704144.254 6  -2107121.36025  22826167.168
 92  3 13  3 42 30.0000000  0  5G12G 6G13G 2G24
  -1697079.308 8  -1322397.95928  21473125.569
   2972315.948 4   2316089.24222  24261911.927
    485832.432 8    378571.15729  20504931.735
   2147425.899 4   1673318.65623  23979093.421
  -2803199.809 6  -2184307.35325  22807312.923
 92  3 13  3 43  0.0000000  0  5G12G 6G13G 2G24
  -1752179.940 8  -1365333.46128  21462641.530
   3087324.933 4   2405706.58922  24283791.987
    512055.484 8    399004.75329  20509920.578
   2231334.197 4   1738701.68023  23995071.155
  -2901892.293 6  -2261210.44025  22788536.628
 92  3 13  3 43 30.0000000  0  5G12G 6G13G 2G24
  -1806731.095 8  -1407840.79929  21452263.013
   3202628.355 4   2495553.38822  24305744.588
    538816.781 8    419857.71629  20515012.848
   2315525.232 5   1804305.09821  24011086.964
  -3000229.323 6  -2337836.55825  22769821.182
 92  3 13  3 44  0.0000000  0  4G12G13G 2G24
  -1860742.288 8  -1449927.39828  21441982.532
    566102.702 8    441119.50828  20520204.061
   2400000.563 4   1870129.99322  24027161.250
  -3098230.836 6  -2414201.23825  22751173.199
 92  3 13  3 44 30.0000000  0  4G12G13G 2G24
  -1914205.969 8  -1491587.34628  21431808.461
    593916.623 8    462792.73828  20525499.591
   2484766.313 4   1936181.16624  24043293.383
  -3195880.558 6  -2490291.81226  22732594.755
 92  3 13  3 45  0.0000000  0  4G12G13G 2G24
  -1967126.271 8  -1532823.89329  21421740.244
    622249.986 8    484870.67929  20530893.454
   2569808.257 4   2002447.55622  24059473.173
  -3293182.620 6  -2566111.43026  22714072.675
 92  3 13  3 45 30.0000000  0  4G12G13G 2G24
  -2019501.791 8  -1573635.93529  21411773.343
    651100.045 8    507351.27829  20536381.460
   2655127.227 4   2068929.78522  24075715.922
  -3390129.060 6  -2641653.97726  22695626.137
 92  3 13  3 46  0.0000000  0  4G12G13G 2G24
  -2071334.417 8  -1614024.94129  21401908.665
    680459.999 8    530229.18728  20541966.297
   2740703.312 4   2135612.49624  24091987.465
  -3486696.194 6  -2716900.96026  22677244.374
 92  3 13  3 46 30.0000000  0  4G12G13G 2G24
  -2122632.081 8  -1653997.08829  21392149.526
    710318.101 8    553495.27129  20547649.153
   2826518.305 4   2202481.27122  24108326.453
  -3582888.493 6  -2791855.85925  22658932.448
 92  3 13  3 47  0.0000000  0  4G12G13G 2G24
  -2173389.081 8  -1693547.94629  21382489.312
    740675.556 8    577150.45428  20553425.855
   2912584.866 4   2269546.08221  24124709.206
  -3678707.632 6  -2866519.98725  22640711.960
 92  3 13  3 47 30.0000000  0  4G12G13G 2G24
  -2223581.614 8  -1732658.95929  21372937.622
    771551.827 8    601209.90729  20559298.203
   2998919.135 4   2336819.53823  24141136.038
  -3774137.524 6  -2940880.81126  22622554.136
 92  3 13  3 48  0.0000000  0  4G12G13G 2G24
  -2273238.111 8  -1771352.27929  21363488.468
    802914.162 8    625648.11928  20565268.864
   3085481.147 4   2404270.41223  24157608.137
  -3869212.314 6  -3014964.92626  22604462.256
 92  3 13  3 48 30.0000000  0  4G12G13G 2G24
  -2322358.838 8  -1809628.11929  21354141.538
    834757.987 8    650461.50928  20571329.465
   3172272.385 4   2471899.92623  24174130.596
  -3963942.797 6  -3088780.76025  22586434.541
 92  3 13  3 49  0.0000000  0  4G12G13G 2G24
  -2370939.318 8  -1847482.98529  21344897.739
    867083.379 8    675650.14928  20577479.410
   3259287.278 4   2539703.66924  24190686.630
  -4058316.262 7  -3162318.38725  22568474.271
 92  3 13  3 49 30.0000000  0  3G12G13G24
  -2418990.049 8  -1884925.06229  21335751.958
    899875.816 8    701202.71328  20583722.592
  -4152337.953 6  -3235581.91826  22550580.259
 92  3 13  3 50  0.0000000  0  3G12G13G24
  -2466508.510 8  -1921952.38029  21326709.325
    933134.185 8    727118.34929  20590051.210
  -4245997.974 6  -3308563.63526  22532761.196
 92  3 13  3 50 30.0000000  0  3G12G13G24
  -2513477.715 8  -1958551.71129  21317770.713
    966870.374 8    753406.31228  20596466.765
  -4339279.309 6  -3381250.26726  22515009.875
 92  3 13  3 51  0.0000000  0  3G12G13G24
  -2559901.137 8  -1994725.75129  21308938.826
   1001076.465 8    780060.41928  20602979.151
  -4432188.636 6  -3453647.00426  22497330.815
 92  3 13  3 51 30.0000000  0  4G12G13G 2G24
  -2605765.172 8  -2030463.91429  21300210.367
   1035762.340 8    807088.39128  20609578.178
     48507.75114     37797.40521  24274102.684
  -4524736.151 6  -3525761.83825  22479716.216
 92  3 13  3 52  0.0000000  0  4G12G13G 2G24
  -2651099.099 8  -2065788.98829  21291584.445
   1070893.800 8    834463.57429  20616266.550
    136861.837 5    106644.55222  24290919.546
  -4616963.350 6  -3597627.06726  22462163.967
 92  3 13  3 52 30.0000000  0  4G12G13G 2G24
  -2695881.603 8  -2100684.39229  21283061.340
   1106488.359 8    862199.62028  20623038.875
    225439.523 4    175666.07122  24307771.483
  -4708856.044 6  -3669231.63225  22444676.475
 92  3 13  3 53  0.0000000  0  4G12G13G 2G24
  -2740121.489 8  -2135156.97129  21274643.477
   1142532.881 8    890286.27528  20629898.119
    314234.942 3    244857.24922  24324673.485
  -4800424.592 6  -3740583.63425  22427254.335
 92  3 13  3 53 30.0000000  0  3G12G13G24
  -2783818.809 8  -2169206.77329  21266331.118
   1179022.794 8    918719.98728  20636841.613
  -4891652.091 6  -3811669.88026  22409896.359
 92  3 13  3 54  0.0000000  0  3G12G13G24
  -2826974.498 8  -2202834.52029  21258114.421
   1215953.007 8    947496.79728  20643869.950
  -4982504.339 6  -3882463.72626  22392604.328
 92  3 13  3 54 30.0000000  0  3G12G13G24
  -2869585.153 8  -2236037.57629  21250004.432
   1253322.929 9    976616.23929  20650982.519
  -5072964.891 6  -3952952.35526  22375392.934
 92  3 13  3 55  0.0000000  0  4G12G13G 2G24
  -2911638.932 8  -2268806.68829  21242003.263
   1291140.135 8   1006084.20928  20658174.539
     50865.96715     39634.71423  24392688.884
  -5163011.400 6  -4023118.35426  22358254.394
 92  3 13  3 55 30.0000000  0  4G12G13G 2G24
  -2953148.637 8  -2301151.85829  21234107.336
   1329387.803 8   1035887.61328  20665451.699
    140774.212 5    109693.13322  24409804.041
  -5252653.497 6  -4092969.22027  22341193.805
 92  3 13  3 56  0.0000000  0  4G12G13G 2G24
  -2994127.381 8  -2333083.29429  21226308.537
   1368048.578 9   1066012.90428  20672813.108
    230847.575 4    179880.21722  24426945.878
  -5341922.973 6  -4162529.73626  22324211.777
 92  3 13  3 56 30.0000000  0  4G12G13G 2G24
  -3034579.321 8  -2364604.23329  21218609.554
   1407114.262 8   1096453.72929  20680245.260
    321072.164 3    250185.02721  24444111.099
  -5430852.502 6  -4231825.36326  22307286.095
 92  3 13  3 57  0.0000000  0  3G12G13G24
  -3074503.931 8  -2395714.26229  21211012.218
   1446580.866 9   1127206.94128  20687758.068
  -5519454.975 6  -4300866.14426  22290426.654
 92  3 13  3 57 30.0000000  0  3G12G13G24
  -3113888.772 8  -2426403.69729  21203517.715
   1486456.774 8   1158279.09828  20695343.416
  -5607724.808 7  -4369647.73726  22273631.692
 92  3 13  3 58  0.0000000  0  3G12G13G24
  -3152722.609 8  -2456663.78229  21196124.529
   1526748.931 8   1189675.61528  20703011.809
  -5695649.228 7  -4438160.16027  22256896.078
 92  3 13  3 58 30.0000000  0  3G12G13G24
  -3191005.316 8  -2486494.41629  21188842.571
   1567453.471 8   1221393.45429  20710756.949
  -5783210.226 7  -4506389.41026  22240233.598
 92  3 13  3 59  0.0000000  0  3G12G13G24
  -3228736.935 8  -2515895.63829  21181660.742
   1608565.725 8   1253429.00728  20718578.834
  -5870387.080 7  -4574319.32426  22223647.289
 92  3 13  3 59 30.0000000  0  3G12G13G24
  -3265914.763 8  -2544865.34329  21174587.436
   1650084.438 8   1285781.27028  20726478.653
  -5957161.325 7  -4641935.50826  22207134.427
 92  3 13  4  0  0.0000000  0  4G12G13G 2G24
  -3302542.588 8  -2573406.46329  21167617.871
   1692002.222 8   1318444.50929  20734459.440
     15282.30114     11907.47722  24565353.153
  -6043533.984 7  -4709238.78027  22190700.702
 92  3 13  4  0 30.0000000  0  4G12G13G 2G24
  -3338621.870 8  -2601520.15529  21160753.217
   1734313.030 8   1351413.99329  20742507.655
    107063.262 4     83424.98223  24582821.466
  -6129508.244 7  -4776231.60327  22174336.533
 92  3 13  4  1  0.0000000  0  3G12G13G24
  -3374148.846 8  -2629203.46529  21153990.193
   1777016.748 8   1384689.63528  20750634.727
  -6215093.550 7  -4842921.35026  22158053.892
 92  3 13  4  1 30.0000000  0  3G12G13G24
  -3409118.533 8  -2656452.54229  21147337.211
   1820114.367 8   1418272.22128  20758835.858
  -6300292.475 7  -4909310.03226  22141839.027
 92  3 13  4  2  0.0000000  0  4G12G13G 2G24
  -3443531.671 8  -2683267.93429  21140788.545
   1863601.266 8   1452158.13228  20767110.420
     15390.70414     11991.70823  24635408.657
  -6385111.813 7  -4975402.91826  22125697.890
 92  3 13  4  2 30.0000000  0  4G12G13G 2G24
  -3477380.936 8  -2709643.94529  21134345.698
   1907480.608 8   1486349.84129  20775461.449
    107851.956 4     84039.42223  24653003.485
  -6469543.146 7  -5041193.47827  22109632.626
 92  3 13  4  3  0.0000000  0  3G12G13G24
  -3510652.488 8  -2735569.78929  21128015.283
   1951762.342 8   1520855.10929  20783885.018
  -6553582.542 7  -5106678.62326  22093638.996
 92  3 13  4  3 30.0000000  0  3G12G13G24
  -3543353.118 8  -2761050.76229  21121792.483
   1996435.004 8   1555664.98629  20792388.928
  -6637227.428 6  -5171856.36026  22077716.108
 92  3 13  4  4  0.0000000  0  3G12G13G24
  -3575481.815 8  -2786086.07429  21115680.910
   2041495.864 8   1590777.36229  20800965.099
  -6720471.262 7  -5236721.59126  22061879.879
 92  3 13  4  4 30.0000000  0  3G12G13G24
  -3607045.143 8  -2810680.83029  21109671.282
   2086934.491 8   1626184.09329  20809609.605
  -6803323.891 7  -5301281.98527  22046114.392
 92  3 13  4  5  0.0000000  0  3G12G13G24
  -3638037.395 8  -2834830.60129  21103773.161
   2132752.646 8   1661886.56829  20818329.968
  -6885775.224 7  -5365529.68225  22030422.650
 92  3 13  4  5 30.0000000  0  3G12G13G24
  -3668451.575 8  -2858529.92129  21097990.159
   2178953.434 8   1697887.19928  20827118.089
  -6967805.636 7  -5429449.39526  22014816.066
 92  3 13  4  6  0.0000000  0  3G12G13G24
  -3698292.841 8  -2881782.81129  21092309.397
   2225527.810 8   1734178.93128  20835983.254
  -7049429.422 7  -5493052.25527  21999281.411
 92  3 13  4  6 30.0000000  0  3G12G13G24
  -3727552.769 8  -2904582.71329  21086739.846
   2272479.785 8   1770764.90328  20844918.568
  -7130652.361 7  -5556342.77127  21983828.615
 92  3 13  4  7  0.0000000  0  3G12G13G24
  -3756234.391 8  -2926931.99329  21081280.633
   2319802.873 8   1807640.04528  20853927.033
  -7211476.866 7  -5619322.81027  21968445.654
 92  3 13  4  7 30.0000000  0  3G12G13G24
  -3784334.639 8  -2948828.25029  21075933.834
   2367496.030 8   1844803.55829  20862998.442
  -7291895.416 7  -5681986.53727  21953140.051
 92  3 13  4  8  0.0000000  0  3G12G13G24
  -3811848.078 8  -2970267.25829  21070700.356
   2415560.808 8   1882256.64528  20872147.207
  -7371905.248 7  -5744331.75226  21937918.400
 92  3 13  4  8 30.0000000  0  3G12G13G24
  -3838776.731 8  -2991250.58929  21065576.606
   2463991.541 8   1919994.89328  20881361.934
  -7451496.844 7  -5806351.10527  21922768.383
 92  3 13  4  9  0.0000000  0  3G12G13G24
  -3865117.990 8  -3011776.21129  21060558.674
   2512786.788 8   1958017.17928  20890649.498
  -7530641.731 7  -5868022.36128  21907711.899
 92  3 13  4  9 30.0000000  0  3G12G13G24
  -3890875.038 8  -3031846.60229  21055660.363
   2561939.637 8   1996318.11527  20900001.838
  -7609332.055 7  -5929339.40728  21892736.681
 92  3 13  4 10  0.0000000  0  3G12G13G24
  -3916038.318 8  -3051454.31629  21050871.185
   2611456.322 8   2034902.56329  20909423.402
  -7687573.701 7  -5990306.84028  21877846.881
 92  3 13  4 10 30.0000000  0  3G12G13G24
  -3940606.904 8  -3070598.63729  21046200.722
   2661333.341 8   2073767.78527  20918916.932
  -7765360.639 7  -6050919.95128  21863044.926
 92  3 13  4 11  0.0000000  0  3G12G13G24
  -3964579.738 8  -3089278.73029  21041636.076
   2711568.124 8   2112911.78429  20928476.126
  -7842698.510 7  -6111183.15027  21848325.126
 92  3 13  4 11 30.0000000  0  3G12G13G24
  -3987953.884 8  -3107492.31429  21037188.958
   2762159.828 8   2152333.91428  20938100.061
  -7919606.032 7  -6171111.00727  21833686.557
 92  3 13  4 12  0.0000000  0  3G12G13G24
  -4010732.410 8  -3125241.77929  21032854.254
   2813101.779 8   2192028.94528  20947793.849
  -7996093.349 7  -6230711.42927  21819140.021
 92  3 13  4 12 30.0000000  0  3G12G13G24
  -4032917.548 7  -3142528.87029  21028630.185
   2864388.037 8   2231992.27327  20957554.488
  -8072152.494 7  -6289978.21327  21804661.244
 92  3 13  4 13  0.0000000  0  3G12G13G24
  -4054503.207 7  -3159348.83029  21024522.124
   2916021.041 8   2272225.79927  20967379.292
  -8147785.649 7  -6348913.06527  21790270.607
 92  3 13  4 13 30.0000000  0  3G12G13G24
  -4075486.696 7  -3175699.56529  21020527.386
   2968000.052 8   2312728.92828  20977270.338
  -8222990.311 7  -6407514.01127  21775959.125
 92  3 13  4 14  0.0000000  0  3G12G13G24
  -4095867.300 7  -3191580.52129  21016649.581
   3020322.008 8   2353499.29927  20987227.048
  -8297756.445 7  -6465773.26428  21761733.970
 92  3 13  4 14 30.0000000  0  3G12G13G24
  -4115644.863 7  -3206991.58029  21012885.988
   3072982.965 8   2394533.81627  20997249.109
  -8372083.306 7  -6523690.22228  21747587.654
 92  3 13  4 15  0.0000000  0  3G12G13G24
  -4134814.693 7  -3221929.07729  21009239.904
   3125984.234 8   2435833.53327  21007337.115
  -8445966.009 7  -6581261.07328  21733527.996
 92  3 13  4 15 30.0000000  0  3G12G13G24
  -4153380.051 7  -3236395.55729  21005707.160
   3179319.452 8   2477393.44227  21017484.801
  -8519401.575 7  -6638483.51928  21719553.460
 92  3 13  4 16  0.0000000  0  3G12G13G24
  -4171358.140 7  -3250404.43629  21002287.423
   3232967.919 8   2519197.46127  21027693.335
  -8592403.781 7  -6695368.27128  21705662.581
 92  3 13  4 16 30.0000000  0  3G12G13G24
  -4188743.940 8  -3263951.77829  20998976.210
   3286930.517 8   2561246.24127  21037963.015
  -8664971.132 7  -6751914.18428  21691852.636
 92  3 13  4 17  0.0000000  0  3G12G13G24
  -4205518.986 7  -3277023.22229  20995784.321
   3341222.447 8   2603551.64527  21048292.968
  -8737090.823 7  -6808111.26628  21678131.442
 92  3 13  4 17 30.0000000  0  3G12G13G24
  -4221688.066 7  -3289622.46929  20992703.956
   3395835.698 8   2646107.43627  21058687.679
  -8808765.977 7  -6863961.96928  21664486.995
 92  3 13  4 18  0.0000000  0  3G12G13G24
  -4237247.451 7  -3301746.64429  20989748.604
   3450770.653 8   2688913.90327  21069142.035
  -8879991.263 7  -6919462.11728  21650937.564
 92  3 13  4 18 30.0000000  0  3G12G13G24
  -4252197.292 7  -3313395.83929  20986903.573
   3506023.975 8   2731968.45728  21079649.456
  -8950760.262 7  -6974606.72227  21637466.397
 92  3 13  4 19  0.0000000  0  3G12G13G24
  -4266546.138 7  -3324576.72629  20984175.755
   3561583.273 8   2775261.43127  21090227.639
  -9021066.076 7  -7029390.39727  21624092.655
 92  3 13  4 19 30.0000000  0  3G12G13G24
  -4280278.299 7  -3335277.08529  20981556.774
   3617460.500 8   2818802.14528  21100862.482
  -9090875.857 7  -7083787.55327  21610803.756
 92  3 13  4 20  0.0000000  0  3G12G13G24
  -4293400.601 7  -3345502.22629  20979059.194
   3673645.804 8   2862582.92127  21111549.781
  -9160198.915 7  -7137805.45029  21597616.190
 92  3 13  4 20 30.0000000  0  3G12G13G24
  -4305915.588 7  -3355254.14029  20976680.642
   3730133.098 8   2906599.00527  21122300.633
  -9229039.111 7  -7191447.09828  21584515.858
 92  3 13  4 21  0.0000000  0  3G12G13G24
  -4317814.969 7  -3364526.35429  20974413.022
   3786927.375 8   2950854.30327  21133109.961
  -9297397.170 7  -7244713.04928  21571505.150
 92  3 13  4 21 30.0000000  0  3G12G13G24
  -4329099.308 7  -3373319.32329  20972270.100
   3844025.326 8   2995346.23127  21143973.524
  -9365293.802 7  -7297619.44828  21558587.399
 92  3 13  4 22  0.0000000  0  3G12G13G24
  -4339764.942 7  -3381630.18329  20970238.109
   3901427.148 8   3040074.94127  21154895.266
  -9432730.409 7  -7350167.38529  21545753.288
 92  3 13  4 22 30.0000000  0  3G12G13G24
  -4349815.860 7  -3389462.04529  20968326.333
   3959125.385 8   3085034.62527  21165874.263
  -9499707.191 7  -7402357.02228  21533005.502
 92  3 13  4 23  0.0000000  0  3G12G13G24
  -4359249.962 7  -3396813.26829  20966535.976
   4017118.965 8   3130224.43527  21176913.236
  -9566225.081 7  -7454189.07428  21520349.767
 92  3 13  4 23 30.0000000  0  3G12G13G24
  -4368067.203 7  -3403683.82729  20964852.937
   4075405.183 8   3175642.27327  21188006.147
  -9632274.523 7  -7505656.10929  21507780.078
 92  3 13  4 24  0.0000000  0  3G12G13G24
  -4376279.780 7  -3410083.21329  20963291.614
   4133967.848 8   3221275.53627  21199150.031
  -9697859.258 7  -7556761.03329  21495300.014
 92  3 13  4 24 30.0000000  0  3G12G13G24
  -4383866.349 7  -3415994.80029  20961846.317
   4192825.722 8   3267138.81927  21210348.184
  -9762966.059 7  -7607493.54728  21482908.999
 92  3 13  4 25  0.0000000  0  3G12G13G24
  -4390832.509 7  -3421422.96229  20960521.828
   4251970.200 8   3313225.43527  21221604.186
  -9827596.471 7  -7657854.84329  21470612.406
 92  3 13  4 25 30.0000000  0  3G12G13G24
  -4397171.237 7  -3426362.20429  20959317.868
   4311405.414 8   3359538.58827  21232913.864
  -9891735.257 7  -7707833.05828  21458402.157
 92  3 13  4 26  0.0000000  0  3G12G13G24
  -4402888.784 7  -3430817.42129  20958225.414
   4371121.639 8   3406070.71427  21244277.201
  -9955394.609 7  -7757437.68629  21446292.037
 92  3 13  4 26 30.0000000  0  3G12G13G24
  -4407991.613 7  -3434793.62029  20957257.695
   4431109.845 8   3452814.78426  21255692.087
 -10018573.039 7  -7806667.57629  21434269.466
 92  3 13  4 27  0.0000000  0  3G12G13G24
  -4412480.903 7  -3438291.76429  20956399.982
   4491365.854 8   3499767.51726  21267158.852
 -10081266.598 7  -7855519.63329  21422341.020
 92  3 13  4 27 30.0000000  0  3G12G13G24
  -4416349.349 7  -3441306.12529  20955661.890
   4551893.634 8   3546932.03027  21278680.480
 -10143472.685 7  -7903991.85528  21410502.810
 92  3 13  4 28  0.0000000  0  3G12G13G24
  -4419587.226 7  -3443829.12929  20955050.923
   4612699.901 8   3594313.53027  21290247.671
 -10205187.593 7  -7952081.33228  21398758.744
 92  3 13  4 28 30.0000000  0  3G12G13G24
  -4422204.616 7  -3445868.64329  20954552.667
   4673772.315 8   3641902.45127  21301869.429
 -10266420.892 7  -7999795.53628  21387104.319
 92  3 13  4 29  0.0000000  0  3G12G13G24
  -4424190.770 7  -3447416.27529  20954173.735
   4735118.354 8   3689704.55527  21313544.532
 -10327163.002 7  -8047126.99029  21375547.319
 92  3 13  4 29 30.0000000  0  3G12G13G24
  -4425545.206 7  -3448471.66129  20953915.908
   4796735.645 8   3737718.03127  21325268.530
 -10387408.135 7  -8094071.19429  21364083.556
 92  3 13  4 30  0.0000000  0  3G12G13G24
  -4426271.982 7  -3449037.96329  20953775.609
   4858617.596 8   3785937.74227  21337042.576
 -10447155.194 7  -8140627.29428  21352712.121
 92  3 13  4 30 30.0000000  0  3G12G13G24
  -4426369.793 7  -3449114.20629  20953758.822
   4920762.605 8   3834362.42227  21348867.594
 -10506394.606 7  -8186787.81629  21341439.036
 92  3 13  4 31  0.0000000  0  3G12G13G24
  -4425849.731 7  -3448708.90829  20953858.044
   4983156.874 8   3882981.34227  21360742.973
 -10565137.662 7  -8232561.56428  21330263.062
 92  3 13  4 31 30.0000000  0  3G12G13G24
  -4424700.891 7  -3447813.69829  20954076.590
   5045808.398 8   3931800.71526  21372663.322
 -10623384.342 7  -8277948.54428  21319177.043
 92  3 13  4 32  0.0000000  0  3G12G13G24
  -4422925.250 7  -3446430.06929  20954413.257
   5108712.725 8   3980817.08927  21384636.422
 -10681146.899 7  -8322958.27529  21308187.245
 92  3 13  4 32 30.0000000  0  4G12G20G13G24
  -4420514.178 7  -3444551.29329  20954869.249
   -228714.933 5   -178219.17422  24552408.127
   5171875.558 8   4030034.88927  21396657.197
 -10738417.475 7  -8367584.64129  21297290.387
 92  3 13  4 33  0.0000000  0  4G12G20G13G24
  -4417474.165 7  -3442182.43329  20955450.236
   -325231.445 5   -253426.6482   24534032.036
   5235288.162 8   4079447.32126  21408719.660
 -10795200.688 7  -8411831.24629  21286485.578
 92  3 13  4 33 30.0000000  0  4G12G20G13G24
  -4413806.239 7  -3439324.28829  20956149.955
   -421681.498 5   -328582.28322  24515688.035
   5298946.785 8   4129051.45126  21420832.763
 -10851489.354 7  -8455692.49029  21275767.690
 92  3 13  4 34  0.0000000  0  4G12G20G13G24
  -4409502.137 7  -3435970.43529  20956967.201
   -518076.648 5   -403695.21022  24497331.453
   5362857.428 8   4178851.96126  21432997.746
 -10907261.419 7  -8499151.19629  21265154.746
 92  3 13  4 34 30.0000000  0  4G12G20G13G24
  -4404565.430 7  -3432123.62729  20957910.333
   -614447.573 5   -478789.24523  24479005.741
   5427013.496 8   4228843.71426  21445203.790
 -10962514.971 7  -8542205.86229  21254646.417
 92  3 13  4 35  0.0000000  0  4G12G20G13G24
  -4398987.940 7  -3427777.51929  20958965.618
   -710806.551 5   -553873.95023  24460665.038
   5491420.672 8   4279031.13826  21457459.618
 -11017242.548 7  -8584850.67929  21244227.119
 92  3 13  4 35 30.0000000  0  4G12G20G13G24
  -4392783.629 7  -3422942.97429  20960150.383
   -807178.629 5   -628968.92022  24442336.918
   5556062.598 8   4329401.47727  21469760.992
 -11071460.290 7  -8627098.21729  21233910.672
 92  3 13  4 36  0.0000000  0  4G12G20G13G24
  -4385941.572 7  -3417611.49129  20961452.082
   -903544.092 4   -704058.73421  24423996.826
   5620948.049 8   4379961.58427  21482110.948
 -11125152.585 7  -8668936.31529  21223693.151
 92  3 13  4 36 30.0000000  0  4G12G20G13G24
  -4378446.395 7  -3411771.07429  20962877.607
   -999865.135 4   -779113.93123  24405646.230
   5686090.072 8   4430721.60026  21494507.059
 -11178300.570 7  -8710350.27729  21213578.447
 92  3 13  4 37  0.0000000  0  4G12G20G13G24
  -4370311.132 7  -3405431.90029  20964425.128
  -1096136.834 3   -854130.66822  24387337.601
   5751473.175 8   4481669.48026  21506948.750
 -11230907.739 7  -8751342.83029  21203567.169
 92  3 13  4 37 30.0000000  0  4G12G20G13G24
  -4361548.467 7  -3398603.83129  20966098.272
  -1192358.836 3   -929108.65723  24369029.879
   5817081.850 8   4532793.14226  21519435.410
 -11282984.091 7  -8791921.75429  21193659.634
 92  3 13  4 38  0.0000000  0  4G12G20G13G24
  -4352157.959 7  -3391286.54429  20967880.532
  -1288510.095 4  -1004031.53125  24350730.848
   5882915.208 8   4584091.85226  21531960.740
 -11334543.568 7  -8832097.91229  21183844.724
 92  3 13  4 38 30.0000000  0  4G12G20G13G24
  -4342137.286 7  -3383478.20029  20969788.714
  -1384586.286 4  -1078895.93423  24332454.589
   5948972.964 8   4635565.43427  21544533.430
 -11385595.593 7  -8871878.66329  21174133.259
 92  3 13  4 39  0.0000000  0  4G12G20G13G24
  -4331490.583 7  -3375182.05429  20971815.609
  -1480601.476 5  -1153712.77925  24314178.348
   6015248.105 8   4687208.39626  21557143.307
 -11436149.692 7  -8911271.41929  21164512.012
 92  3 13  4 39 30.0000000  0  4G12G20G13G24
  -4320219.845 7  -3366399.65029  20973957.327
  -1576560.207 5  -1228485.64224  24295916.486
   6081736.670 8   4739017.67926  21569794.540
 -11486212.336 7  -8950281.22429  21154985.205
 92  3 13  4 40  0.0000000  0  4G12G20G13G24
  -4308329.488 7  -3357134.43329  20976222.557
  -1672468.768 5  -1303219.41922  24277667.816
   6148432.226 8   4790988.24426  21582485.961
 -11535782.831 7  -8988907.54029  21145550.448
 92  3 13  4 40 30.0000000  0  4G12G20G13G24
  -4295804.362 7  -3347374.58129  20978601.423
  -1768328.575 5  -1377915.21523  24259418.256
   6215347.971 8   4843130.38427  21595219.647
 -11584822.678 7  -9027120.36829  21136220.305
 92  3 13  4 41  0.0000000  0  4G12G20G13G24
  -4282629.683 7  -3337108.59529  20981107.379
  -1864138.620 5  -1452572.22523  24241200.159
   6282496.215 8   4895453.70027  21607996.190
 -11633312.285 7  -9064904.42829  21126992.682
 92  3 13  4 41 30.0000000  0  4G12G20G13G24
  -4268830.854 7  -3326356.25729  20983738.069
  -1959933.032 5  -1527217.05023  24222960.197
   6349849.857 8   4947937.06026  21620814.126
 -11681276.245 7  -9102278.89829  21117866.114
 92  3 13  4 42  0.0000000  0  4G12G20G13G24
  -4254401.100 7  -3315112.27729  20986482.360
  -2055706.009 5  -1601845.18123  24204737.004
   6417413.754 8   5000584.26326  21633672.214
 -11728709.414 7  -9139239.75929  21108838.156
 92  3 13  4 42 30.0000000  0  4G12G20G13G24
  -4239325.943 7  -3303365.39529  20989354.666
  -2151440.861 5  -1676443.60723  24186519.518
   6485200.101 8   5053404.80626  21646570.787
 -11775604.909 7  -9175781.65429  21099919.629
 92  3 13  4 43  0.0000000  0  4G12G20G13G24
  -4223614.261 7  -3291122.51629  20992340.607
  -2247131.999 5  -1751007.96723  24168310.128
   6553197.882 8   5106390.09926  21659513.439
 -11821978.676 7  -9211917.00829  21091093.135
 92  3 13  4 43 30.0000000  0  4G12G20G13G24
  -4207269.300 7  -3278386.17629  20995450.952
  -2342761.934 5  -1825524.65021  24150109.429
   6621402.284 8   5159536.39926  21672490.851
 -11867841.486 7  -9247654.22229  21082365.286
 92  3 13  4 44  0.0000000  0  4G12G20G13G24
  -4190289.493 7  -3265155.16329  20998684.215
  -2438315.699 5  -1899981.9952   24131929.408
   6689812.380 8   5212842.96726  21685507.527
 -11913196.077 7  -9282995.40429  21073733.658
 92  3 13  4 44 30.0000000  0  4G12G20G13G24
  -4172658.364 7  -3251416.60729  21002038.897
  -2533774.687 5  -1974365.48623  24113773.975
   6758443.431 8   5266321.72826  21698571.894
 -11958029.659 7  -9317930.62029  21065201.566
 92  3 13  4 45  0.0000000  0  4G12G20G13G24
  -4154396.271 7  -3237186.39429  21005511.979
  -2629155.176 5  -2048687.77023  24095628.436
   6827272.790 8   5319954.99826  21711667.131
 -12002354.436 7  -9352469.36229  21056765.712
 92  3 13  4 45 30.0000000  0  4G12G20G13G24
  -4135498.475 7  -3222460.83629  21009106.497
  -2724460.063 5  -2122951.19721  24077480.506
   6896303.906 8   5373745.48926  21724804.632
 -12046150.240 7  -9386595.92729  21048436.863
 92  3 13  4 46  0.0000000  0  4G12G20G13G24
  -4115975.158 7  -3207247.84329  21012823.917
  -2819700.078 5  -2197164.01221  24059347.252
   6965524.600 7   5427683.70026  21737974.207
 -12089402.778 7  -9420299.15029  21040199.470
 92  3 13  4 46 30.0000000  0  4G12G20G13G24
  -4095829.734 7  -3191550.09929  21016657.974
  -2914870.548 5  -2271322.65723  24041249.090
   7034929.182 8   5481765.20526  21751180.671
 -12132101.859 7  -9453571.12129  21032078.994
 92  3 13  4 47  0.0000000  0  4G12G20G13G24
  -4075058.567 7  -3175364.76429  21020609.838
  -3009966.837 5  -2345423.50522  24023150.317
   7104520.166 8   5535991.96126  21764425.509
 -12174229.838 7  -9486398.07429  21024060.741
 92  3 13  4 47 30.0000000  0  4G12G20G13G24
  -4053658.425 7  -3158689.33329  21024686.715
  -3104991.571 5  -2419468.55622  24005061.736
   7174298.887 8   5590364.99626  21777702.106
 -12215796.461 7  -9518787.60929  21016149.527
 92  3 13  4 48  0.0000000  0  4G12G20G13G24
  -4031629.360 7  -3141523.81929  21028874.505
  -3199938.431 5  -2493452.95522  23986993.554
   7244264.034 8   5644883.29226  21791019.798
 -12256826.293 7  -9550758.86929  21008343.225
 92  3 13  4 48 30.0000000  0  4G12G20G13G24
  -4008967.284 7  -3123865.05929  21033187.920
  -3294811.539 5  -2567379.86123  23968945.736
   7314417.915 8   5699548.67126  21804368.656
 -12297333.717 7  -9582323.04729  21000636.755
 92  3 13  4 49  0.0000000  0  4G12G20G13G24
  -3985663.653 7  -3105706.38129  21037627.255
  -3389615.788 5  -2641253.15422  23950901.530
   7384767.491 8   5754366.54225  21817754.090
 -12337314.616 7  -9613476.95629  20993026.523
 92  3 13  4 49 30.0000000  0  4G12G20G13G24
  -3961728.727 7  -3087055.78229  21042175.410
  -3484357.111 5  -2715077.36223  23932872.017
   7455301.536 8   5809328.13826  21831177.582
 -12376781.410 7  -9644230.03629  20985514.937
 92  3 13  4 50  0.0000000  0  4G12G20G13G24
  -3937166.161 7  -3067916.10529  21046849.172
  -3579032.428 5  -2788850.18224  23914858.681
   7526014.390 8   5864429.06425  21844633.480
 -12415724.701 7  -9674575.65129  20978106.761
 92  3 13  4 50 30.0000000  0  4G12G20G13G24
  -3911982.953 7  -3048292.82129  21051642.258
  -3673655.109 5  -2862581.96422  23896849.254
   7596897.721 8   5919662.81825  21858121.731
 -12454129.030 7  -9704501.04329  20970796.028
 92  3 13  4 51  0.0000000  0  4G12G20G13G24
  -3886176.496 7  -3028183.88529  21056555.245
  -3768218.998 5  -2936267.92424  23878858.114
   7667952.673 8   5975030.33225  21871637.587
 -12491981.289 7  -9733996.27429  20963593.799
 92  3 13  4 51 30.0000000  0  4G12G20G13G24
  -3859755.393 7  -3007596.02329  21061580.070
  -3862724.128 5  -3009908.10123  23860872.663
   7739169.077 7   6030523.65125  21885196.302
 -12529287.813 7  -9763066.25629  20956495.312
 92  3 13  4 52  0.0000000  0  4G12G20G13G24
  -3832701.834 7  -2986515.32229  21066730.502
  -3957144.873 5  -3083482.55323  23842894.716
   7810563.299 7   6086155.49226  21898778.696
 -12566023.215 7  -9791691.20329  20949504.755
 92  3 13  4 52 30.0000000  0  4G12G20G13G24
  -3805024.212 7  -2964948.34429  21071995.756
  -4051483.629 5  -3156993.12122  23824958.422
   7882125.871 7   6141918.54525  21912395.869
 -12602194.478 7  -9819876.56029  20942617.922
 92  3 13  4 53  0.0000000  0  4G12G20G13G24
  -3776732.393 7  -2942902.76229  21077379.131
  -4145737.439 5  -3230437.47223  23807016.737
   7953845.865 8   6197804.25326  21926047.820
 -12637819.354 7  -9847636.15729  20935839.315
 92  3 13  4 53 30.0000000  0  4G12G20G13G24
  -3747816.323 7  -2920370.76829  21082883.627
  -4239879.239 5  -3303794.60022  23789099.656
   8025732.166 7   6253819.56426  21939722.840
 -12672894.117 7  -9874967.10729  20929168.638
 92  3 13  4 54  0.0000000  0  4G12G20G13G24
  -3718285.445 7  -2897359.68829  21088500.242
  -4333918.414 5  -3377071.72722  23771211.926
   8097773.936 7   6309956.01025  21953433.860
 -12707438.338 7  -9901884.63329  20922593.884
 92  3 13  4 54 30.0000000  0  4G12G20G13G24
  -3688133.777 7  -2873864.88729  21094240.962
  -4427859.592 5  -3450272.49623  23753325.715
   8169975.857 8   6366217.23625  21967173.935
 -12741453.219 7  -9928389.69729  20916121.669
 92  3 13  4 55  0.0000000  0  4G12G20G13G24
  -3657355.108 7  -2849881.49329  21100096.208
  -4521694.155 5  -3523390.19824  23735480.861
   8242342.821 7   6422607.09026  21980944.006
 -12774933.937 7  -9954478.52029  20909750.175
 92  3 13  4 55 30.0000000  0  4G12G20G13G24
  -3625958.562 7  -2825416.65829  21106072.262
  -4615445.230 6  -3596442.84623  23717638.414
   8314865.105 7   6479117.96425  21994745.855
 -12807883.284 7  -9980153.29829  20903480.923
 92  3 13  4 56  0.0000000  0  4G12G20G13G24
  -3593952.114 7  -2800476.56229  21112164.360
  -4709139.326 6  -3669451.09124  23699808.864
   8387533.615 7   6535742.77125  22008570.790
 -12840284.252 7 -10005400.76329  20897316.284
 92  3 13  4 56 30.0000000  0  4G12G20G13G24
  -3561336.638 7  -2775061.91029  21118367.965
  -4802765.027 6  -3742406.07724  23681988.300
   8460345.920 7   6592479.62126  22022429.892
 -12872125.221 7 -10030211.86529  20891257.481
 92  3 13  4 57  0.0000000  0  4G12G20G13G24
  -3528100.715 7  -2749163.78029  21124691.173
  -4896307.521 5  -3815296.19023  23664186.931
   8533312.571 7   6649336.75726  22036315.973
 -12903393.644 7 -10054576.82829  20885303.310
 92  3 13  4 57 30.0000000  0  4G12G20G13G24
  -3494252.653 7  -2722788.67329  21131132.520
  -4989775.648 5  -3888128.37924  23646398.441
   8606424.407 7   6706307.02726  22050228.752
 -12934102.076 7 -10078505.43729  20879462.757
 92  3 13  4 58  0.0000000  0  4G12G20G13G24
  -3459795.002 7  -2695938.54629  21137690.189
  -5083143.392 5  -3960882.33122  23628631.834
   8679678.255 7   6763387.94726  22064165.491
 -12964258.490 7 -10102003.90729  20873725.317
 92  3 13  4 58 30.0000000  0  4G12G20G13G24
  -3424720.985 7  -2668608.14728  21144361.757
  -5176384.216 5  -4033537.37823  23610890.721
   8753079.904 7   6820584.04826  22078137.618
 -12993880.109 7 -10125085.65529  20868084.133
 92  3 13  4 59  0.0000000  0  4G12G20G13G24
  -3389023.694 7  -2640792.07729  21151156.557
  -5269499.736 5  -4106094.81024  23593159.799
   8826635.614 7   6877900.16826  22092128.034
 -13022963.304 7 -10147747.84029  20862551.158
 92  3 13  4 59 30.0000000  0  4G12G20G13G24
  -3352700.393 7  -2612488.21329  21158066.774
  -5362470.047 5  -4178539.06923  23575481.629
   8900346.948 7   6935337.57826  22106159.527
 -13051503.566 7 -10169986.97629  20857121.017
 92  3 13  5  0  0.0000000  0  4G12G20G13G24
  -3315756.881 7  -2583701.06629  21165099.909
  -5455301.609 5  -4250875.23823  23557811.573
   8974207.411 7   6992891.19126  22120212.903
 -13079500.116 7 -10191802.42929  20851791.912
 92  3 13  5  0 30.0000000  0  4G12G20G13G24
  -3278202.266 7  -2554437.73229  21172246.960
  -5548024.657 6  -4323126.85025  23540172.073
   9048207.064 7   7050553.26426  22134293.553
 -13106965.853 7 -10213204.26829  20846565.327
 92  3 13  5  1  0.0000000  0  4G12G20G13G24
  -3240043.049 7  -2524703.27729  21179507.036
  -5640656.787 6  -4395307.60324  23522537.092
   9122338.925 7   7108318.35225  22148399.978
 -13133903.481 7 -10234194.59929  20841441.874
 92  3 13  5  1 30.0000000  0  4G12G20G13G24
  -3201272.668 7  -2494492.60429  21186884.028
  -5733191.067 6  -4467412.12925  23504938.077
   9196608.984 7   7166191.14024  22162535.788
 -13160311.336 7 -10254772.10629  20836416.141
 92  3 13  5  2  0.0000000  0  4G12G20G13G24
  -3161895.599 7  -2463809.16929  21194378.844
  -5825640.745 5  -4539450.73222  23487339.654
   9271011.669 7   7224167.27624  22176693.796
 -13186199.325 7 -10274944.54129  20831489.055
 92  3 13  5  2 30.0000000  0  4G12G20G13G24
  -3121921.095 7  -2432660.20829  21201986.965
  -5918013.889 6  -4611429.67824  23469761.614
   9345536.908 7   7282238.85926  22190875.169
 -13211570.160 7 -10294713.98629  20826659.096
 92  3 13  5  3  0.0000000  0  4G12G20G13G24
  -3081346.955 7  -2401044.00929  21209708.721
  -6010296.976 6  -4683338.45924  23452208.178
   9420186.860 7   7340407.66425  22205079.035
 -13236397.815 7 -10314060.17829  20821934.677
 92  3 13  5  3 30.0000000  0  4G12G20G13G24
  -3040165.569 7  -2368954.62228  21217542.002
  -6102470.683 6  -4755162.03524  23434659.820
   9494968.548 7   7398679.11523  22219311.991
 -13260669.059 7 -10332972.80329  20817316.668
 92  3 13  5  4  0.0000000  0  4G12G20G13G24
  -2998382.288 7  -2336396.21828  21225496.387
  -6194527.734 6  -4826894.71724  23417139.644
   9569876.113 7   7457048.65425  22233562.624
 -13284368.576 7 -10351439.92729  20812808.998
 92  3 13  5  4 30.0000000  0  4G12G20G13G24
  -2956005.337 7  -2303375.23229  21233557.218
  -6286472.243 6  -4898539.66524  23399650.966
   9644900.709 7   7515509.38225  22247840.846
 -13307495.957 7 -10369461.23329  20808406.535
 92  3 13  5  5  0.0000000  0  4G12G20G13G24
  -2913021.542 7  -2269881.37228  21241741.842
  -6378281.336 6  -4970079.12524  23382172.165
   9720055.225 7   7574071.32925  22262143.341
 -13330048.282 7 -10387034.43729  20804116.818
 92  3 13  5  5 30.0000000  0  4G12G20G13G24
  -2869442.648 7  -2235923.81128  21250030.206
  -6469964.172 6  -5041520.19123  23364735.332
   9795327.850 7   7632725.33825  22276468.016
 -13352049.922 7 -10404178.55029  20799932.605
 92  3 13  5  6  0.0000000  0  4G12G20G13G24
  -2825267.363 7  -2201501.50929  21258440.583
  -6561523.579 6  -5112865.08224  23347297.905
   9870719.162 7   7691471.80325  22290815.497
 -13373495.588 7 -10420889.42529  20795848.538
 92  3 13  5  6 30.0000000  0  4G12G20G13G24
  -2780495.372 7  -2166614.25428  21266955.295
  -6652961.428 5  -5184115.26625  23329904.243
   9946228.969 7   7750310.59825  22305184.844
 -13394390.729 7 -10437171.33129  20791871.180
 92  3 13  5  7  0.0000000  0  4G12G20G13G24
  -2735132.925 7  -2131266.89028  21275594.706
  -6744280.993 6  -5255273.25225  23312528.573
  10021850.815 7   7809236.71025  22319570.682
 -13414732.963 7 -10453022.39229  20787999.360
 92  3 13  5  7 30.0000000  0  4G12G20G13G24
  -2689183.646 7  -2095462.26128  21284336.061
  -6835478.390 6  -5326336.06323  23295172.691
  10097580.726 7   7868247.03825  22333984.108
 -13434513.020 7 -10468435.39329  20784238.175
 92  3 13  5  8  0.0000000  0  4G12G20G13G24
  -2642641.450 7  -2059195.61828  21293191.627
  -6926539.797 6  -5397292.92824  23277850.087
  10173424.695 7   7927346.21524  22348418.509
 -13453714.479 7 -10483397.53629  20780582.198
 92  3 13  5  8 30.0000000  0  4G12G20G13G24
  -2595505.899 7  -2022466.62728  21302160.219
  -7017457.516 6  -5468137.78923  23260541.862
  10249383.287 7   7986534.72324  22362871.512
 -13472342.729 8 -10497913.02129  20777035.057
 92  3 13  5  9  0.0000000  0  4G12G20G13G24
  -2547775.237 7  -1985273.91328  21311245.727
  -7108225.887 6  -5538866.32223  23243266.321
  10325457.830 7   8045813.59124  22377348.178
 -13490404.331 7 -10511986.97029  20773596.439
 92  3 13  5  9 30.0000000  0  4G12G20G13G24
  -2499456.853 7  -1947623.23627  21320439.462
  -7198843.655 6  -5609477.47723  23226025.854
  10401640.444 7   8105176.63823  22391847.041
 -13507917.306 7 -10525633.40829  20770263.640
 92  3 13  5 10  0.0000000  0  4G12G20G13G24
  -2450544.988 7  -1909510.09028  21329748.315
  -7289308.651 6  -5679969.59024  23208813.274
  10477937.190 7   8164628.65024  22406366.896
 -13524885.154 8 -10538855.08129  20767039.380
 92  3 13  5 10 30.0000000  0  4G12G20G13G24
  -2401049.724 7  -1870942.37627  21339166.006
  -7379627.870 6  -5750348.13025  23191626.764
  10554337.860 7   8224161.64424  22420904.428
 -13541331.203 7 -10551670.15329  20763908.043
 92  3 13  5 11  0.0000000  0  4G12G20G13G24
  -2350978.780 7  -1831926.06228  21348692.202
  -7469801.896 6  -5820613.52125  23174463.951
  10630835.072 7   8283769.86724  22435460.248
 -13557253.736 8 -10564077.29529  20760878.337
 92  3 13  5 11 30.0000000  0  4G12G20G13G24
  -2300315.545 7  -1792448.22628  21358335.035
  -7559812.450 6  -5890751.52324  23157342.199
  10707444.934 7   8343465.85825  22450039.468
 -13572620.189 8 -10576051.13029  20757954.762
 92  3 13  5 12  0.0000000  0  4G12G20G13G24
  -2249063.755 7  -1752511.77628  21368084.576
  -7649670.817 6  -5960770.95124  23140233.953
  10784163.628 7   8403246.63922  22464637.849
 -13587432.748 8 -10587593.35429  20755135.226
 92  3 13  5 12 30.0000000  0  4G12G20G13G24
  -2197230.706 7  -1712122.41027  21377950.162
  -7739383.950 6  -6030677.20624  23123165.563
  10860984.231 7   8463106.87325  22479259.038
 -13601694.036 8 -10598706.02229  20752423.305
 92  3 13  5 13  0.0000000  0  4G12G20G13G24
  -2144818.937 7  -1671282.06728  21387925.439
  -7828959.034 6  -6100475.87123  23106116.666
  10937904.045 7   8523044.38725  22493895.198
 -13615389.494 7 -10609377.78029  20749815.405
 92  3 13  5 13 30.0000000  0  4G12G20G13G24
  -2091826.002 7  -1629988.89328  21398007.163
  -7918394.841 6  -6170166.03224  23089105.251
  11014926.097 7   8583061.55725  22508552.945
 -13628528.225 7 -10619615.73129  20747316.935
 92  3 13  5 14  0.0000000  0  4G12G20G13G24
  -2038257.119 7  -1588246.90928  21408200.708
  -8007684.238 6  -6239742.09025  23072105.807
  11092045.398 7   8643154.52923  22523225.996
 -13641127.181 7 -10629433.07229  20744916.797
 92  3 13  5 14 30.0000000  0  4G12G20G13G24
  -1984114.525 7  -1546057.90228  21418503.683
  -8096821.192 6  -6309199.36725  23055148.052
  11169260.144 7   8703321.85424  22537919.131
 -13653174.838 7 -10638820.83729  20742623.978
 92  3 13  5 15  0.0000000  0  4G12G20G13G24
  -1929411.842 7  -1503432.44028  21428913.680
  -8185816.864 6  -6378546.54225  23038214.274
  11246556.712 7   8763552.94924  22552629.037
 -13664681.505 8 -10647787.03729  20740436.087
 92  3 13  5 15 30.0000000  0  4G12G20G13G24
  -1874144.210 7  -1460366.76727  21439433.683
  -8274658.664 6  -6447773.81825  23021304.175
  11323940.441 6   8823851.96423  22567353.949
 -13675648.641 7 -10656332.83829  20738347.139
 92  3 13  5 16  0.0000000  0  4G12G20G13G24
  -1818312.247 7  -1416861.35328  21450054.444
  -8363350.012 6  -6516883.86825  23004431.560
  11401410.619 7   8884218.31724  22582095.649
 -13686059.611 8 -10664445.25329  20736367.604
 92  3 13  5 16 30.0000000  0  4G12G20G13G24
  -1761920.533 7  -1372919.76628  21460785.211
  -8451893.922 6  -6585879.01425  22987580.233
  11478962.865 6   8944648.64424  22596848.429
 -13695907.015 7 -10672118.53229  20734492.717
 92  3 13  5 17  0.0000000  0  4G12G20G13G24
  -1704973.702 7  -1328545.61628  21471624.501
  -8540279.042 6  -6654750.43825  22970756.775
  11556593.106 6   9005139.72825  22611625.204
 -13705207.137 7 -10679365.35829  20732725.133
 92  3 13  5 17 30.0000000  0  4G12G20G13G24
  -1647475.783 7  -1283742.06828  21482563.624
  -8628495.334 6  -6723490.31026  22953975.599
  11634297.466 7   9065688.58425  22626411.262
 -13713973.357 7 -10686196.15029  20731054.693
 92  3 13  5 18  0.0000000  0  4G12G20G13G24
  -1589420.379 7  -1238504.10327  21493613.381
  -8716529.835 6  -6792088.51926  22937214.804
  11712083.378 6   9126300.98325  22641214.718
 -13722201.151 7 -10692607.39729  20729490.979
 92  3 13  5 18 30.0000000  0  4G12G20G13G24
  -1530806.331 7  -1192830.83528  21504768.363
  -8804364.697 6  -6860531.16324  22920506.762
  11789951.666 6   9186977.56024  22656032.850
 -13729899.590 8 -10698606.15129  20728025.894
 92  3 13  5 19  0.0000000  0  4G12G20G13G24
  -1471647.160 7  -1146732.79928  21516024.957
  -8892019.200 6  -6928833.27125  22903823.010
  11867889.919 6   9247708.67224  22670863.894
 -13737093.736 8 -10704211.96229  20726658.233
 92  3 13  5 19 30.0000000  0  4G12G20G13G24
  -1411940.736 7  -1100208.33628  21527384.997
  -8979508.880 6  -6997006.95324  22887173.740
  11945900.558 6   9308496.19425  22685705.706
 -13743766.391 7 -10709411.40629  20725382.622
 92  3 13  5 20  0.0000000  0  4G12G20G13G24
  -1351684.625 7  -1053255.52927  21538851.465
  -9066834.806 6  -7065053.02625  22870559.841
  12023986.482 6   9369342.35924  22700565.823
 -13749898.212 7 -10714189.42629  20724220.926
 92  3 13  5 20 30.0000000  0  4G12G20G13G24
  -1290885.931 7  -1005879.94627  21550419.860
  -9154007.332 6  -7132979.57025  22853967.825
  12102141.893 6   9430242.66722  22715440.929
 -13755484.516 7 -10718542.36129  20723159.953
 92  3 13  5 21  0.0000000  0  4G12G20G13G24
  -1229538.126 7   -958076.46628  21562095.574
  -9241025.030 6  -7200785.48624  22837409.383
  12180373.310 6   9491202.21724  22730326.227
 -13760507.750 7 -10722456.54429  20722200.627
 92  3 13  5 21 30.0000000  0  4G12G20G13G24
  -1167640.556 7   -909844.61428  21573875.308
  -9327870.784 6  -7268457.40624  22820885.126
  12258682.378 6   9552222.25822  22745229.812
 -13764955.535 7 -10725922.32829  20721356.403
 92  3 13  5 22  0.0000000  0  4G12G20G13G24
  -1105197.925 7   -861188.03327  21585756.691
  -9414525.042 6  -7335980.12325  22804391.146
  12337064.803 6   9613299.46725  22760143.588
 -13768830.942 7 -10728942.09529  20720616.810
 92  3 13  5 22 30.0000000  0  4G12G20G13G24
  -1042220.911 7   -812115.05827  21597740.296
  -9500991.291 6  -7403356.33525  22787945.136
  12415510.603 6   9674426.04923  22775074.448
 -13772151.980 7 -10731529.89929  20719984.257
 92  3 13  5 23  0.0000000  0  4G12G20G13G24
   -978703.937 7   -762621.33627  21609824.938
  -9587249.984 6  -7470570.81825  22771526.697
  12494025.840 6   9735606.77423  22790016.093
 -13774929.262 7 -10733693.98529  20719455.725
 92  3 13  5 23 30.0000000  0  4G12G20G13G24
   -914642.184 7   -712703.11428  21622017.789
  -9673290.436 6  -7537615.25225  22755155.042
  12572616.663 6   9796846.38025  22804966.759
 -13777163.395 7 -10735434.85029  20719033.011
 92  3 13  5 24  0.0000000  0  4G12G20G13G24
   -850046.295 7   -662368.67227  21634312.270
  -9759134.850 6  -7604506.92625  22738821.743
  12651273.193 6   9858137.15625  22819938.993
 -13778865.867 7 -10736761.41829  20718707.442
 92  3 13  5 24 30.0000000  0  5G12G16G20G13G24
   -784910.089 7   -611613.20427  21646703.304
   -276359.779 5   -215345.16623  24879691.550
  -9844793.531 6  -7671253.86525  22722515.422
  12730003.056 6   9919485.11023  22834919.307
 -13780041.858 7 -10737677.75729  20718481.986
 92  3 13  5 25  0.0000000  0  5G12G16G20G13G24
   -719241.511 7   -560442.90326  21659201.638
   -369536.665 4   -287950.34621  24861959.424
  -9930279.296 6  -7737866.08625  22706251.697
  12808798.417 6   9980884.07322  22849913.127
 -13780693.716 7 -10738185.67529  20718358.473
 92  3 13  5 25 30.0000000  0  5G12G16G20G13G24
   -653047.049 7   -508862.82628  21671798.933
   -462730.873 4   -360569.13821  24844216.200
 -10015604.460 6  -7804353.14326  22690015.526
  12887653.608 7  10042329.69422  22864921.641
 -13780809.249 8 -10738275.74029  20718338.999
 92  3 13  5 26  0.0000000  0  5G12G16G20G13G24
   -586331.044 7   -456876.35027  21684490.947
   -555965.899 4   -433219.66923  24826476.885
 -10100758.656 7  -7870706.99925  22673813.540
  12966565.616 6  10103819.56522  22879936.157
 -13780392.362 7 -10737950.82629  20718416.041
 92  3 13  5 26 30.0000000  0  5G12G16G20G13G24
   -519091.081 7   -404481.59727  21697291.485
   -649231.414 5   -505893.98922  24808739.366
 -10185719.397 7  -7936910.10625  22657641.533
  13045537.424 6  10165356.07523  22894962.644
 -13779451.314 7 -10737217.51429  20718594.417
 92  3 13  5 27  0.0000000  0  5G12G16G20G13G24
   -451319.760 7   -351672.78928  21710184.648
   -742492.678 4   -578565.01822  24790984.450
 -10270449.435 7  -8002933.46226  22641519.905
  13124577.922 6  10226946.04124  22910007.733
 -13777967.711 7 -10736061.44829  20718877.722
 92  3 13  5 27 30.0000000  0  5G12G16G20G13G24
   -383023.121 7   -298454.65227  21723181.553
   -835743.061 5   -651227.53523  24773239.150
 -10354935.138 6  -8068766.39425  22625439.634
  13203681.440 6  10288585.14323  22925055.213
 -13775944.750 8 -10734485.08429  20719263.249
 92  3 13  5 28  0.0000000  0  5G12G16G20G13G24
   -314204.792 7   -244829.99827  21736277.993
   -928973.726 4   -723874.64422  24755502.818
 -10439177.042 7  -8134409.38525  22609413.022
  13282845.900 6  10350271.74923  22940123.075
 -13773389.413 7 -10732493.90529  20719750.110
 92  3 13  5 28 30.0000000  0  5G12G16G20G13G24
   -244861.532 7   -190796.30127  21749474.249
  -1022158.360 5   -796485.95922  24737765.597
 -10523184.785 7  -8199869.90725  22593423.004
  13362075.542 6  10412009.09925  22955197.254
 -13770288.459 7 -10730077.55129  20720339.212
 92  3 13  5 29  0.0000000  0  5G12G16G20G13G24
   -175004.996 7   -136362.65927  21762770.041
  -1115316.755 4   -869076.75823  24720042.772
 -10606982.601 7  -8265166.83825  22577484.533
  13441359.637 6  10473788.93322  22970284.310
 -13766635.773 7 -10727231.29129  20721034.429
 92  3 13  5 29 30.0000000  0  5G12G16G20G13G24
   -104640.755 7    -81533.39628  21776156.679
  -1208469.612 4   -941663.30722  24702314.240
 -10690591.679 7  -8330316.71125  22561562.553
  13520694.521 6  10535608.32423  22985383.059
 -13762447.313 7 -10723967.54029  20721833.073
 92  3 13  5 30  0.0000000  0  5G12G16G20G13G24
    -33763.699 7    -26304.54326  21789646.448
  -1301620.674 4  -1014248.43821  24684587.820
 -10774012.704 7  -8395320.05025  22545697.845
  13600085.658 6  10597471.54023  23000491.684
 -13757717.683 7 -10720282.09729  20722731.253
 92  3 13  5 30 30.0010000  0  5G12G16G20G13G24
     37631.668 7     29328.18127  21803230.940
  -1394779.161 4  -1086839.35122  24666865.278
 -10857226.314 7  -8460161.76325  22529859.507
  13679539.669 6  10659383.74423  23015615.617
 -13752439.743 7 -10716169.39429  20723737.960
 92  3 13  5 31  0.0010000  0  5G12G16G20G13G24
    109535.953 7     85357.48226  21816910.462
  -1487945.950 4  -1159436.76722  24649125.369
 -10940212.748 7  -8524826.46225  22514067.043
  13759048.442 6  10721338.62023  23030738.359
 -13746621.404 7 -10711635.61129  20724839.086
 92  3 13  5 31 30.0010000  0  5G12G16G20G13G24
    181932.056 7    141770.02126  21830690.428
  -1581131.900 4  -1232049.09022  24631394.133
 -11022981.460 7  -8589321.51225  22498316.232
  13838596.834 6  10783324.38222  23045874.870
 -13740284.427 7 -10706697.69029  20726045.158
 92  3 13  5 32  0.0010000  0  5G12G16G20G13G24
    254831.023 7    198574.38926  21844563.630
  -1674311.871 4  -1304656.75424  24613663.822
 -11105511.292 7  -8653630.39926  22482611.018
  13918196.687 6  10845350.22524  23061021.293
 -13733401.720 7 -10701334.52729  20727359.141
 92  3 13  5 32 30.0010000  0  5G12G16G20G13G24
    328234.201 7    255771.64727  21858529.162
  -1767471.604 4  -1377248.65723  24595939.793
 -11187799.169 7  -8717750.76426  22466947.162
  13997850.708 6  10907418.29924  23076184.188
 -13725983.407 7 -10695554.01029  20728768.770
 92  3 13  5 33  0.0010000  0  5G12G16G20G13G24
    402136.268 7    313357.65726  21872594.822
  -1860593.240 4  -1449810.83523  24578219.952
 -11269863.035 7  -8781696.57025  22451338.762
  14077554.626 6  10969525.25123  23091348.585
 -13718043.151 7 -10689366.78129  20730280.622
 92  3 13  5 33 30.0010000  0  5G12G16G20G13G24
    476523.015 7    371321.34426  21886750.718
  -1953677.809 4  -1522344.19723  24560511.209
 -11351720.920 7  -8845481.87726  22435756.747
  14157296.162 6  11031661.51423  23106525.877
 -13709597.492 7 -10682785.72229  20731889.305
 92  3 13  5 34  0.0010000  0  5G12G16G20G13G24
    551407.673 7    429672.99326  21900999.554
  -2046702.056 4  -1594830.50923  24542794.980
 -11433340.279 7  -8909081.31325  22420227.799
  14237089.437 6  11093838.08123  23121703.779
 -13700631.504 7 -10675799.23229  20733593.336
 92  3 13  5 34 30.0010000  0  5G12G16G20G13G24
    626788.331 7    488411.14626  21915343.423
  -2139658.343 4  -1667263.86821  24525108.417
 -11514714.556 7  -8972489.78425  22404745.320
  14316933.975 6  11156054.59422  23136897.562
 -13691152.963 8 -10668413.34229  20735401.074
 92  3 13  5 35  0.0010000  0  5G12G16G20G13G24
    702657.479 7    547529.95327  21929779.936
  -2232541.530 4  -1739640.33622  24507443.753
 -11595836.151 7  -9035701.36526  22389304.215
  14396824.336 6  11218306.82523  23152108.131
 -13681147.785 8 -10660617.07629  20737301.159
 92  3 13  5 35 30.0010000  0  5G12G16G20G13G24
    779018.159 7    607031.75826  21944311.169
  -2325355.124 5  -1811962.50622  24489782.074
 -11676689.363 7  -9098703.80926  22373920.662
  14476764.828 6  11280598.07723  23167312.401
 -13670599.887 7 -10652397.92229  20739308.579
 92  3 13  5 36  0.0010000  0  5G12G16G20G13G24
    855866.798 7    666913.79426  21958934.155
  -2418095.676 4  -1884227.74823  24472130.288
 -11757267.122 7  -9161491.62226  22358585.376
  14556752.872 6  11342926.45022  23182539.165
 -13659507.326 7 -10643754.34629  20741419.707
 92  3 13  5 36 30.0010000  0  5G12G16G20G13G24
    933200.272 7    727173.62626  21973652.750
  -2510761.316 4  -1956434.68624  24454491.102
 -11837587.831 7  -9224079.12427  22343302.545
  14636786.949 6  11405290.65322  23197768.615
 -13647880.960 7 -10634694.82729  20743630.981
 92  3 13  5 37  0.0010000  0  5G12G16G20G13G24
   1011015.280 7    787808.67326  21988461.598
  -2603357.785 5  -2028587.65222  24436880.395
 -11917650.646 7  -9286465.67627  22328061.699
  14716865.702 6  11467689.70422  23212999.567
 -13635720.251 7 -10625218.93229  20745946.276
 92  3 13  5 37 30.0010000  0  5G12G16G20G13G24
   1089306.526 7    848814.79926  22003360.088
  -2695896.192 4  -2100695.41321  24419265.203
 -11997455.991 7  -9348651.59326  22312878.422
  14796984.710 6  11530120.05124  23228246.712
 -13623042.790 8 -10615340.37729  20748362.014
 92  3 13  5 38  0.0010000  0  5G12G16G20G13G24
   1168071.321 7    910189.94926  22018350.610
  -2788376.058 5  -2172757.59523  24401670.375
 -12076997.483 7  -9410631.92826  22297741.893
  14877143.463 6  11592581.41523  23243508.550
 -13609859.689 7 -10605067.81029  20750865.579
 92  3 13  5 38 30.0010000  0  5G12G16G20G13G24
   1247315.193 7    971938.39726  22033423.585
  -2880804.317 4  -2244779.49723  24384076.751
 -12156266.179 7  -9472399.67626  22282657.541
  14957349.131 6  11655079.33622  23258767.998
 -13596157.474 8 -10594390.74229  20753475.260
 92  3 13  5 39  0.0010000  0  5G12G16G20G13G24
   1327032.031 7   1034055.40225  22048596.968
  -2973194.499 5  -2316771.76122  24366503.213
 -12235254.085 7  -9533948.63426  22267626.849
  15037597.009 6  11717610.12923  23274036.118
 -13581933.337 8 -10583306.98429  20756181.788
 92  3 13  5 39 30.0010000  0  5G12G16G20G13G24
   1407224.826 7   1096543.26526  22063855.508
  -3065539.169 5  -2388728.55723  24348926.394
 -12313959.155 7  -9595277.21226  22252648.611
  15117891.768 6  11780177.44822  23289317.745
 -13567189.484 7 -10571818.25729  20758988.150
 92  3 13  5 40  0.0010000  0  5G12G16G20G13G24
   1487876.649 7   1159388.81426  22079202.486
  -3157843.538 5  -2460653.98821  24331363.343
 -12392405.072 7  -9656403.84226  22237722.550
  15198218.455 6  11842769.70922  23304610.453
 -13551936.274 8 -10559932.6272   20761888.341
 92  3 13  5 40 30.0010000  0  5G12G16G20G13G24
   1568979.594 7   1222585.87727  22094636.698
  -3250103.987 5  -2532545.11722  24313805.405
 -12470606.330 7  -9717339.83926  22222843.849
  15278570.552 6  11905381.68623  23319895.674
 -13536176.443 8 -10547652.22929  20764890.773
 92  3 13  5 41  0.0010000  0  5G12G16G20G13G24
   1650528.289 7   1286130.29226  22110153.065
  -3342301.940 5  -2604387.60523  24296265.738
 -12548569.764 7  -9778090.50826  22208007.709
  15358944.512 6  11968010.69623  23335188.085
 -13519924.514 8 -10534988.37529  20767980.718
 92  3 13  5 41 30.0010000  0  5G12G16G20G13G24
   1732530.689 7   1350028.23827  22125755.758
  -3434407.574 5  -2676158.18523  24278730.590
 -12626291.342 7  -9838652.72826  22193214.758
  15439350.464 6  12030664.68922  23350492.799
 -13503154.581 7 -10521920.88029  20771170.513
 92  3 13  5 42  0.0010000  0  5G12G16G20G13G24
   1814985.998 6   1414279.10226  22141445.999
  -3526409.943 5  -2747848.22123  24261221.198
 -12703762.239 7  -9899019.60627  22178473.058
  15519789.363 6  12093344.36223  23365802.294
 -13485861.814 8 -10508445.98429  20774462.846
 92  3 13  5 42 30.0010000  0  5G12G16G20G13G24
   1897897.684 7   1478885.58826  22157228.273
  -3618294.748 5  -2819446.71122  24243737.616
 -12780965.400 7  -9959177.86427  22163779.940
  15600265.812 6  12156053.27724  23381109.694
 -13468037.998 8 -10494557.28629  20777855.290
 92  3 13  5 43  0.0010000  0  5G12G16G20G13G24
   1981257.005 7   1543840.87426  22173092.685
  -3710067.651 5  -2890957.99823  24226270.506
 -12857906.844 7 -10019132.17726  22149138.666
  15680773.844 6  12218786.78022  23396425.192
 -13449691.692 8 -10480261.45529  20781346.677
 92  3 13  5 43 30.0010000  0  5G12G16G20G13G24
   2065064.779 7   1609145.60526  22189034.157
  -3801736.763 5  -2962388.37122  24208827.984
 -12934573.236 7 -10078872.17427  22134552.570
  15761315.755 6  12281546.72722  23411755.383
 -13430822.681 8 -10465558.31529  20784936.397
 92  3 13  5 44  0.0010000  0  5G12G16G20G13G24
   2149318.384 7   1674797.73626  22205071.256
  -3893302.399 5  -3033738.11323  24191407.030
 -13010950.533 7 -10138386.90626  22120017.132
  15841890.394 6  12344332.10922  23427084.666
 -13411460.111 8 -10450470.59329  20788622.930
 92  3 13  5 44 30.0010000  0  5G12G16G20G13G24
   2234030.389 7   1740807.07226  22221193.180
  -3984745.597 5  -3104992.46923  24174007.087
 -13087021.692 7 -10197663.09226  22105543.154
  15922512.646 6  12407154.67123  23442432.848
 -13391585.340 8 -10434983.74129  20792404.811
 92  3 13  5 45  0.0010000  0  5G12G16G20G13G24
   2319192.269 7   1807166.95126  22237398.761
  -4076089.012 5  -3176169.06922  24156617.927
 -13162788.521 7 -10256702.13928  22091123.428
  16003176.007 6  12470009.18722  23457785.218
 -13371206.307 8 -10419103.97329  20796280.242
 92  3 13  5 45 30.0010000  0  5G12G16G20G13G24
   2404777.947 7   1873857.06226  22253686.795
  -4167352.473 5  -3247283.35624  24139254.838
 -13238250.499 7 -10315503.62927  22076764.272
  16083856.410 6  12532877.07223  23473133.679
 -13350340.881 8 -10402845.18829  20800252.191
 92  3 13  5 46  0.0010000  0  5G12G16G20G13G24
   2490798.894 6   1940886.33026  22270052.464
  -4258505.818 5  -3318311.84723  24121909.147
 -13313399.036 7 -10374060.88827  22062464.168
  16164566.786 6  12595768.25822  23488497.148
 -13328970.390 8 -10386192.84329  20804318.563
 92  3 13  5 46 30.0010000  0  5G12G16G20G13G24
   2577260.877 6   2008259.28425  22286502.976
  -4349550.934 5  -3389256.01222  24104586.840
 -13388226.777 7 -10432368.16226  22048221.335
  16245314.940 6  12658688.91323  23503860.616
 -13307073.332 8 -10369130.18529  20808488.676
 92  3 13  5 47  0.0010000  0  5G12G16G20G13G24
   2664158.846 6   2075971.96126  22303040.129
  -4440487.095 5  -3460115.28723  24087282.523
 -13462733.140 7 -10490425.02026  22034044.150
  16326098.538 5  12721637.17723  23519231.274
 -13284660.051 8 -10351665.28929  20812749.636
 92  3 13  5 47 30.0010000  0  5G12G16G20G13G24
   2751474.200 6   2144009.88426  22319659.716
  -4531304.461 5  -3530881.97522  24069997.385
 -13536940.497 7 -10548248.90227  22019922.125
  16406900.858 5  12784600.00022  23534610.936
 -13261757.743 8 -10333819.31729  20817107.723
 92  3 13  5 48  0.0010000  0  5G12G16G20G13G24
   2839206.996 7   2212373.05826  22336356.363
  -4621995.233 5  -3601550.01722  24052734.739
 -13610855.701 7 -10605845.11126  22005856.464
  16487723.882 6  12847578.95921  23549994.176
 -13238381.720 8 -10315604.23529  20821558.436
 92  3 13  5 48 30.0010000  0  5G12G16G20G13G24
   2927364.886 6   2281067.49126  22353133.055
  -4712549.667 5  -3672111.84622  24035499.665
 -13684457.091 7 -10663196.81327  21991856.154
  16568577.086 6  12910581.42722  23565375.338
 -13214522.645 8 -10297012.73529  20826099.994
 92  3 13  5 49  0.0010000  0  5G12G16G20G13G24
   3015958.150 6   2350101.16626  22369984.975
  -4802936.022 5  -3742542.68723  24018303.872
 -13757732.090 7 -10720294.17527  21977908.317
  16649473.037 6  12973617.25221  23580769.066
 -13190175.232 8 -10278040.71629  20830729.380
 92  3 13  5 49 30.0010000  0  5G12G16G20G13G24
   3104971.702 6   2419462.35726  22386922.959
  -4893162.868 5  -3812849.23823  24001135.964
 -13830696.501 7 -10777149.52526  21964025.221
  16730398.682 6  13036676.17424  23596173.612
 -13165351.164 8 -10258697.27629  20835453.817
 92  3 13  5 50  0.0010000  0  5G12G16G20G13G24
   3194393.361 6   2489141.53825  22403940.673
  -4983255.770 5  -3883051.41923  23983989.031
 -13903359.128 7 -10833769.71527  21950199.989
  16811344.235 6  13099750.61923  23611571.544
 -13140043.157 8 -10238976.74529  20840270.880
 92  3 13  5 50 30.0010000  0  5G12G16G20G13G24
   3284224.842 7   2559140.06125  22421043.230
  -5073206.593 5  -3953142.89922  23966872.077
 -13975719.514 7 -10890154.38827  21936429.918
  16892313.589 5  13162843.60022  23626982.372
 -13114230.341 8 -10218862.85429  20845184.774
 92  3 13  5 51  0.0010000  0  5G12G16G20G13G24
   3374464.252 6   2629456.44225  22438204.856
  -5163018.878 5  -4023126.40923  23949786.307
 -14047782.629 7 -10946307.44127  21922716.821
  16973306.607 6  13225954.98822  23642396.202
 -13087915.651 8 -10198357.89129  20850193.720
 92  3 13  5 51 30.0010000  0  5G12G16G20G13G24
   3465108.191 6   2700088.07025  22455452.512
  -5252709.446 5  -4093015.09724  23932715.824
 -14119538.867 7 -11002221.36828  21909060.368
  17054322.155 5  13289084.02322  23657810.346
 -13061090.150 8 -10177454.90029  20855295.273
 92  3 13  5 52  0.0010000  0  5G12G16G20G13G24
   3556154.058 6   2771032.87525  22472780.822
  -5342282.405 5  -4162812.12024  23915666.333
 -14190974.436 7 -11057885.41527  21895465.688
  17135360.185 6  13352230.47522  23673232.866
 -13033755.047 8 -10156154.80529  20860496.380
 92  3 13  5 52 30.0010000  0  5G12G16G20G13G24
   3647600.261 7   2842289.62626  22490191.567
  -5431719.337 5  -4232503.15421  23898652.510
 -14262079.563 7 -11113291.97927  21881939.344
  17216421.495 5  13415395.14622  23688658.980
 -13005919.326 8 -10134464.62729  20865794.319
 92  3 13  5 53  0.0010000  0  5G12G16G20G13G24
   3739442.501 7   2913854.96025  22507667.071
  -5521024.211 5  -4302091.29422  23881664.775
 -14332853.482 7 -11168440.45928  21868470.865
  17297504.102 5  13478576.35922  23704088.707
 -12977591.843 8 -10112391.25829  20871182.789
 92  3 13  5 53 30.0010000  0  5G12G16G20G13G24
   3831679.112 6   2985727.62825  22525211.223
  -5610175.249 5  -4371559.56323  23864685.417
 -14403293.692 7 -11223328.89627  21855063.548
  17378608.082 6  13541774.23422  23719521.418
 -12948768.548 8 -10089931.54629  20876669.574
 92  3 13  5 54  0.0010000  0  5G12G16G20G13G24
   3924305.952 6   3057904.34526  22542839.311
  -5699144.317 5  -4440886.04323  23847764.831
 -14473416.175 8 -11277969.77028  21841720.990
  17459732.036 6  13604987.66224  23734956.537
 -12919457.436 8 -10067091.71129  20882244.831
 92  3 13  5 54 30.0010000  0  5G12G16G20G13G24
   4017323.492 7   3130385.50525  22560544.162
  -5787924.706 5  -4510065.50024  23830869.129
 -14543211.859 8 -11332355.99027  21828435.685
  17540878.424 6  13668218.59422  23750397.641
 -12889658.660 8 -10043871.88129  20887915.698
 92  3 13  5 55  0.0010000  0  5G12G16G20G13G24
   4110731.174 6   3203170.67625  22578311.363
  -5876519.725 5  -4579100.49024  23814013.300
 -14612670.172 8 -11386479.33228  21815217.233
  17622049.347 6  13731468.62022  23765849.251
 -12859376.014 8 -10020275.00129  20893679.802
 92  3 13  5 55 30.0010000  0  5G12G16G20G13G24
   4204508.359 6   3276243.78425  22596161.295
  -5964939.665 5  -4647999.07023  23797185.654
 -14681787.147 8 -11440336.68628  21802066.242
  17703226.519 5  13794723.55222  23781289.151
 -12828621.855 8  -9996310.71829  20899534.454
 92  3 13  5 56  0.0010000  0  5G12G16G20G13G24
   4298662.677 7   3349610.73625  22614084.396
  -6053193.877 5  -4716768.51022  23780391.582
 -14750536.268 8 -11493907.39927  21788984.495
  17784419.980 5  13857991.15621  23796738.056
 -12797397.555 8  -9971980.08129  20905472.746
 92  3 13  5 56 30.0010000  0  5G12G16G20G13G24
   4393187.855 6   3423266.66525  22632065.642
  -6141296.316 5  -4785419.71722  23763628.379
 -14818915.419 8 -11547189.82227  21775973.211
  17865625.928 5  13921268.48822  23812195.057
 -12765708.942 8  -9947287.65729  20911504.571
 92  3 13  5 57  0.0010000  0  5G12G16G20G13G24
   4488089.019 6   3497215.61925  22650123.354
  -6229225.246 5  -4853935.69722  23746900.269
 -14886925.051 8 -11600184.31427  21763029.966
  17946851.952 5  13984561.41023  23827649.057
 -12733546.637 8  -9922226.10929  20917623.926
 92  3 13  5 57 30.0010000  0  5G12G16G20G13G24
   4583351.243 6   3571445.88725  22668256.887
  -6316982.775 5  -4922318.11024  23730192.226
 -14954580.772 7 -11652903.03928  21750152.682
  18028085.163 6  14047860.00022  23843110.561
 -12700925.420 8  -9896806.97629  20923832.626
 92  3 13  5 58  0.0010000  0  5G12G16G20G13G24
   4678978.149 6   3645960.30225  22686449.490
  -6404564.699 5  -4990563.67123  23713524.372
 -15021898.097 7 -11705358.06728  21737343.158
  18109332.152 6  14111169.34122  23858572.658
 -12667851.870 8  -9871035.36029  20930126.169
 92  3 13  5 58 30.0010000  0  5G12G16G20G13G24
   4774970.543 6   3720759.54425  22704711.055
  -6491950.752 5  -5058656.64523  23696896.077
 -15088875.290 7 -11757548.06528  21724599.281
  18190595.693 6  14174491.58322  23874028.159
 -12634313.641 8  -9844901.67229  20936508.761
 92  3 13  5 59  0.0010000  0  5G12G16G20G13G24
   4871314.812 6   3795832.96725  22723058.354
  -6579150.229 5  -5126604.20524  23680306.172
 -15155507.173 7 -11809468.98927  21711920.145
  18271865.101 5  14237818.37123  23889504.635
 -12600321.322 8  -9818414.14429  20942977.086
 92  3 13  5 59 30.0010000  0  5G12G16G20G13G24
   4968015.001 6   3871183.72325  22741454.513
  -6666165.132 5  -5194407.95722  23663748.934
 -15221789.979 7 -11861117.89627  21699307.878
  18353146.283 5  14301154.22621  23904972.735
 -12565867.143 8  -9791566.72029  20949532.033
 92  3 13  6  0  0.0010000  0  5G12G16G20G13G24
   5065061.138 6   3946804.05525  22759922.933
  -6752999.462 5  -5262070.99424  23647213.579
 -15287731.103 8 -11912500.56327  21686761.573
  18434432.442 5  14364494.10322  23920433.331
 -12530953.456 8  -9764361.25629  20956173.045
 92  3 13  6  0 30.0010000  0  5G12G16G20G13G24
   5162452.798 6   4022693.61723  22778452.814
  -6839634.459 6  -5329578.72822  23630735.181
 -15353312.764 7 -11963603.12728  21674279.415
  18515725.626 6  14427839.39922  23935908.324
 -12495572.646 8  -9736791.78129  20962909.684
 92  3 13  6  1  0.0010000  0  5G12G16G20G13G24
   5260193.231 6   4098854.96625  22797051.936
  -6926062.082 5  -5396924.85424  23614287.671
 -15418532.997 7 -12014424.05628  21661866.202
  18597031.322 6  14491194.43522  23951383.002
 -12459723.724 8  -9708857.55829  20969732.649
 92  3 13  6  1 30.0010000  0  5G12G16G20G13G24
   5358278.627 6   4175285.11325  22815716.410
  -7012273.328 6  -5464102.38323  23597883.925
 -15483397.994 7 -12064968.18127  21649524.344
  18678348.280 6  14554558.32921  23966852.899
 -12423412.129 8  -9680562.79629  20976641.976
 92  3 13  6  2  0.0010000  0  5G12G16G20G13G24
   5456702.836 6   4251979.25125  22834445.938
  -7098260.459 6  -5531105.26625  23581523.351
 -15547889.146 8 -12115221.00628  21637254.433
  18759673.442 5  14617928.62822  23982329.375
 -12386655.541 8  -9651921.29929  20983634.034
 92  3 13  6  2 30.0010000  0  5G12G16G20G13G24
   5555456.596 6   4328930.19524  22853241.428
  -7184028.446 5  -5597937.40224  23565199.650
 -15611998.447 8 -12165176.29128  21625054.392
  18840999.612 5  14681299.64222  23997808.259
 -12349468.022 8  -9622944.00429  20990713.936
 92  3 13  6  3  0.0010000  0  5G12G16G20G13G24
   5654539.604 6   4406137.68525  22872095.079
  -7269580.964 5  -5664601.63423  23548917.323
 -15675722.483 7 -12214831.36028  21612925.391
  18922329.176 5  14744673.29622  24013281.158
 -12311847.888 8  -9593629.61629  20997872.068
 92  3 13  6  3 30.0010000  0  6G12G16G20G 3G13G24
   5753943.618 6   4483595.31524  22891013.489
  -7354928.951 5  -5731106.50224  23532674.869
 -15739064.424 7 -12264188.67727  21600871.636
   -162929.648 4   -126958.48722  24740619.321
  19003656.681 5  14808045.37122  24028754.947
 -12273806.331 8  -9563986.83629  21005110.261
 92  3 13  6  4  0.0010000  0  6G12G16G20G 3G13G24
   5853674.645 6   4561307.76725  22909990.042
  -7440073.951 5  -5797453.19223  23516470.789
 -15802017.657 8 -12313243.12028  21588891.625
   -237967.302 4   -185429.28122  24726332.723
  19084990.784 5  14871422.54421  24044226.921
 -12235326.424 8  -9534002.50829  21012431.797
 92  3 13  6  4 30.0010000  0  6G12G16G20G 3G13G24
   5953727.215 6   4639270.76525  22929028.369
  -7525015.639 6  -5863641.45725  23500308.380
 -15864606.774 8 -12362013.84428  21576983.265
   -312903.178 4   -243820.77921  24712068.287
  19166328.435 5  14934802.52122  24059713.012
 -12196392.951 8  -9503664.72429  21019839.972
 92  3 13  6  5  0.0010000  0  6G12G16G20G 3G13G24
   6054100.590 6   4717483.74324  22948127.842
  -7609759.543 6  -5929675.59123  23484190.940
 -15926841.363 8 -12410508.30328  21565139.366
   -387734.890 4   -302131.09924  24697833.848
  19247671.430 5  14998186.66622  24075189.802
 -12157000.751 8  -9472969.50229  21027337.773
 92  3 13  6  5 30.0010000  0  6G12G16G20G 3G13G24
   6154796.201 6   4795947.79424  22967291.776
  -7694286.692 6  -5995540.86025  23468100.478
 -15988712.070 7 -12458719.22728  21553368.008
   -462457.830 4   -360356.67321  24683618.883
  19329024.351 5  15061578.49522  24090671.670
 -12117151.168 8  -9441917.87729  21034919.822
 92  3 13  6  6  0.0010000  0  6G12G16G20G 3G13G24
   6255798.453 6   4874650.80624  22986508.776
  -7778583.066 6  -6061226.29324  23452054.375
 -16050219.040 8 -12506646.70928  21541665.019
   -537084.724 4   -418507.40922  24669407.827
  19410373.813 5  15124967.68922  24106152.351
 -12076852.546 8  -9410516.35329  21042587.919
 92  3 13  6  6 30.0010000  0  6G12G16G20G 3G13G24
   6357107.942 6   4953593.22824  23005786.625
  -7862625.188 6  -6126713.59024  23436066.154
 -16111341.713 8 -12554274.74328  21530026.178
   -611611.651 4   -476580.21721  24655229.734
  19491723.638 5  15188357.15022  24121627.937
 -12036112.014 8  -9378770.48429  21050339.952
 92  3 13  6  7  0.0010000  0  6G12G16G20G 3G13G24
   6458729.702 6   5032778.96125  23025128.027
  -7946402.888 6  -6191994.85624  23420126.183
 -16172053.510 8 -12601582.61428  21518479.369
   -686031.036 4   -534569.26622  24641058.256
  19573081.627 5  15251753.02322  24137107.432
 -11994932.480 8  -9346682.53229  21058176.827
 92  3 13  6  7 30.0010000  0  6G12G16G20G 3G13G24
   6560660.703 6   5112205.66825  23044519.215
  -8029900.542 6  -6257057.90023  23404233.589
 -16232347.430 8 -12648564.86828  21507006.915
   -760342.350 4   -592474.13222  24626918.536
  19654447.294 4  15315154.71322  24152602.196
 -11953320.145 8  -9314257.33929  21066094.654
 92  3 13  6  8  0.0010000  0  6G12G16G20G 3G13G24
   6662898.552 6   5191871.47025  23063983.537
  -8113131.881 6  -6321913.44123  23388396.748
 -16292227.098 8 -12695224.31928  21495607.892
   -834545.311 4   -650294.52222  24612792.026
  19735820.754 4  15378562.56922  24168075.391
 -11911272.156 8  -9281492.66929  21074099.697
 92  3 13  6  8 30.0010000  0  6G12G16G20G 3G13G24
   6765434.221 6   5271769.34524  23083493.125
  -8196129.325 6  -6386586.71523  23372602.190
 -16351709.531 8 -12741574.24828  21484291.042
   -908645.542 4   -708034.87321  24598695.182
  19817196.324 4  15441972.09022  24183569.265
 -11868801.702 8  -9248398.80929  21082181.207
 92  3 13  6  9  0.0010000  0  6G12G16G20G 3G13G24
   6868270.056 6   5351901.12724  23103058.780
  -8278893.290 6  -6451078.06923  23356854.695
 -16410793.940 8 -12787614.02129  21473045.825
   -982637.743 4   -765691.03822  24584616.922
  19898578.712 5  15505386.9242   24199051.150
 -11825907.059 8  -9214974.40329  21090343.651
 92  3 13  6  9 30.0010000  0  6G12G16G20G 3G13G24
   6971410.082 6   5432269.92025  23122682.597
  -8361418.386 6  -6515383.27223  23341146.462
 -16469469.401 8 -12833335.14628  21461884.247
  -1056514.927 4   -823257.56722  24570550.354
  19979974.480 5  15568812.14722  24214540.522
 -11782581.509 8  -9181214.24129  21098587.047
 92  3 13  6 10  0.0010000  0  6G12G16G20G 3G13G24
   7074842.047 6   5512866.21324  23142369.078
  -8443717.202 6  -6579512.17424  23325488.295
 -16527739.155 8 -12878740.13529  21450794.319
  -1130286.197 4   -880741.59122  24556523.974
  20061374.776 5  15632240.98722  24230034.396
 -11738827.056 8  -9147119.85629  21106912.580
 92  3 13  6 10 30.0010000  0  6G12G16G20G 3G13G24
   7178564.693 6   5593689.00224  23162110.107
  -8525775.754 6  -6643453.85423  23309876.300
 -16585591.601 8 -12923819.94528  21439784.139
  -1203949.609 4   -938141.55122  24542508.081
  20142781.107 5  15695674.45321  24245520.173
 -11694643.764 8  -9112691.32229  21115316.972
 92  3 13  6 11  0.0010000  0  6G12G16G20G 3G13G24
   7282580.057 6   5674739.89024  23181898.497
  -8607570.220 6  -6707189.73723  23294309.293
 -16643012.355 8 -12968563.37028  21428858.209
  -1277500.306 4   -995453.72722  24528518.852
  20224197.969 5  15759116.10421  24261021.847
 -11650014.897 8  -9077915.57929  21123813.395
 92  3 13  6 11 30.0010000  0  6G12G16G20G 3G13G24
   7386873.554 6   5756007.49123  23201743.862
  -8689110.726 6  -6770727.73123  23278790.535
 -16700017.885 8 -13012983.24828  21418009.024
  -1350949.604 4  -1052686.85122  24514535.033
  20305614.117 5  15822557.20423  24276517.222
 -11604949.860 8  -9042799.97829  21132388.956
 92  3 13  6 12  0.0010000  0  6G12G16G20G 3G13G24
   7491448.729 6   5837494.61524  23221642.293
  -8770380.479 6  -6834054.76523  23263326.326
 -16756607.883 8 -13057079.33828  21407241.978
  -1424290.957 4  -1109835.86822  24500586.899
  20387035.964 4  15886002.76222  24292006.000
 -11559452.729 8  -9007347.66029  21141045.451
 92  3 13  6 12 30.0010000  0  6G12G16G20G 3G13G24
   7596290.827 6   5919189.71123  23241602.166
  -8851386.463 5  -6897176.26625  23247904.714
 -16812797.305 8 -13100863.28328  21396551.068
  -1497535.985 4  -1166909.83121  24486640.546
  20468451.427 5  15949443.41722  24307495.965
 -11513552.662 8  -8971581.38029  21149782.914
 92  3 13  6 13  0.0010000  0  6G12G16G20G 3G13G24
   7701411.006 6   6001101.47824  23261596.224
  -8932100.396 6  -6960070.17424  23232553.844
 -16868576.818 7 -13144327.82229  21385932.121
  -1570670.539 4  -1223897.73921  24472713.387
  20549874.303 5  16012889.80522  24322995.248
 -11467245.251 8  -8935497.67329  21158593.808
 92  3 13  6 13 30.0010000  0  6G12G16G20G 3G13G24
   7806794.287 6   6083218.25424  23281656.838
  -9012527.641 6  -7022740.69725  23217249.724
 -16923955.708 7 -13187480.19129  21375397.425
  -1643706.307 4  -1280808.63422  24458829.401
  20631292.769 5  16076332.79822  24338484.323
 -11420558.964 8  -8899118.73729  21167478.168
 92  3 13  6 14  0.0010000  0  6G12G16G20G 3G13G24
   7912437.960 6   6165537.96323  23301757.621
  -9092654.731 6  -7085177.33324  23201996.000
 -16978926.908 7 -13230314.87229  21364937.956
  -1716643.015 4  -1337642.37722  24444946.008
  20712706.369 5  16139771.94522  24353974.288
 -11373494.452 8  -8862445.10129  21176433.864
 92  3 13  6 14 30.0010000  0  6G12G16G20G 3G13G24
   8018329.658 6   6248050.94122  23321914.473
  -9172489.554 6  -7147386.21823  23186804.905
 -17033485.503 7 -13272828.04429  21354549.859
  -1789489.809 4  -1394406.06722  24431071.322
  20794106.349 5  16203200.52722  24369467.569
 -11326046.505 8  -8825472.67029  21185464.805
 92  3 13  6 15  0.0010000  0  6G12G16G20G 3G13G24
   8124472.398 6   6330759.50824  23342110.290
  -9252027.087 6  -7209363.46425  23171668.988
 -17087620.964 8 -13315011.51429  21344252.276
  -1862240.664 4  -1451094.92722  24417234.992
  20875498.319 5  16266622.78921  24384958.441
 -11278198.031 8  -8788188.14829  21194568.305
 92  3 13  6 15 30.0010000  0  6G12G16G20G 3G13G24
   8230873.358 5   6413669.30724  23362354.078
  -9331276.238 6  -7271115.99424  23156588.824
 -17141309.769 8 -13356846.92529  21334033.848
  -1934885.463 4  -1507701.19622  24403420.859
  20956892.276 5  16330046.66322  24400447.516
 -11229929.738 8  -8750576.48129  21203752.756
 92  3 13  6 16  0.0010000  0  6G12G16G20G 3G13G24
   8337512.203 5   6496764.45224  23382641.632
  -9410263.826 6  -7332664.71323  23141555.426
 -17194567.722 8 -13398346.61329  21323900.279
  -2007441.128 4  -1564237.99322  24389608.226
  21038271.205 5  16393458.75222  24415928.512
 -11181258.680 8  -8712650.99029  21213014.529
 92  3 13  6 16 30.0010000  0  6G12G16G20G 3G13G24
   8444388.877 5   6580044.92724  23402984.659
  -9488993.929 6  -7394012.78724  23126573.908
 -17247392.441 8 -13439508.71529  21313847.628
  -2079904.729 4  -1620703.08123  24375812.974
  21119637.778 5  16456861.19721  24431412.788
 -11132184.252 8  -8674411.16929  21222352.175
 92  3 13  6 17  0.0010000  0  6G12G16G20G 3G13G24
   8551509.678 5   6663515.64223  23423373.232
  -9567446.386 6  -7455144.51823  23111649.330
 -17299781.597 8 -13480331.41929  21303878.039
  -2152266.899 5  -1677089.08121  24362049.795
  21201001.865 5  16520261.73722  24446907.866
 -11082707.346 8  -8635857.73329  21231769.551
 92  3 13  6 17 30.0010000  0  6G12G16G20G 3G13G24
   8658863.394 5   6747167.78725  23443795.693
  -9645614.482 6  -7516054.66024  23096771.833
 -17351746.164 8 -13520823.26729  21293990.571
  -2224535.658 4  -1733402.32122  24348291.730
  21282354.521 5  16583653.41422  24462372.947
 -11032849.334 8  -8597007.32329  21241258.578
 92  3 13  6 18  0.0010000  0  6G12G16G20G 3G13G24
   8766450.914 5   6831002.14425  23464271.517
  -9723470.609 6  -7576721.72625  23081955.202
 -17403295.309 8 -13560991.43429  21284180.164
  -2296707.067 4  -1789639.69323  24334567.238
  21363699.617 5  16647039.21521  24477861.429
 -10982615.362 8  -8557863.97029  21250817.773
 92  3 13  6 18 30.0010000  0  6G12G16G20G 3G13G24
   8874270.991 5   6915017.74725  23484789.919
  -9801001.500 6  -7637135.35724  23067201.218
 -17454412.994 8 -13600823.38128  21274454.302
  -2368779.188 4  -1845799.65621  24320850.529
  21445038.938 5  16710420.44722  24493334.310
 -10931997.841 8  -8518421.73929  21260449.194
 92  3 13  6 19  0.0010000  0  6G12G16G20G 3G13G24
   8982322.033 5   6999213.29125  23505341.599
  -9878202.521 6  -7697291.94724  23052514.975
 -17505089.138 8 -13640311.27129  21264810.579
  -2440750.399 4  -1901881.05323  24307155.110
  21526374.177 5  16773798.56021  24508817.399
 -10880999.552 8  -8478682.81629  21270150.189
 92  3 13  6 19 30.0010000  0  6G12G16G20G 3G13G24
   9090593.471 6   7083580.58024  23525954.721
  -9955091.248 6  -7757205.17825  23037885.707
 -17555321.118 8 -13679453.06529  21255249.605
  -2512628.438 4  -1957889.83822  24293460.894
  21607697.783 4  16837167.68022  24524283.684
 -10829631.763 8  -8438655.96329  21279926.115
 92  3 13  6 20  0.0010000  0  5G12G16G20G 3G24
   9199092.104 6   7168124.93223  23546604.733
 -10031672.332 6  -7816878.70525  23023306.504
 -17605081.660 8 -13718227.49529  21245780.052
  -2584403.238 4  -2013818.16122  24279802.347
 -10777877.284 8  -8398327.79529  21289774.895
 92  3 13  6 20 30.0010000  0  5G12G16G20G 3G24
   9307813.703 6   7252842.99924  23567286.800
 -10107951.160 6  -7876316.70325  23008792.651
 -17654360.193 8 -13756626.34129  21236405.237
  -2656075.792 5  -2069666.84223  24266185.471
 -10725738.359 8  -8357700.05929  21299695.920
 92  3 13  6 21  0.0010000  0  6G12G16G20G 3G13G24
   9416743.967 6   7337723.65824  23588020.451
 -10183931.374 6  -7935522.00224  22994335.757
 -17703183.602 8 -13794670.54529  21227110.169
  -2727657.381 5  -2125444.60723  24252551.215
     78592.29415     61241.13221  24570702.363
 -10673231.875 8  -8316785.92529  21309690.707
 92  3 13  6 21 30.0010000  0  6G12G16G20G 3G13G24
   9525890.095 6   7422772.54223  23608786.769
 -10259593.974 6  -7994479.81724  22979932.818
 -17751537.718 8 -13832349.06129  21217910.449
  -2799137.585 5  -2181143.38522  24238960.723
    159892.161 5    124591.71721  24586187.529
 -10620337.031 8  -8275569.15729  21319757.144
 92  3 13  6 22  0.0010000  0  6G12G16G20G 3G13G24
   9635252.805 6   7507990.19723  23629599.574
 -10334929.118 6  -8053182.49525  22965598.843
 -17799426.086 8 -13869664.65529  21208799.446
  -2870512.622 5  -2236760.22722  24225376.828
    241191.793 5    187941.96822  24601662.522
 -10567035.511 8  -8234035.50229  21329900.921
 92  3 13  6 22 30.0010000  0  6G12G16G20G 3G13G24
   9744824.598 5   7593370.78723  23650454.625
 -10409925.971 6  -8111621.55125  22951327.531
 -17846867.391 8 -13906631.89029  21199770.913
  -2941786.680 4  -2292298.35423  24211810.017
    322486.229 5    251288.30522  24617121.914
 -10513329.528 8  -8192186.68429  21340116.941
 92  3 13  6 23  0.0010000  0  6G12G16G20G 3G13G24
   9854601.594 5   7678911.24924  23671333.671
 -10484590.923 6  -8169801.97925  22937119.459
 -17893862.824 8 -13943251.69229  21190828.095
  -3012960.590 5  -2347758.44123  24198259.993
    403775.188 5    314630.4172   24632588.810
 -10459219.322 8  -8150022.88729  21350413.617
 92  3 13  6 23 30.0010000  0  6G12G16G20G 3G13G24
   9964584.997 5   7764612.54922  23692266.377
 -10558925.738 6  -8227725.15025  22922979.147
 -17940396.861 8 -13979511.96629  21181973.418
  -3084030.284 5  -2403137.33822  24184745.654
    485062.292 4    377970.95722  24648060.801
 -10404705.566 8  -8107544.63629  21360789.429
 92  3 13  6 24  0.0010000  0  6G12G16G20G 3G13G24
  10074764.412 5   7850466.58823  23713233.878
 -10632934.440 6  -8285394.21625  22908891.307
 -17986486.884 8 -14015426.25829  21173200.304
  -3155002.528 5  -2458440.28821  24171234.299
    566340.942 4    441304.89122  24663526.789
 -10349818.874 8  -8064775.78229  21371231.500
 92  3 13  6 24 30.0010000  0  6G12G16G20G 3G13G24
  10185141.575 5   7936474.69222  23734238.827
 -10706593.063 6  -8342790.47825  22894877.805
 -18032124.483 8 -14050988.00728  21164515.610
  -3225872.854 5  -2513663.82422  24157744.234
    647615.696 3    504635.81422  24678986.496
 -10294576.494 8  -8021729.78129  21381742.534
 92  3 13  6 25  0.0010000  0  6G12G16G20G 3G13G24
  10295712.749 5   8022634.00622  23755285.151
 -10779896.895 6  -8399910.30424  22880928.170
 -18077296.289 8 -14086186.80129  21155923.559
  -3296641.799 5  -2568808.40522  24144279.367
    728885.804 5    567963.14422  24694470.475
 -10238988.358 8  -7978414.35029  21392321.013
 92  3 13  6 25 30.0010000  0  6G12G16G20G 3G13G24
  10406474.781 5   8108941.99423  23776356.376
 -10852838.266 6  -8456747.69025  22867045.981
 -18121998.906 8 -14121019.99829  21147414.850
  -3367309.458 5  -2623874.03123  24130836.661
    810151.126 5    631286.71421  24709922.085
 -10183053.567 8  -7934828.80229  21402968.141
 92  3 13  6 26  0.0010000  0  6G12G16G20G 3G13G24
  10517424.743 5   8195396.44123  23797474.350
 -10925410.518 6  -8513297.44826  22853234.832
 -18166229.747 8 -14155485.58129  21138999.081
  -3437875.387 4  -2678860.39022  24117398.772
    891412.059 5    694606.85222  24725385.072
 -10126766.814 8  -7890968.99829  21413677.322
 92  3 13  6 26 30.0010000  0  6G12G16G20G 3G13G24
  10628561.203 5   8281996.21922  23818622.915
 -10997614.428 6  -8569560.18324  22839498.352
 -18209970.043 8 -14189568.91629  21130674.141
  -3508337.829 4  -2733766.13523  24103994.161
    972670.145 5    757924.87921  24740851.357
 -10070115.650 8  -7846825.23329  21424458.450
 92  3 13  6 27  0.0010000  0  6G12G16G20G 3G13G24
  10739881.808 5   8368739.49723  23839799.347
 -11069472.365 6  -8625553.35725  22825820.610
 -18253206.345 8 -14223259.53329  21122448.439
  -3578696.166 5  -2788590.73922  24090614.416
   1053926.334 4    821241.32923  24756316.752
 -10013106.600 8  -7802402.60229  21435307.338
 92  3 13  6 27 30.0010000  0  6G12G16G20G 3G13G24
  10851374.106 5   8455616.54223  23861026.159
 -11140996.368 6  -8681286.29125  22812207.939
 -18295956.701 8 -14256571.48529  21114309.065
  -3648959.500 5  -2843341.31523  24077238.579
   1135171.212 3    884548.87321  24771771.363
  -9955755.049 8  -7757713.07829  21446218.593
 92  3 13  6 28  0.0010000  0  6G12G16G20G 3G13G24
  10963037.586 5   8542626.98823  23882267.646
 -11212169.970 6  -8736746.18724  22798666.605
 -18338222.022 8 -14289505.49029  21106266.538
  -3719125.447 5  -2898016.02523  24063888.814
   1216407.807 4    947850.07821  24787230.458
  -9898065.787 8  -7712760.41829  21457198.182
 92  3 13  6 28 30.0010000  0  6G12G16G20G 3G13G24
  11074877.257 5   8629774.71824  23903548.710
 -11282985.086 6  -8791926.74724  22785192.140
 -18379997.760 8 -14322057.99829  21098318.139
  -3789185.899 5  -2952608.50322  24050558.243
   1297643.909 4   1011150.86123  24802696.447
  -9840045.345 8  -7667549.69629  21468235.044
 92  3 13  6 29  0.0010000  0  6G12G16G20G 3G13G24
  11186888.529 5   8717056.19623  23924862.755
 -11353440.703 6  -8846827.19325  22771784.230
 -18421299.141 8 -14354240.88629  21090461.178
  -3859142.325 5  -3007119.95924  24037243.867
   1378877.938 4   1074450.0202   24818150.150
  -9781692.424 8  -7622079.89129  21479342.963
 92  3 13  6 29 30.0010000  0  6G12G16G20G 3G13G24
  11299066.162 5   8804467.25224  23946211.578
 -11423516.183 6  -8901431.41125  22758445.249
 -18462132.988 8 -14386059.45129  21082690.265
  -3928996.480 5  -3061551.70122  24023943.276
   1460107.472 4   1137745.82521  24833599.055
  -9722992.328 8  -7576339.56029  21490511.730
 92  3 13  6 30  0.0010000  0  6G12G16G20G 3G13G24
  11411405.284 5   8892004.19423  23967597.884
 -11493213.869 6  -8955741.24925  22745188.737
 -18502483.539 8 -14417501.43329  21075010.180
  -3998750.229 5  -3115905.23622  24010674.148
   1541330.873 5   1201036.72121  24849070.138
  -9663939.290 8  -7530324.21329  21501752.742
 92  3 13  6 30 30.0010000  0  6G12G16G20G 3G13G24
  11523905.812 5   8979666.85724  23988995.865
 -11562541.874 6  -9009763.00926  22731995.169
 -18542330.690 8 -14448551.15729  21067427.816
  -4068400.752 5  -3170178.28522  23997435.924
   1622551.317 5   1264325.33322  24864518.153
  -9604531.901 8  -7484032.73729  21513055.527
 92  3 13  6 31  0.0010000  0  5G12G16G20G 3G24
  11636562.308 5   9067451.06222  24010439.425
 -11631491.878 6  -9063490.24426  22718872.343
 -18581664.599 8 -14479200.94629  21059947.710
  -4137950.052 5  -3224372.52821  23984182.990
  -9544766.657 7  -7437462.42329  21524429.055
 92  3 13  6 31 30.0010000  0  5G12G16G20G 3G24
  11749367.915 5   9155351.48324  24031903.961
 -11700065.035 6  -9116923.82125  22705825.391
 -18620474.363 8 -14509442.31229  21052558.712
  -4207401.742 5  -3278490.67923  23970971.133
  -9484647.455 7  -7390616.29829  21535869.435
 92  3 13  6 32  0.0010000  0  5G12G16G20G 3G24
  11862324.989 5   9243369.93622  24053395.178
 -11768258.197 6  -9170061.30925  22692849.462
 -18658757.422 8 -14539273.26729  21045273.159
  -4276750.485 5  -3332528.57822  23957771.579
  -9424181.606 7  -7343500.07029  21547374.259
 92  3 13  6 32 30.0010000  0  5G12G16G20G 3G24
  11975428.521 5   9331502.45224  24074926.268
 -11836069.285 7  -9222901.06925  22679941.309
 -18696541.618 8 -14568715.47729  21038082.640
  -4345998.117 5  -3386487.74924  23944600.190
  -9363377.690 8  -7296120.40329  21558946.546
 92  3 13  6 33  0.0010000  0  5G12G16G20G 3G24
  12088681.583 5   9419751.52924  24096468.754
 -11903485.348 6  -9275433.01726  22667116.777
 -18733837.032 8 -14597776.83829  21030987.154
  -4415138.681 5  -3440363.46322  23931437.508
  -9302220.262 8  -7248465.26829  21570583.904
 92  3 13  6 33 30.0010000  0  5G12G16G20G 3G24
  12202076.430 5   9508111.05323  24118052.318
 -11970510.307 6  -9327660.20725  22654360.616
 -18770649.972 8 -14626462.23729  21023980.403
  -4484176.192 5  -3494158.87822  23918299.414
  -9240723.191 8  -7200545.47629  21582282.704
 92  3 13  6 34  0.0010000  0  5G12G16G20G 3G24
  12315609.974 5   9596578.65622  24139649.964
 -12037137.846 6  -9379577.70425  22641679.386
 -18806988.289 8 -14654777.79629  21017068.389
  -4553111.285 5  -3547874.50422  23905179.886
  -9178896.724 8  -7152369.00529  21594050.154
 92  3 13  6 34 30.0010000  0  5G12G16G20G 3G24
  12429272.688 4   9685146.98821  24161289.595
 -12103367.436 6  -9431185.12325  22629078.810
 -18842847.996 8 -14682720.41429  21010242.719
  -4621950.038 5  -3601514.99521  23892075.069
  -9116742.390 8  -7103937.06729  21605879.953
 92  3 13  6 35  0.0010000  0  5G12G16G20G 3G24
  12543069.899 4   9773820.03422  24182928.615
 -12169172.385 6  -9482461.65824  22616556.482
 -18878187.821 8 -14710257.93129  21003516.568
  -4690683.741 5  -3655073.65723  23879004.106
  -9054250.926 8  -7055242.41129  21617773.324
 92  3 13  6 35 30.0010000  0  5G12G16G20G 3G24
  12657005.933 5   9862601.32822  24204622.796
 -12234542.513 6  -9533399.37725  22604115.105
 -18912993.542 8 -14737379.26429  20996891.156
  -4759305.050 5  -3708544.75823  23865950.854
  -8991432.611 8  -7006293.08329  21629725.449
 92  3 13  6 36  0.0010000  0  5G12G16G20G 3G24
  12771072.939 4   9951484.64523  24226320.571
 -12299490.198 6  -9584007.91125  22591756.145
 -18947282.565 8 -14764097.98129  20990370.673
  -4827818.553 5  -3761931.85622  23852902.978
  -8928281.413 8  -6957084.35529  21641739.331
 92  3 13  6 36 30.0010000  0  5G12G16G20G 3G24
  12885270.549 4  10040469.65121  24248060.314
 -12364013.262 6  -9634285.57725  22579479.655
 -18981035.767 8 -14790399.17029  20983945.817
  -4896221.768 5  -3815232.96823  23839888.082
  -8864803.664 8  -6907621.18329  21653819.767
 92  3 13  6 37  0.0010000  0  5G12G16G20G 3G24
  12999586.326 5  10129546.90322  24269818.659
 -12428131.448 6  -9684247.75125  22567279.300
 -19014263.254 8 -14816290.70429  20977622.591
  -4964524.010 5  -3868455.41122  23826886.081
  -8801012.219 8  -6857913.56729  21665959.570
 92  3 13  6 37 30.0010000  0  5G12G16G20G 3G24
  13114020.043 4  10218715.98421  24291581.192
 -12491859.351 7  -9733905.80126  22555149.689
 -19046979.880 8 -14841784.17429  20971395.010
  -5032722.055 5  -3921596.66924  23813911.967
  -8736905.928 8  -6807960.61429  21678161.128
 92  3 13  6 38  0.0010000  0  5G12G16G20G 3G24
  13228563.127 5  10307970.24022  24313390.788
 -12555192.474 7  -9783256.24225  22543098.638
 -19079181.121 8 -14866876.03729  20965272.339
  -5100821.565 5  -3974661.11322  23800957.937
  -8672488.848 8  -6757765.48729  21690418.144
 92  3 13  6 38 30.0010000  0  5G12G16G20G 3G24
  13343205.840 5  10397302.16422  24335207.888
 -12618126.509 7  -9832295.71025  22531119.535
 -19110846.323 8 -14891550.21429  20959246.517
  -5168828.986 5  -4027653.84825  23788016.803
  -8607768.558 8  -6707334.09029  21702733.914
 92  3 13  6 39  0.0010000  0  5G12G16G20G 3G24
  13457943.043 5  10486707.72823  24357031.881
 -12680654.662 7  -9881018.90726  22519221.662
 -19141989.272 8 -14915817.43829  20953318.120
  -5236746.451 5  -4080576.49824  23775087.344
  -8542738.387 8  -6656661.22729  21715109.644
 92  3 13  6 39 30.0010000  0  5G12G16G20G 3G24
  13572775.123 5  10576187.20324  24378879.850
 -12742760.286 7  -9929412.84625  22507402.647
 -19172597.780 8 -14939668.22329  20947493.446
  -5304570.365 5  -4133426.26623  23762181.878
  -8477408.238 8  -6605754.62329  21727540.236
 92  3 13  6 40  0.0010000  0  5G12G16G20G 3G24
  13687694.979 5  10665735.09722  24400764.098
 -12804437.356 7  -9977472.85326  22495669.976
 -19202657.153 8 -14963091.10629  20941774.609
  -5372304.568 5  -4186206.08222  23749292.310
  -8411779.039 8  -6554614.99829  21740031.381
 92  3 13  6 40 30.0010000  0  5G12G16G20G 3G24
  13802694.387 5  10755344.92423  24422635.154
 -12865689.980 7 -10025202.12526  22484008.345
 -19232174.055 8 -14986091.28029  20936154.696
  -5439953.959 5  -4238919.82023  23736416.824
  -8345851.364 8  -6503242.77829  21752572.609
 92  3 13  6 41  0.0010000  0  5G12G16G20G 3G24
  13917776.452 5  10845019.16623  24444538.597
 -12926508.098 7 -10072592.82626  22472434.261
 -19261158.177 8 -15008676.30029  20930638.525
  -5507512.694 5  -4291562.93024  23723559.922
  -8279634.741 8  -6451645.42129  21765176.482
 92  3 13  6 41 30.0010000  0  5G12G16G20G 3G24
  14032943.641 5  10934759.77222  24466456.123
 -12986893.064 7 -10119646.01427  22460947.411
 -19289598.148 8 -15030837.30529  20925223.077
  -5574975.101 5  -4344130.99724  23710728.201
  -8213121.884 8  -6399817.21329  21777834.015
 92  3 13  6 42  0.0010000  0  5G12G16G20G 3G24
  14148183.804 5  11024557.17623  24488388.046
 -13046852.085 6 -10166367.26726  22449538.511
 -19317517.111 8 -15052592.33429  20919914.040
  -5642350.132 5  -4396630.96824  23697911.784
  -8146309.812 8  -6347755.85329  21790548.819
 92  3 13  6 42 30.0010000  0  5G12G16G20G 3G24
  14263498.334 4  11114412.58124  24510327.454
 -13106380.586 7 -10212753.07626  22438212.342
 -19344927.727 8 -15073951.25529  20914698.554
  -5709633.399 5  -4449059.36822  23685104.947
  -8079192.520 8  -6295456.67629  21803320.878
 92  3 13  6 43  0.0010000  0  5G12G16G20G 3G24
  14378885.303 4  11204324.43724  24532284.260
 -13165486.581 7 -10258809.65226  22426961.140
 -19371837.964 8 -15094920.26129  20909578.102
  -5776823.044 5  -4501414.87025  23672325.088
  -8011776.179 8  -6242924.46829  21816146.300
 92  3 13  6 43 30.0010000  0  5G12G16G20G 3G24
  14494341.345 4  11294290.09422  24554254.241
 -13224169.931 7 -10304536.90726  22415793.262
 -19398246.298 8 -15115498.18129  20904554.481
  -5843920.164 5  -4553698.29523  23659550.028
  -7944059.779 8  -6190158.44829  21829032.273
 92  3 13  6 44  0.0010000  0  5G12G16G20G 3G24
  14609862.410 4  11384306.42024  24576242.214
 -13282421.834 7 -10349927.97326  22404708.744
 -19424146.585 8 -15135680.22429  20899621.095
  -5910925.034 5  -4605909.78023  23646795.367
  -7876054.562 8  -6137167.37528  21841971.610
 92  3 13  6 44 30.0010000  0  5G12G16G20G 3G24
  14725447.223 4  11474372.39424  24598237.096
 -13340233.516 7 -10394975.99425  22393709.959
 -19449523.616 8 -15155454.53029  20894795.935
  -5977836.174 5  -4658048.26724  23634070.668
  -7807785.588 8  -6083970.77729  21854965.530
 92  3 13  6 45  0.0010000  0  5G12G16G20G 3G24
  14841090.883 4  11564484.26123  24620245.154
 -13397598.205 7 -10439675.73326  22382793.906
 -19474359.252 8 -15174806.97229  20890067.310
  -6044655.021 5  -4710114.83824  23621345.376
  -7739276.636 8  -6030587.18529  21868003.199
 92  3 13  6 45 30.0010000  0  5G12G16G20G 3G24
  14956801.449 4  11654648.18823  24642259.214
 -13454494.813 7 -10484010.71326  22371966.604
 -19498626.195 8 -15193716.28529  20885451.396
  -6111370.743 5  -4762101.04424  23608652.175
  -7670512.788 8  -5977004.98228  21881088.838
 92  3 13  6 46  0.0010000  0  5G12G16G20G 3G24
  15072565.294 4  11744853.73323  24664286.467
 -13510929.270 7 -10527985.58127  22361226.553
 -19522336.854 8 -15212192.12329  20880940.427
  -6177993.442 5  -4814014.76723  23595977.541
  -7601502.817 8  -5923230.97629  21894219.446
 92  3 13  6 46 30.0010000  0  5G12G16G20G 3G24
  15188376.483 4  11835096.16922  24686333.509
 -13566900.266 7 -10571599.30626  22350576.424
 -19545500.729 8 -15230241.89429  20876531.386
  -6244525.964 5  -4865858.23523  23583309.817
  -7532239.936 8  -5869259.91729  21907398.618
 92  3 13  6 47  0.0010000  0  5G12G16G20G 3G24
  15304235.040 5  11925375.49722  24708377.252
 -13622403.210 7 -10614848.31627  22340011.434
 -19568123.012 8 -15247869.65429  20872225.160
  -6310965.314 5  -4917629.09023  23570669.071
  -7462691.266 8  -5815066.15128  21920635.062
 92  3 13  6 47 30.0010000  0  5G12G16G20G 3G24
  15420144.603 5  12015694.52721  24730437.782
 -13677428.108 7 -10657724.82926  22329540.274
 -19590206.286 8 -15265077.40429  20868022.973
  -6377304.846 6  -4969322.14123  23558051.395
  -7392833.178 8  -5760631.27728  21933929.057
 92  3 13  6 48  0.0010000  0  5G12G16G20G 3G24
  15536094.288 5  12106044.80921  24752497.998
 -13731975.443 7 -10700229.18826  22319163.868
 -19611752.609 8 -15281866.73829  20863923.603
  -6443551.960 6  -5020943.17422  23545443.333
  -7322678.433 8  -5705965.25128  21947276.118
 92  3 13  6 48 30.0010000  0  5G12G16G20G 3G24
  15652086.839 5  12196428.50423  24774569.331
 -13786035.094 7 -10742353.57926  22308877.383
 -19632740.981 8 -15298221.32129  20859929.475
  -6509701.221 5  -5072488.02023  23532849.947
  -7252226.784 8  -5651067.86928  21960687.640
 92  3 13  6 49  0.0010000  0  5G12G16G20G 3G24
  15768115.049 5  12286840.04121  24796649.335
 -13839624.255 7 -10784111.33227  22298679.651
 -19653164.533 8 -15314135.77629  20856045.057
  -6575756.448 6  -5123959.56524  23520286.838
  -7181505.242 8  -5595960.18928  21974145.021
 92  3 13  6 49 30.0010000  0  5G12G16G20G 3G24
  15884182.442 5  12377282.13722  24818736.250
 -13892748.199 7 -10825506.56927  22288567.948
 -19673003.552 8 -15329594.74229  20852266.771
  -6641710.991 5  -5175352.65723  23507726.433
  -7110529.838 8  -5540654.68329  21987650.669
 92  3 13  6 50  0.0010000  0  5G12G16G20G 3G24
  16000285.815 5  12467752.23122  24840831.542
 -13945407.032 7 -10866539.39528  22278548.573
 -19692263.774 8 -15344602.70829  20848602.417
  -6707564.877 5  -5226667.30523  23495196.321
  -7039313.725 8  -5485161.61728  22001200.083
 92  3 13  6 50 30.0010000  0  5G12G16G20G 3G24
  16116421.060 5  12558247.20821  24862923.256
 -13997605.681 7 -10907213.62327  22268614.356
 -19710959.036 8 -15359170.44629  20845046.568
  -6773319.044 6  -5277904.27524  23482684.777
  -6967858.151 8  -5429481.95528  22014797.467
 92  3 13  6 51  0.0010000  0  5G12G16G20G 3G24
  16232584.966 5  12648764.38424  24885026.347
 -14049351.611 7 -10947535.08126  22258771.579
 -19729101.152 8 -15373307.15529  20841593.258
  -6838973.674 6  -5329063.64823  23470194.818
  -6896160.090 8  -5373613.34428  22028441.635
 92  3 13  6 51 30.0010000  0  5G12G16G20G 3G24
  16348770.819 4  12739298.70322  24907142.648
 -14100636.200 7 -10987497.07626  22249007.030
 -19746707.302 8 -15387026.23529  20838244.578
  -6904532.460 6  -5380148.36423  23457719.256
  -6824207.504 8  -5317546.40628  22042135.240
 92  3 13  6 52  0.0010000  0  5G12G16G20G 3G24
  16464977.618 4  12829849.40022  24929259.229
 -14151452.630 7 -11027094.25626  22239340.220
 -19763776.878 8 -15400327.22029  20834996.325
  -6969993.085 6  -5431156.59223  23445257.183
  -6751982.218 8  -5261266.97028  22055879.241
 92  3 13  6 52 30.0010000  0  5G12G16G20G 3G24
  16581207.863 4  12920418.34721  24951379.718
 -14201805.992 7 -11066330.60927  22229756.753
 -19780292.027 8 -15413196.14829  20831851.516
  -7035349.859 6  -5482083.91024  23432826.887
  -6679477.195 7  -5204769.55728  22069674.475
 92  3 13  6 53  0.0010000  0  5G12G16G20G 3G24
  16697450.805 4  13010997.12523  24973494.204
 -14251705.417 7 -11105213.22827  22220260.536
 -19796246.313 8 -15425628.05329  20828816.418
  -7100610.580 6  -5532936.36924  23420397.499
  -6606706.913 8  -5148065.44227  22083521.904
 92  3 13  6 53 30.0010000  0  5G12G16G20G 3G24
  16813702.278 4  13101582.66022  24995606.597
 -14301130.155 7 -11143725.97327  22210855.444
 -19811628.375 8 -15437614.06929  20825887.137
  -7165776.238 6  -5583714.74824  23408005.872
  -6533673.302 7  -5091156.14428  22097420.880
 92  3 13  6 54  0.0010000  0  5G12G16G20G 3G24
  16929964.476 3  13192176.44822  25017730.088
 -14350063.090 7 -11181855.49827  22201548.388
 -19826419.690 8 -15449139.76529  20823071.788
  -7230841.676 6  -5634415.05123  23395630.736
  -6460387.187 7  -5034050.09728  22111369.310
 92  3 13  6 54 30.0010000  0  5G12G16G20G 3G24
  17046232.215 4  13282774.59223  25039877.258
 -14398489.725 7 -11219590.50526  22192328.566
 -19840629.639 8 -15460212.45729  20820370.058
  -7295808.693 6  -5685038.64724  23383264.011
  -6386875.039 7  -4976767.91427  22125356.427
 92  3 13  6 55  0.0010000  0  5G12G16G20G 3G24
  17162503.152 3  13373375.18322  25061983.351
 -14446382.141 7 -11256909.24127  22183212.781
 -19854257.683 8 -15470831.71729  20817776.258
  -7360676.704 5  -5735585.08224  23370909.850
  -6313139.197 7  -4919311.41728  22139386.420
 92  3 13  6 55 30.0010000  0  5G12G16G20G 3G24
  17278768.250 4  13463971.24323  25084116.422
 -14493740.050 7 -11293811.47227  22174203.112
 -19867326.789 8 -15481015.43229  20815290.370
  -7425451.416 6  -5786058.82823  23358591.078
  -6239192.433 7  -4861690.57827  22153458.084
 92  3 13  6 56  0.0010000  0  5G12G16G20G 3G24
  17395032.549 3  13554566.70223  25106248.306
 -14540575.076 7 -11330306.26926  22165291.181
 -19879837.261 8 -15490763.85629  20812909.724
  -7490124.808 6  -5836453.62323  23346287.296
  -6165034.450 7  -4803905.13328  22167571.418
 92  3 13  6 56 30.0010000  0  5G12G16G20G 3G24
  17511289.176 3  13645156.19822  25128363.700
 -14586888.676 7 -11366394.75627  22156479.397
 -19891789.362 8 -15500077.18329  20810634.599
  -7554701.009 6  -5886772.69924  23333994.019
  -6090651.214 7  -4745944.20027  22181726.407
 92  3 13  6 57  0.0010000  0  4G16G20G 3G24
 -14632677.387 7 -11402074.23727  22147762.926
 -19903168.962 8 -15508944.39929  20808468.905
  -7619175.981 6  -5937012.89923  23321730.704
  -6016021.082 7  -4687790.84728  22195929.680
 92  3 13  6 57 30.0010000  0  4G16G20G 3G24
 -14677967.205 7 -11437364.97627  22139139.691
 -19913988.710 8 -15517375.37229  20806409.029
  -7683556.469 6  -5987179.44823  23309474.893
  -5941139.469 7  -4629441.55527  22210177.312
 92  3 13  6 58  0.0010000  0  4G16G20G 3G24
 -14722753.853 7 -11472263.61226  22130624.683
 -19924228.321 8 -15525354.29029  20804460.363
  -7747836.258 6  -6037267.54123  23297242.447
  -5865984.688 7  -4570879.38527  22224478.009
 92  3 13  6 58 30.0010000  0  5G12G16G20G 3G24
     42603.51414     33193.63322  25216829.150
 -14767028.674 7 -11506763.44426  22122199.020
 -19933881.155 8 -15532875.97529  20802625.944
  -7812013.475 6  -6087275.70923  23285026.510
  -5790554.957 7  -4512102.98727  22238828.772
 92  3 13  6 59  0.0010000  0  5G12G16G20G 3G24
    158794.191 4    123731.67322  25238937.947
 -14810795.424 7 -11540867.36127  22113872.893
 -19942949.197 8 -15539941.98829  20800897.640
  -7876082.465 6  -6137199.54624  23272839.941
  -5714868.493 7  -4453126.52227  22253235.008
 92  3 13  6 59 30.0010000  0  5G12G16G20G 3G24
    274959.812 4    214250.24622  25261047.635
 -14854065.824 7 -11574584.53027  22105633.685
 -19951447.061 8 -15546563.69329  20799283.564
  -7940052.699 6  -6187046.43124  23260662.673
  -5638949.700 7  -4393969.02926  22267678.414
 92  3 13  7  0  0.0010000  0  5G12G16G20G 3G24
    391099.997 5    304749.03322  25283154.635
 -14896824.514 7 -11607902.96527  22097502.721
 -19959357.651 8 -15552727.78729  20797776.790
  -8003921.089 6  -6236813.94624  23248512.697
  -5562819.290 7  -4334646.64827  22282167.975
 92  3 13  7  0 30.0010000  0  5G12G16G20G 3G24
    507210.446 5    395224.60923  25305237.345
 -14939061.174 7 -11640814.61927  22089463.476
 -19966684.157 8 -15558436.76329  20796382.169
  -8067689.313 6  -6286503.40623  23236376.786
  -5486495.322 7  -4275173.41427  22296690.221
 92  3 13  7  1  0.0010000  0  5G12G16G20G 3G24
    623288.805 5    485675.15821  25327334.154
 -14980772.643 7 -11673317.03427  22081520.486
 -19973424.035 8 -15563688.60929  20795101.445
  -8131356.505 6  -6336114.16025  23224257.679
  -5409971.612 7  -4215544.56527  22311254.138
 92  3 13  7  1 30.0010000  0  4G16G20G 3G24
 -15021959.646 7 -11705410.76627  22073687.205
 -19979571.868 8 -15568479.13429  20793931.059
  -8194919.011 6  -6385643.34825  23212164.958
  -5333232.102 7  -4155747.54426  22325857.039
 92  3 13  7  2  0.0010000  0  4G16G20G 3G24
 -15062631.227 7 -11737102.87927  22065949.255
 -19985126.060 8 -15572807.08829  20792872.791
  -8258382.646 6  -6435095.48223  23200085.708
  -5256282.570 7  -4095786.86726  22340501.000
 92  3 13  7  2 30.0010000  0  4G16G20G 3G24
 -15102782.992 7 -11768389.93427  22058305.449
 -19990095.390 8 -15576679.28929  20791927.251
  -8321743.342 6  -6484467.40623  23188032.266
  -5179106.839 7  -4035649.94027  22355188.132
 92  3 13  7  3  0.0010000  0  4G16G20G 3G24
 -15142409.261 7 -11799267.51026  22050763.866
 -19994467.775 8 -15580086.34229  20791098.330
  -8384997.572 6  -6533756.35923  23175997.689
  -5101700.845 7  -3975333.58327  22369916.326
 92  3 13  7  3 30.0010000  0  4G16G20G 3G24
 -15181499.552 7 -11829727.44326  22043328.712
 -19998246.596 8 -15583030.88829  20790377.026
  -8448150.414 6  -6582966.30524  23163974.820
  -5024083.448 7  -3914852.50226  22384688.005
 92  3 13  7  4  0.0010000  0  4G16G20G 3G24
 -15220029.598 7 -11859750.81927  22035994.002
 -20001430.300 8 -15585511.69829  20789772.934
  -8511196.924 6  -6632093.42625  23151971.426
  -4946255.262 7  -3854207.16327  22399496.853
 92  3 13  7  4 30.0010000  0  4G16G20G 3G24
 -15258002.928 7 -11889340.39627  22028771.095
 -20004031.874 8 -15587538.90229  20789277.086
  -8574147.286 6  -6681145.62024  23140003.404
  -4868218.312 7  -3793399.16026  22414343.481
 92  3 13  7  5  0.0010000  0  4G16G20G 3G24
 -15295420.039 7 -11918496.55527  22021644.426
 -20006041.326 8 -15589104.70729  20788891.855
  -8636993.597 6  -6730116.73224  23128043.496
  -4789978.064 7  -3732432.73627  22429235.968
 92  3 13  7  5 30.0010000  0  4G16G20G 3G24
 -15332299.013 7 -11947233.39528  22014629.892
 -20007478.046 8 -15590224.23429  20788621.429
  -8699740.260 6  -6779010.17525  23116103.359
  -4711537.283 7  -3671310.05626  22444160.528
 92  3 13  7  6  0.0010000  0  4G16G20G 3G24
 -15368650.104 7 -11975558.88827  22007713.673
 -20008336.785 8 -15590893.37929  20788454.151
  -8762385.017 6  -6827824.23825  23104184.808
  -4632894.324 7  -3610029.82927  22459124.369
 92  3 13  7  6 30.0010000  0  4G16G20G 3G24
 -15404483.779 7 -12003481.19928  22000898.194
 -20008604.630 8 -15591102.12029  20788405.291
  -8824924.169 6  -6876555.99824  23092279.449
  -4554047.254 7  -3548590.57526  22474133.179
 92  3 13  7  7  0.0010000  0  4G16G20G 3G24
 -15439803.959 7 -12031003.39327  21994175.358
 -20008283.499 8 -15590851.88729  20788465.843
  -8887357.683 6  -6925205.45325  23080402.272
  -4475007.234 7  -3487000.94427  22489173.469
 92  3 13  7  7 30.0010000  0  4G16G20G 3G24
 -15474599.694 7 -12058116.92627  21987551.430
 -20007372.867 8 -15590142.31329  20788639.420
  -8949689.216 6  -6973775.44024  23068540.382
  -4395771.063 7  -3425258.48627  22504250.335
 92  3 13  7  8  0.0010000  0  4G16G20G 3G24
 -15508866.218 7 -12084818.09127  21981032.447
 -20005874.075 8 -15588974.41629  20788925.133
  -9011923.125 6  -7022269.34824  23056694.389
  -4316343.988 7  -3363367.27127  22519365.871
 92  3 13  7  8 30.0010000  0  4G16G20G 3G24
 -15542593.164 7 -12111098.80627  21974612.983
 -20003785.187 8 -15587346.71629  20789324.446
  -9074053.305 6  -7070682.44826  23044870.872
  -4236714.809 7  -3301318.53427  22534519.169
 92  3 13  7  9  0.0010000  0  4G16G20G 3G24
 -15575758.238 7 -12136941.68728  21968302.653
 -20001095.946 8 -15585251.20329  20789835.598
  -9136071.718 6  -7119008.44425  23033070.441
  -4156887.045 7  -3239115.11427  22549705.762
 92  3 13  7  9 30.0010000  0  4G16G20G 3G24
 -15608349.738 7 -12162337.63727  21962100.252
 -19997803.273 8 -15582685.49029  20790460.961
  -9197980.917 6  -7167249.35824  23021297.286
  -4076867.874 7  -3176762.51227  22564933.119
 92  3 13  7 10  0.0010000  0  4G16G20G 3G24
 -15640378.451 7 -12187295.05327  21956003.966
 -19993912.524 8 -15579653.74329  20791202.351
  -9259790.643 6  -7215412.75224  23009531.040
  -3996675.141 7  -3114274.68027  22580197.662
 92  3 13  7 10 30.0010000  0  4G16G20G 3G24
 -15671829.937 7 -12211802.67227  21950022.224
 -19989400.667 8 -15576138.01129  20792058.249
  -9321492.173 6  -7263491.82425  22997782.768
  -3916301.785 7  -3051646.09927  22595490.963
 92  3 13  7 11  0.0010000  0  4G16G20G 3G24
 -15702695.043 7 -12235853.37527  21944142.984
 -19984272.251 8 -15572141.85029  20793037.381
  -9383086.966 6  -7311487.73825  22986064.179
  -3835750.721 7  -2988879.03126  22610819.949
 92  3 13  7 11 30.0010000  0  4G16G20G 3G24
 -15732979.180 7 -12259451.37327  21938383.365
 -19978537.764 8 -15567673.42029  20794130.724
  -9444576.743 6  -7359401.82125  22974360.580
  -3755004.440 7  -2925959.87527  22626185.215
 92  3 13  7 12  0.0010000  0  4G16G20G 3G24
 -15762692.170 7 -12282604.34027  21932728.988
 -19972205.451 8 -15562739.15629  20795328.996
  -9505961.327 6  -7407233.95224  22962674.675
  -3674048.368 7  -2862877.22127  22641590.948
 92  3 13  7 12 30.0010000  0  4G16G20G 3G24
 -15791849.081 7 -12305323.97727  21927180.430
 -19965288.441 8 -15557349.28129  20796648.983
  -9567248.823 6  -7454990.43024  22951025.643
  -3592885.369 7  -2799633.33226  22657036.851
 92  3 13  7 13  0.0010000  0  4G16G20G 3G24
 -15820455.854 7 -12327614.95328  21921738.003
 -19957790.704 8 -15551506.89229  20798073.601
  -9628437.040 6  -7502669.53625  22939376.907
  -3511532.641 7  -2736241.59127  22672516.049
 92  3 13  7 13 30.0010000  0  4G16G20G 3G24
 -15848529.128 7 -12349490.19427  21916391.204
 -19949707.212 8 -15545208.08429  20799612.728
  -9689526.438 6  -7550271.64524  22927749.443
  -3430002.932 7  -2672711.95126  22688027.600
 92  3 13  7 14  0.0010000  0  4G16G20G 3G24
 -15876071.274 7 -12370951.58228  21911153.225
 -19941029.137 8 -15538445.95029  20801263.693
  -9750514.614 6  -7597794.86524  22916146.584
  -3348319.755 7  -2609062.72227  22703574.243
 92  3 13  7 14 30.0010000  0  4G16G20G 3G24
 -15903074.155 7 -12391992.76228  21906015.985
 -19931745.723 8 -15531212.12729  20803034.262
  -9811399.565 6  -7645237.66225  22904562.309
  -3266506.197 7  -2545311.90326  22719141.269
 92  3 13  7 15  0.0010000  0  5G16G20G17G 3G24
 -15929515.875 7 -12412596.66627  21900981.563
 -19921854.169 8 -15523504.42429  20804915.465
   -248424.344 4   -193577.43322  24238426.782
  -9872177.161 6  -7692596.78925  22892994.804
  -3184554.548 7  -2481453.49227  22734738.570
 92  3 13  7 15 30.0010000  0  5G16G20G17G 3G24
 -15955383.201 7 -12432753.00327  21896058.978
 -19911367.828 8 -15515333.26729  20806909.676
   -344925.067 5   -268772.71022  24220064.790
  -9932848.948 6  -7739873.47924  22881450.106
  -3102439.717 7  -2417467.94526  22750360.162
 92  3 13  7 16  0.0010000  0  5G16G20G17G 3G24
 -15980665.514 7 -12452453.47827  21891253.293
 -19900302.422 8 -15506710.86729  20809016.615
   -441278.020 5   -343852.83923  24201734.889
  -9993424.476 6  -7787075.14025  22869914.692
  -3020159.376 7  -2353353.37326  22766021.610
 92  3 13  7 16 30.0010000  0  5G16G20G17G 3G24
 -16005348.302 7 -12471686.79527  21886553.461
 -19888664.759 8 -15497642.57229  20811231.781
   -537463.525 5   -418802.52222  24183425.370
 -10053903.497 6  -7834201.64024  22858413.742
  -2937704.765 7  -2289103.03026  22781714.242
 92  3 13  7 17  0.0010000  0  5G16G20G17G 3G24
 -16029435.600 7 -12490456.09528  21881968.434
 -19876455.516 8 -15488128.87329  20813554.283
   -633463.054 5   -493607.30223  24165165.602
 -10114279.440 6  -7881247.80624  22846920.610
  -2855057.636 7  -2224702.68126  22797438.057
 92  3 13  7 17 30.0010000  0  5G16G20G17G 3G24
 -16052957.629 7 -12508784.91928  21877493.727
 -19863668.018 8 -15478164.59929  20815985.901
   -729281.368 4   -568270.85423  24146904.647
 -10174553.430 6  -7928214.52925  22835453.252
  -2772239.354 7  -2160168.97527  22813200.542
 92  3 13  7 18  0.0010000  0  5G16G20G17G 3G24
 -16075940.558 7 -12526693.66728  21873119.149
 -19850293.055 8 -15467742.56029  20818534.121
   -824917.787 4   -642792.66222  24128721.032
 -10234734.523 6  -7975108.85325  22824001.477
  -2689288.372 7  -2095531.87126  22828983.427
 92  3 13  7 18 30.0010000  0  5G16G20G17G 3G24
 -16098387.414 7 -12544184.69527  21868848.610
 -19836310.655 8 -15456847.19029  20821195.681
   -920351.215 4   -717156.31522  24110558.112
 -10294810.809 6  -8021921.52924  22812564.691
  -2606196.946 7  -2030785.30826  22844798.681
 92  3 13  7 19  0.0010000  0  5G16G20G17G 3G24
 -16120317.928 7 -12561273.38928  21864676.995
 -19821723.298 8 -15445480.43029  20823967.560
  -1015603.810 4   -791379.08323  24092440.459
 -10354788.580 6  -8068657.42925  22801157.292
  -2522963.376 7  -1965927.97926  22860634.021
 92  3 13  7 19 30.0010000  0  5G16G20G17G 3G24
 -16141706.933 7 -12577940.12127  21860605.825
 -19806522.623 8 -15433635.74829  20826861.470
  -1110664.630 4   -865452.39622  24074349.783
 -10414659.259 6  -8115309.86725  22789769.070
  -2439584.464 7  -1900957.39125  22876503.528
 92  3 13  7 20  0.0010000  0  5G16G20G17G 3G24
 -16162537.238 7 -12594171.50827  21856637.471
 -19790731.974 8 -15421331.36029  20829867.479
  -1205536.156 4   -939378.21622  24056293.868
 -10474430.843 6  -8161885.11325  22778389.853
  -2356060.424 7  -1835873.74325  22892392.527
 92  3 13  7 20 30.0010000  0  5G16G20G17G 3G24
 -16182790.592 7 -12609953.32026  21852781.828
 -19774354.678 7 -15408569.82229  20832985.030
  -1300217.363 4  -1013155.71822  24038270.044
 -10534095.124 6  -8208376.73325  22767030.111
  -2272363.620 7  -1770655.45524  22908322.290
 92  3 13  7 21  0.0010000  0  5G16G20G17G 3G24
 -16202455.475 7 -12625276.57927  21849044.916
 -19757397.467 7 -15395356.42429  20836206.899
  -1394706.928 4  -1086783.91222  24020297.786
 -10593656.950 6  -8254788.51025  22755699.754
  -2188512.498 7  -1705316.93926  22924277.844
 92  3 13  7 21 30.0010000  0  5G16G20G17G 3G24
 -16221518.088 7 -12640130.54227  21845417.434
 -19739863.311 8 -15381693.44129  20839543.590
  -1489002.313 4  -1160260.79422  24002344.723
 -10653113.171 7  -8301117.97924  22744387.982
  -2104527.467 7  -1639874.06225  22940262.488
 92  3 13  7 22  0.0010000  0  5G16G20G17G 3G24
 -16239980.539 7 -12654516.83827  21841904.461
 -19721745.365 8 -15367575.57929  20842992.992
  -1583112.326 5  -1233593.21922  23984445.616
 -10712463.900 6  -8347365.26225  22733088.809
  -2020403.745 6  -1574323.11225  22956265.402
 92  3 13  7 22 30.0010000  0  5G16G20G17G 3G24
 -16257845.658 7 -12668437.69628  21838502.419
 -19703021.541 8 -15352985.58729  20846554.529
  -1677036.775 5  -1306781.05824  23966571.689
 -10771706.491 6  -8393528.29726  22721822.617
  -1936143.725 6  -1508665.96026  22972301.908
 92  3 13  7 23  0.0010000  0  5G16G20G17G 3G24
 -16275119.313 7 -12681897.65328  21835216.700
 -19683695.403 8 -15337926.26529  20850234.483
  -1770787.966 5  -1379833.85622  23948730.133
 -10830843.786 6  -8439609.26225  22710566.598
  -1851768.182 7  -1442918.78425  22988356.684
 92  3 13  7 23 30.0010000  0  5G16G20G17G 3G24
 -16291811.771 7 -12694904.73728  21832042.785
 -19663760.636 8 -15322392.68629  20854029.557
  -1864371.174 5  -1452755.78923  23930919.463
 -10889875.836 6  -8485608.22325  22699333.683
  -1767263.530 6  -1377071.01926  23004437.862
 92  3 13  7 24  0.0010000  0  5G16G20G17G 3G24
 -16307931.539 7 -12707465.57228  21828973.518
 -19643201.960 8 -15306372.95129  20857939.749
  -1957772.005 5  -1525535.61522  23913142.682
 -10948802.428 6  -8531525.03225  22688118.446
  -1682618.860 6  -1311114.15526  23020544.815
 92  3 13  7 24 30.0010000  0  5G16G20G17G 3G24
 -16323481.303 7 -12719582.25828  21826016.055
 -19622018.910 8 -15289866.69029  20861968.655
  -2050979.060 5  -1598164.42823  23895392.862
 -11007619.465 6  -8577356.41725  22676924.794
  -1597829.792 7  -1245044.76325  23036683.230
 92  3 13  7 25  0.0010000  0  5G16G20G17G 3G24
 -16338458.403 7 -12731252.69327  21823163.242
 -19600223.459 8 -15272883.22129  20866115.089
  -2143985.713 5  -1670637.06822  23877707.502
 -11066328.651 6  -8623103.80326  22665758.714
  -1512896.853 6  -1178863.23925  23052843.248
 92  3 13  7 25 30.0010000  0  5G16G20G17G 3G24
 -16352860.268 7 -12742474.90328  21820423.435
 -19577799.794 8 -15255410.24129  20870387.426
  -2236769.137 5  -1742935.81623  23860058.719
 -11124923.704 6  -8668762.26025  22654605.250
  -1427812.634 6  -1112563.87026  23069037.434
 92  3 13  7 26  0.0010000  0  5G16G20G17G 3G24
 -16366691.446 7 -12753252.42228  21817794.263
 -19554768.803 8 -15237464.01429  20874767.395
  -2329335.748 5  -1815065.57623  23842447.121
 -11183406.943 6  -8714333.57425  22643473.949
  -1342596.071 6  -1046161.35726  23085252.316
 92  3 13  7 26 30.0010000  0  5G16G20G17G 3G24
 -16379940.014 7 -12763575.96128  21815268.501
 -19531141.899 8 -15219053.45529  20879264.892
  -2421692.553 5  -1887031.87721  23824869.988
 -11241779.632 6  -8759818.74825  22632363.343
  -1257262.188 6   -979667.42726  23101488.767
 92  3 13  7 27  0.0010000  0  5G16G20G17G 3G24
 -16392594.723 7 -12773436.75528  21812864.472
 -19506923.900 8 -15200182.30129  20883875.694
  -2513837.539 5  -1958833.11123  23807340.825
 -11300037.249 6  -8805214.25726  22621278.807
  -1171828.221 6   -913095.51226  23117745.023
 92  3 13  7 27 30.0010000  0  5G16G20G17G 3G24
 -16404657.898 7 -12782836.60628  21810568.966
 -19482123.853 8 -15180857.59429  20888592.034
  -2605776.222 5  -2030473.57522  23789829.340
 -11358176.233 6  -8850517.31726  22610210.483
  -1086291.586 6   -846443.61426  23134024.942
 92  3 13  7 28  0.0010000  0  5G16G20G17G 3G24
 -16416118.071 7 -12791766.58228  21808383.762
 -19456761.492 8 -15161094.71729  20893417.490
  -2697518.336 5  -2101960.87622  23772373.625
 -11416201.986 6  -8895732.14825  22599175.122
  -1000656.336 6   -779714.85325  23150317.477
 92  3 13  7 28 30.0010000  0  5G16G20G17G 3G24
 -16426964.613 7 -12800218.41028  21806322.996
 -19430832.640 8 -15140890.42829  20898352.377
  -2789054.215 5  -2173287.46723  23754954.487
 -11474112.237 7  -8940856.99725  22588154.141
   -914909.984 6   -712899.51325  23166634.565
 92  3 13  7 29  0.0010000  0  5G16G20G17G 3G24
 -16437205.335 7 -12808198.16928  21804372.550
 -19404347.662 8 -15120252.78929  20903392.785
  -2880374.135 5  -2244445.78123  23737578.223
 -11531904.544 7  -8985889.91025  22577158.654
   -829031.505 6   -645981.23226  23182978.055
 92  3 13  7 29 30.0010000  0  5G16G20G17G 3G24
 -16446836.375 7 -12815702.85928  21802539.021
 -19377290.544 8 -15099169.33229  20908543.217
  -2971472.484 5  -2315431.45522  23720248.412
 -11589574.722 7  -9030827.67825  22566182.066
   -742994.524 6   -578939.45225  23199352.729
 92  3 13  7 30  0.0010000  0  5G16G20G17G 3G24
 -16455870.103 7 -12822742.10328  21800824.502
 -19349660.041 8 -15077639.07729  20913796.779
  -3062365.433 5  -2386257.06421  23702942.891
 -11647138.983 7  -9075682.91426  22555229.436
   -656824.697 6   -511794.15425  23215747.767
 92  3 13  7 30 30.0010000  0  5G16G20G17G 3G24
 -16464317.145 7 -12829324.19129  21799213.411
 -19321438.995 8 -15055648.66129  20919167.258
  -3153049.817 5  -2456920.18023  23685689.843
 -11704593.408 7  -9120452.56725  22544293.908
   -570519.396 6   -444543.25524  23232168.003
 92  3 13  7 31  0.0010000  0  5G16G20G17G 3G24
 -16472177.311 7 -12835448.97528  21797721.051
 -19292602.129 8 -15033178.38329  20924655.561
  -3243521.325 4  -2527417.37521  23668465.554
 -11761929.697 7  -9165130.16026  22533385.062
   -484080.431 6   -377188.25624  23248620.016
 92  3 13  7 31 30.0010000  0  5G16G20G17G 3G24
 -16479454.980 7 -12841119.87327  21796335.416
 -19263134.845 8 -15010216.87129  20930263.485
  -3333796.520 4  -2597761.61122  23651289.252
 -11819153.966 7  -9209720.47825  22522491.798
   -397537.535 6   -309752.24424  23265088.519
 92  3 13  7 32  0.0010000  0  5G16G20G17G 3G24
 -16486140.222 7 -12846329.13828  21795060.695
 -19233039.657 8 -14986766.08129  20935989.512
  -3423850.094 5  -2667933.16823  23634160.013
 -11876253.000 7  -9254213.21026  22511627.921
   -310887.239 6   -242232.52125  23281582.203
 92  3 13  7 32 30.0010000  0  5G16G20G17G 3G24
 -16492247.219 7 -12851087.81427  21793899.000
 -19202342.132 8 -14962845.93729  20941832.770
  -3513672.782 5  -2737924.80622  23617056.846
 -11933233.524 7  -9298613.60426  22500786.537
   -224122.274 6   -174623.47425  23298090.859
 92  3 13  7 33  0.0010000  0  5G16G20G17G 3G24
 -16497776.496 7 -12855396.32528  21792846.420
 -19171052.775 8 -14938464.63429  20947785.458
  -3603261.616 5  -2807734.21523  23600022.641
 -11990094.166 7  -9342920.57327  22489967.925
   -137245.590 6   -106927.36825  23314616.320
 92  3 13  7 33 30.0010000  0  5G16G20G17G 3G24
 -16502717.715 7 -12859246.61127  21791908.069
 -19139190.464 8 -14913636.86429  20953850.247
  -3692606.203 5  -2877353.29622  23583013.024
 -12046832.559 7  -9387132.28126  22479169.696
    -50250.738 6    -39139.18624  23331170.260
 92  3 13  7 34  0.0010000  0  5G16G20G17G 3G24
 -16507068.664 7 -12862636.94128  21791077.055
 -19106774.489 8 -14888377.67329  20960019.684
  -3781707.534 5  -2946782.83023  23566068.444
 -12103451.485 7  -9431250.90626  22468395.460
     36868.703 6     28746.08425  23347754.493
 92  3 13  7 34 30.0010000  0  5G16G20G17G 3G24
 -16510818.803 7 -12865559.12028  21790365.348
 -19073783.534 8 -14862670.44229  20966298.237
  -3870575.377 5  -3016030.45323  23549148.765
 -12159949.746 7  -9475275.49026  22457642.200
    124103.023 6     96720.84225  23364352.791
 92  3 13  7 35  0.0010000  0  5G16G20G17G 3G24
 -16513953.609 7 -12868001.80127  21789771.761
 -19040200.982 8 -14836502.24029  20972687.704
  -3959219.575 5  -3085103.77223  23532277.650
 -12216324.344 7  -9519203.72527  22446919.215
    211432.837 6    164770.03625  23380974.194
 92  3 13  7 35 30.0010000  0  5G16G20G17G 3G24
 -16516463.878 7 -12869957.84227  21789291.793
 -19006028.219 8 -14809874.11729  20979187.806
  -4047646.480 5  -3154007.80023  23515462.289
 -12272578.655 7  -9563038.23426  22436211.238
    298851.492 6    232888.44925  23397604.879
 92  3 13  7 36  0.0010000  0  5G16G20G17G 3G24
 -16518349.222 7 -12871426.92828  21788932.929
 -18971240.401 8 -14782766.74329  20985809.029
  -4135855.154 5  -3222741.76723  23498668.513
 -12328708.124 7  -9606775.44626  22425529.332
    386356.503 6    301074.15825  23414252.649
 92  3 13  7 36 30.0010000  0  5G16G20G17G 3G24
 -16519616.655 7 -12872414.52128  21788687.108
 -18935827.996 8 -14755172.66929  20992548.966
  -4223844.053 5  -3291304.45524  23481931.102
 -12384709.328 7  -9650412.72027  22414872.903
    473954.123 6    369332.03125  23430932.806
 92  3 13  7 37  0.0010000  0  5G16G20G17G 3G24
 -16520297.857 7 -12872945.31228  21788560.001
 -18899822.879 8 -14727116.74529  20999397.426
  -4311618.395 5  -3359699.96824  23465220.372
 -12440595.367 7  -9693960.25126  22404240.764
    561635.758 6    437655.35825  23447613.853
 92  3 13  7 37 30.0010000  0  5G16G20G17G 3G24
 -16520398.479 7 -12873023.75428  21788540.212
 -18863225.630 8 -14698599.42829  21006366.991
  -4399172.026 5  -3427923.49324  23448565.099
 -12496363.382 7  -9737415.80426  22393627.821
    649416.396 6    506055.83825  23464316.800
 92  3 13  7 38  0.0010000  0  5G16G20G17G 3G24
 -16519924.797 7 -12872654.58928  21788632.838
 -18826040.387 8 -14669623.92129  21013441.204
  -4486501.724 5  -3495972.52824  23431933.803
 -12552006.785 7  -9780774.27527  22383036.743
    737301.735 6    574537.91225  23481038.314
 92  3 13  7 38 30.0010000  0  5G16G20G17G 3G24
 -16518877.087 7 -12871838.18828  21788831.299
 -18788286.275 8 -14640205.14229  21020626.018
  -4573603.629 5  -3563844.04824  23415362.483
 -12607519.590 7  -9824030.97926  22372471.160
    825293.375 6    643102.77625  23497787.417
 92  3 13  7 39  0.0010000  0  5G16G20G17G 3G24
 -16517238.678 7 -12870561.49728  21789145.787
 -18749965.597 8 -14610344.88229  21027919.371
  -4660473.345 5  -3631534.65524  23398836.114
 -12662904.059 7  -9867187.68726  22361930.757
    913371.911 6    711735.39524  23514548.211
 92  3 13  7 39 30.0010000  0  5G16G20G17G 3G24
 -16514991.317 7 -12868810.28828  21789572.986
 -18711068.103 7 -14580035.16229  21035318.560
  -4747120.695 5  -3699052.01524  23382357.437
 -12718161.548 7  -9910245.45325  22351418.536
   1001532.584 6    780431.98625  23531326.107
 92  3 13  7 40  0.0010000  0  5G16G20G17G 3G24
 -16512127.216 8 -12866578.51028  21790117.415
 -18671591.843 8 -14549274.44629  21042834.055
  -4833528.689 5  -3766382.83923  23365900.329
 -12773287.570 7  -9953200.77226  22340932.090
   1089779.235 6    849195.61024  23548112.379
 92  3 13  7 40 30.0010000  0  5G16G20G17G 3G24
 -16508638.108 7 -12863859.70527  21790779.058
 -18631520.711 8 -14518050.20529  21050458.369
  -4919666.833 5  -3833503.40823  23349515.464
 -12828277.815 7  -9996050.29026  22330461.837
   1178116.624 6    918029.89424  23564928.334
 92  3 13  7 41  0.0010000  0  5G16G20G17G 3G24
 -16504523.018 7 -12860653.12529  21791564.806
 -18590845.316 8 -14486355.10029  21058198.710
  -5005528.990 5  -3900408.91223  23333175.587
 -12883134.838 7 -10038795.99626  22320028.160
   1266547.675 6    986937.18624  23581758.981
 92  3 13  7 41 30.0010000  0  5G16G20G17G 3G24
 -16499807.731 7 -12856978.86229  21792460.299
 -18549575.135 8 -14454196.54129  21066052.669
  -5091117.999 5  -3967101.60923  23316894.446
 -12937853.159 7 -10081433.61926  22309611.270
   1355095.380 6   1055935.36524  23598599.838
 92  3 13  7 42  0.0010000  0  5G16G20G17G 3G24
 -16494515.392 7 -12852854.95728  21793466.391
 -18507733.432 8 -14421592.62529  21074013.057
  -5176438.173 5  -4033584.78523  23300651.696
 -12992438.456 7 -10123967.59126  22299223.173
   1443750.821 6   1125017.53124  23615473.954
 92  3 13  7 42 30.0010000  0  5G16G20G17G 3G24
 -16488643.095 7 -12848279.11828  21794585.823
 -18465323.674 8 -14388546.07029  21082082.875
  -5261512.910 5  -4099876.73623  23284459.604
 -13046889.902 7 -10166397.27226  22288865.631
   1532503.715 6   1194175.58523  23632365.154
 92  3 13  7 43  0.0010000  0  5G16G20G17G 3G24
 -16482196.960 7 -12843256.13829  21795809.572
 -18422358.197 8 -14355066.49029  21090258.215
  -5346381.651 5  -4166008.18922  23268313.075
 -13101210.869 7 -10208725.26927  22278527.302
   1621345.255 6   1263402.73425  23649271.658
 92  3 13  7 43 30.0010000  0  5G16G20G17G 3G24
 -16475176.495 7 -12837785.64128  21797146.956
 -18378854.425 8 -14321167.47529  21098536.389
  -5431057.637 5  -4231989.40424  23252200.137
 -13155408.174 7 -10250956.92127  22268211.134
   1710260.097 6   1332687.00225  23666187.131
 92  3 13  7 44  0.0010000  0  5G16G20G17G 3G24
 -16467547.687 7 -12831841.09829  21798599.443
 -18334801.333 8 -14286840.39929  21106919.177
  -5515518.643 5  -4297803.13623  23236126.166
 -13209478.031 7 -10293089.25227  22257927.651
   1799237.237 6   1402019.81023  23683124.818
 92  3 13  7 44 30.0010000  0  5G16G20G17G 3G24
 -16459306.846 7 -12825419.64728  21800166.751
 -18290186.881 8 -14252075.90629  21115409.912
  -5599754.827 5  -4363441.67724  23220093.865
 -13263416.662 7 -10335119.33427  22247661.863
   1888279.208 6   1471403.15223  23700069.085
 92  3 13  7 45  0.0010000  0  5G16G20G17G 3G24
 -16450452.981 7 -12818520.53028  21801854.589
 -18245021.777 8 -14216882.33329  21124006.447
  -5683755.630 5  -4428896.78324  23204115.521
 -13317228.365 7 -10377050.52127  22237420.958
   1977386.687 6   1540837.51624  23717024.152
 92  3 13  7 45 30.0010000  0  5G16G20G17G 3G24
 -16440987.532 7 -12811144.84528  21803649.152
 -18199313.669 8 -14181265.64529  21132705.241
  -5767507.084 5  -4494157.59223  23188171.362
 -13370919.917 7 -10418888.07426  22227206.124
   2066550.951 6   1610316.16022  23733991.208
 92  3 13  7 46  0.0010000  0  5G16G20G17G 3G24
 -16430928.907 7 -12803306.94328  21805566.913
 -18153051.716 8 -14145217.39129  21141509.242
  -5851013.775 6  -4559227.70923  23172286.254
 -13424492.581 7 -10460632.98326  22217008.688
   2155778.648 6   1679844.19424  23750965.454
 92  3 13  7 46 30.0010000  0  5G16G20G17G 3G24
 -16420278.146 7 -12795007.64229  21807593.215
 -18106225.187 8 -14108729.19829  21150418.765
  -5934280.588 5  -4624110.89225  23156438.036
 -13477932.871 7 -10502274.75827  22206840.324
   2245085.360 6   1749433.80423  23767964.584
 92  3 13  7 47  0.0010000  0  5G16G20G17G 3G24
 -16409023.331 7 -12786237.64828  21809735.229
 -18058838.227 8 -14071804.30229  21159434.124
  -6017317.519 5  -4688814.94824  23140641.663
 -13531238.950 7 -10543811.94627  22196694.157
   2334476.226 5   1819089.01624  23784973.608
 92  3 13  7 47 30.0010000  0  5G16G20G17G 3G24
 -16397179.487 7 -12777008.65528  21811987.267
 -18010872.134 7 -14034428.13429  21168558.912
  -6100122.326 5  -4753338.12023  23124879.771
 -13584408.089 7 -10585242.43826  22186580.953
   2423951.635 6   1888810.07524  23802001.216
 92  3 13  7 48  0.0010000  0  5G16G20G17G 3G24
 -16384748.835 7 -12767322.42328  21814354.441
 -17962333.132 8 -13996605.56229  21177799.413
  -6182699.092 6  -4817683.58822  23109172.446
 -13637441.249 7 -10626566.96826  22176483.332
   2513503.863 6   1958591.00823  23819039.329
 92  3 13  7 48 30.0010000  0  5G16G20G17G 3G24
 -16371723.757 7 -12757172.99028  21816834.920
 -17913228.651 8 -13958342.34329  21187148.141
  -6265048.910 6  -4881852.22024  23093496.602
 -13690339.682 7 -10667786.51426  22166421.414
   2603121.650 6   2028423.00524  23836101.402
 92  3 13  7 49  0.0010000  0  5G16G20G17G 3G24
 -16358098.257 7 -12746555.71628  21819426.330
 -17863553.674 8 -13919634.59029  21196594.607
  -6347151.784 5  -4945828.44624  23077872.619
 -13743094.695 7 -10708894.28827  22156382.862
   2692807.243 6   2098307.87122  23853164.696
 92  3 13  7 49 30.0010000  0  5G16G20G17G 3G24
 -16343877.229 7 -12735474.37729  21822130.747
 -17813309.980 8 -13880483.67329  21206157.378
  -6428991.953 6  -5009599.97624  23062301.702
 -13795706.767 7 -10749890.71127  22146367.397
   2782550.811 5   2168237.90524  23870228.880
 92  3 13  7 50  0.0010000  0  5G16G20G17G 3G24
 -16329067.825 7 -12723934.58029  21824952.395
 -17762532.905 8 -13840917.14629  21215822.094
  -6510584.750 6  -5073178.75123  23046770.956
 -13848186.765 7 -10790784.20926  22136383.098
   2872334.359 5   2238199.08825  23887327.842
 92  3 13  7 50 30.0010000  0  5G16G20G17G 3G24
 -16313677.913 7 -12711942.42828  21827880.768
 -17711220.044 8 -13800933.10729  21225583.641
  -6591931.809 6  -5136566.04022  23031293.573
 -13900538.314 7 -10831577.61228  22126419.791
   2962158.646 6   2308191.96125  23904423.210
 92  3 13  7 51  0.0010000  0  5G16G20G17G 3G24
 -16297708.250 7 -12699498.53829  21830916.775
 -17659373.704 8 -13760533.38029  21235451.303
  -6673019.254 6  -5199751.00225  23015868.052
 -13952758.690 7 -10872268.80126  22116483.777
   3052028.973 6   2378220.78524  23921526.971
 92  3 13  7 51 30.0010000  0  5G16G20G17G 3G24
 -16281157.583 7 -12686601.90528  21834067.883
 -17606987.476 8 -13719712.96329  21245423.003
  -6753843.082 6  -5262730.55824  23000480.607
 -14004838.588 7 -10912850.52126  22106575.927
   3141951.009 6   2448289.86822  23938635.234
 92  3 13  7 52  0.0010000  0  5G16G20G17G 3G24
 -16264029.154 7 -12673255.08328  21837326.327
 -17554061.411 8 -13678471.90129  21255489.423
  -6834402.265 6  -5325503.90124  22985150.119
 -14056775.651 7 -10953320.95526  22096689.681
   3231926.113 6   2518400.30724  23955752.170
 92  3 13  7 52 30.0010000  0  5G16G20G17G 3G24
 -16246328.090 7 -12659462.02829  21840695.109
 -17500590.903 8 -13636806.58729  21265666.791
  -6914692.944 6  -5388068.00625  22969875.089
 -14108577.982 7 -10993686.39627  22086832.210
   3321938.412 6   2588539.71625  23972883.223
 92  3 13  7 53  0.0010000  0  5G16G20G17G 3G24
 -16228056.288 7 -12645224.25928  21844174.194
 -17446581.542 8 -13594721.39229  21275942.474
  -6994717.662 6  -5450424.89123  22954646.528
 -14160241.514 7 -11033943.68128  22077003.514
   3411980.370 6   2658702.21924  23990022.060
 92  3 13  7 53 30.0010000  0  5G16G20G17G 3G24
 -16209209.646 7 -12630538.55128  21847757.317
 -17392040.255 8 -13552221.71129  21286325.179
  -7074485.697 6  -5512581.76624  22939471.033
 -14211767.333 7 -11074093.65027  22067195.497
   3502052.122 6   2728887.96322  24007159.098
 92  3 13  7 54  0.0010000  0  5G16G20G17G 3G24
 -16189767.006 8 -12615388.43628  21851460.340
 -17336956.361 8 -13509299.21729  21296803.232
  -7153991.040 6  -5574533.96825  22924337.210
 -14263149.896 7 -11114131.99627  22057416.867
   3592164.472 6   2799105.37724  24024305.420
 92  3 13  7 54 30.0010000  0  5G16G20G17G 3G24
 -16169727.281 7 -12599773.05629  21855269.810
 -17281336.244 8 -13465958.88529  21307390.105
  -7233251.597 6  -5636295.40924  22909253.748
 -14314393.008 7 -11154061.68928  22047667.325
   3682317.195 6   2869354.23524  24041462.544
 92  3 13  7 55  0.0010000  0  5G16G20G17G 3G24
 -16149095.644 7 -12583696.45929  21859196.493
 -17225191.428 8 -13422209.69029  21318073.198
  -7312283.722 6  -5697878.85323  22894217.959
 -14365495.979 7 -11193882.15827  22037941.743
   3772528.803 5   2939648.93924  24058628.358
 92  3 13  7 55 30.0010000  0  5G16G20G17G 3G24
 -16127868.922 7 -12567156.15929  21863237.091
 -17168519.917 8 -13378050.09329  21328856.141
  -7391078.771 6  -5759277.54925  22879218.450
 -14416460.985 7 -11233595.13727  22028242.266
   3862806.502 5   3009995.14923  24075801.065
 92  3 13  7 56  0.0010000  0  5G16G20G17G 3G24
 -16106046.141 7 -12550151.39129  21867390.714
 -17111312.949 8 -13333473.25729  21339743.995
  -7469618.396 6  -5820477.20725  22864271.693
 -14467275.938 7 -11273191.18928  22018574.863
   3953147.491 6   3080390.69023  24093004.362
 92  3 13  7 56 30.0010000  0  5G16G20G17G 3G24
 -16083633.685 7 -12532687.12728  21871652.266
 -17053570.495 8 -13288479.15529  21350730.495
  -7547895.824 6  -5881472.55124  22849380.096
 -14517932.003 7 -11312663.43628  22008934.124
   4043561.540 6   3150843.16724  24110210.347
 92  3 13  7 57  0.0010000  0  5G16G20G17G 3G24
 -16060647.928 7 -12514776.14829  21876027.734
 -16995300.795 8 -13243074.21129  21361817.125
  -7625908.243 6  -5942261.38726  22834532.282
 -14568434.448 7 -11352015.97427  21999322.177
   4134034.464 5   3221341.49924  24127420.834
 92  3 13  7 57 30.0010000  0  5G16G20G17G 3G24
 -16037090.323 8 -12496419.56827  21880516.227
 -16936508.284 7 -13197261.88629  21373008.979
  -7703651.998 6  -6002840.87425  22819742.018
 -14618788.309 7 -11391252.74327  21989743.212
   4224542.989 5   3291867.59622  24144642.419
 92  3 13  7 58  0.0010000  0  5G16G20G17G 3G24
 -16012971.270 7 -12477625.48828  21885103.365
 -16877198.752 7 -13151046.67829  21384296.460
  -7781136.732 6  -6063218.56724  22804989.534
 -14668994.124 7 -11430374.14328  21980189.724
   4315084.873 5   3362419.65422  24161862.782
 92  3 13  7 58 30.0010000  0  5G16G20G17G 3G24
 -15988287.767 7 -12458391.57828  21889796.008
 -16817358.929 7 -13104418.28729  21395681.680
  -7858362.086 6  -6123394.13225  22790302.401
 -14719048.451 7 -11469377.49128  21970662.324
   4405671.711 5   3433006.77924  24179106.860
 92  3 13  7 59  0.0010000  0  5G16G20G17G 3G24
 -15963034.812 7 -12438713.94828  21894604.084
 -16756981.144 7 -13057370.67629  21407169.420
  -7935316.528 6  -6183358.63725  22775651.844
 -14768947.394 7 -11508259.77728  21961164.310
   4496296.280 6   3503623.31522  24196358.704
 92  3 13  7 59 30.0010000  0  5G16G20G17G 3G24
 -15937209.637 7 -12418590.43128  21899516.181
 -16696066.771 7 -13009904.95129  21418764.497
  -8011998.821 6  -6243111.08125  22761066.638
 -14818694.942 7 -11547024.08428  21951702.261
   4586962.261 6   3574272.14823  24213607.267
 92  3 13  8  0  0.0010000  0  5G16G20G17G 3G24
 -15910814.500 7 -12398022.78728  21904538.301
 -16634615.613 7 -12962020.94729  21430458.202
  -8088414.544 6  -6302655.78825  22746517.118
 -14868289.770 7 -11585669.39327  21942265.078
   4677676.195 5   3644958.29522  24230866.928
 92  3 13  8  0 30.0010000  0  5G16G20G17G 3G24
 -15883845.877 7 -12377008.27128  21909670.148
 -16572628.537 7 -12913719.36029  21442250.535
  -8164567.032 6  -6361995.37224  22732031.134
 -14917729.351 7 -11624193.72428  21932857.596
   4768425.168 5   3715671.71724  24248135.263
 92  3 13  8  1  0.0010000  0  5G16G20G17G 3G24
 -15856297.405 8 -12355541.94429  21914915.021
 -16510116.126 7 -12865008.41629  21454146.907
  -8240465.588 6  -6421137.07825  22717589.543
 -14967009.373 7 -11662593.73227  21923483.392
   4859203.723 5   3786408.15923  24265416.510
 92  3 13  8  1 30.0010000  0  5G16G20G17G 3G24
 -15828167.815 7 -12333622.77929  21920268.712
 -16447094.350 7 -12815900.55529  21466138.610
  -8316123.113 6  -6480090.96924  22703188.716
 -15016132.865 7 -11700871.76228  21914131.960
   4950013.343 6   3857168.87923  24282698.036
 92  3 13  8  2  0.0010000  0  5G16G20G17G 3G24
 -15799470.727 7 -12311261.41328  21925730.037
 -16383582.639 7 -12766410.93629  21478223.234
  -8391544.903 6  -6538861.17025  22688832.544
 -15065103.252 7 -11739030.50029  21904812.915
   5040828.717 6   3927934.10024  24299981.081
 92  3 13  8  2 30.0010000  0  5G16G20G17G 3G24
 -15770199.671 7 -12288452.78728  21931298.681
 -16319582.187 7 -12716540.47029  21490406.802
  -8466717.249 6  -6597436.99325  22674537.552
 -15113912.912 7 -11777063.99229  21895519.051
   5131652.568 5   3998705.92722  24317268.907
 92  3 13  8  3  0.0010000  0  5G16G20G17G 3G24
 -15740347.460 7 -12265191.32128  21936979.442
 -16255100.823 7 -12666295.28029  21502675.806
  -8541623.469 6  -6655805.44024  22660281.806
 -15162561.321 7 -11814971.82328  21886263.857
   5222504.800 5   4069499.78522  24334551.341
 92  3 13  8  3 30.0010000  0  5G16G20G17G 3G24
 -15709916.630 7 -12241478.97828  21942771.135
 -16190130.255 7 -12615668.88529  21515039.843
  -8616232.106 6  -6713942.00923  22646082.442
 -15211041.008 7 -11852748.19228  21877038.642
   5313400.101 5   4140327.26923  24351844.262
 92  3 13  8  4  0.0010000  0  5G16G20G17G 3G24
 -15678920.617 7 -12217326.23127  21948672.554
 -16124667.322 7 -12564658.84129  21527493.819
  -8690549.482 6  -6771851.59125  22631938.238
 -15259358.736 7 -11890398.35928  21867847.002
   5404327.623 5   4211179.88322  24369148.893
 92  3 13  8  4 30.0010000  0  5G16G20G17G 3G24
 -15647350.528 7 -12192726.15028  21954675.586
 -16058701.412 7 -12513256.85429  21540048.832
  -8764581.049 6  -6829538.49324  22617850.991
 -15307510.447 8 -11927919.16327  21858685.952
   5495312.775 5   4282077.32621  24386467.606
 92  3 13  8  5  0.0010000  0  5G16G20G17G 3G24
 -15615210.172 7 -12167681.72728  21960792.568
 -15992219.178 7 -12461452.54229  21552699.472
  -8838328.966 6  -6887004.36724  22603817.997
 -15355492.644 7 -11965307.87829  21849555.771
   5586350.197 5   4353015.49523  24403789.913
 92  3 13  8  5 30.0010000  0  5G16G20G17G 3G24
 -15582508.909 7 -12142200.22028  21967017.444
 -15925228.504 8 -12409252.03629  21565449.055
  -8911814.822 6  -6944266.04224  22589831.491
 -15403311.879 7 -12002569.61829  21840454.069
   5677417.794 5   4423977.19924  24421117.020
 92  3 13  8  6  0.0010000  0  5G16G20G17G 3G24
 -15549237.104 7 -12116274.14128  21973349.361
 -15857735.295 7 -12356659.95529  21578293.654
  -8985051.184 6  -7001333.31625  22575892.641
 -15450964.221 7 -12039701.30028  21831382.940
   5768517.223 6   4494963.70422  24438449.222
 92  3 13  8  6 30.0010000  0  5G16G20G17G 3G24
 -15515395.123 7 -12089903.76528  21979785.908
 -15789748.014 7 -12303682.87429  21591226.098
  -9058036.155 6  -7058204.68625  22562008.951
 -15498449.796 7 -12076703.03628  21822346.606
   5859642.716 5   4565970.53523  24455793.709
 92  3 13  8  7  0.0010000  0  5G16G20G17G 3G24
 -15480973.695 7 -12063081.87328  21986336.074
 -15721265.292 7 -12250319.74129  21604261.376
  -9130752.458 6  -7114866.70124  22548169.026
 -15545761.758 7 -12113569.49228  21813343.533
   5950783.412 5   4636989.22222  24473136.695
 92  3 13  8  7 30.0010000  0  5G16G20G17G 3G24
 -15445972.765 7 -12035808.41828  21992996.264
 -15652297.365 7 -12196578.51529  21617388.093
  -9203189.446 6  -7171311.09225  22534389.374
 -15592896.985 7 -12150298.22628  21804375.848
   6041950.079 4   4708028.19422  24490481.199
 92  3 13  8  8  0.0010000  0  5G16G20G17G 3G24
 -15410406.409 7 -12008094.37227  21999764.977
 -15582831.646 7 -12142449.39729  21630606.545
  -9275347.275 6  -7227537.91725  22520654.378
 -15639858.337 8 -12186891.46929  21795439.924
   6133133.405 5   4779080.08723  24507843.381
 92  3 13  8  8 30.0010000  0  5G16G20G17G 3G24
 -15374276.425 7 -11979941.14427  22006638.321
 -15512860.021 7 -12087926.06429  21643916.437
  -9347211.873 6  -7283536.26125  22506980.544
 -15686644.323 7 -12223348.06829  21786533.106
   6224324.579 5   4850138.06021  24525184.866
 92  3 13  8  9  0.0010000  0  5G16G20G17G 3G24
 -15337588.717 7 -11951353.31828  22013619.595
 -15442384.021 7 -12033009.73629  21657331.240
  -9418775.090 6  -7339299.77825  22493366.059
 -15733252.853 7 -12259666.39829  21777664.940
   6315532.768 5   4921209.35623  24542543.749
 92  3 13  8  9 30.0010000  0  5G16G20G17G 3G24
 -15300341.438 7 -11922329.47027  22020706.983
 -15371401.962 7 -11977699.05828  21670837.795
  -9490040.888 6  -7394831.50625  22479801.359
 -15779678.378 8 -12295842.11329  21768831.849
   6406771.201 5   4992304.20922  24559909.525
 92  3 13  8 10  0.0010000  0  5G16G20G17G 3G24
 -15262529.692 7 -11892865.75727  22027904.692
 -15299914.579 7 -11921994.63328  21684441.165
  -9561005.082 6  -7450128.21925  22466298.101
 -15825919.298 8 -12331873.99029  21760034.444
   6498043.900 5   5063425.67624  24577275.912
 92  3 13  8 10 30.0010000  0  5G16G20G17G 3G24
 -15224161.330 7 -11862968.33328  22035207.643
 -15227946.731 7 -11865915.80929  21698132.100
  -9631667.305 6  -7505189.66425  22452850.318
 -15871977.876 7 -12367763.77929  21751265.814
   6589348.324 5   5134571.88324  24594655.474
 92  3 13  8 11  0.0010000  0  5G16G20G17G 3G24
 -15185242.830 7 -11832642.22527  22042612.817
 -15155508.697 7 -11809470.61429  21711922.257
  -9702043.694 6  -7560028.39626  22439458.288
 -15917852.940 8 -12403510.56329  21742538.262
   6680689.678 4   5205746.92222  24612034.146
 92  3 13  8 11 30.0010000  0  5G16G20G17G 3G24
 -15145787.128 7 -11801897.51327  22050122.012
 -15082621.177 7 -11752675.15928  21725792.143
  -9772146.030 6  -7614653.57326  22426115.729
 -15963553.695 8 -12439121.52829  21733840.969
   6772044.766 4   5276932.60522  24629423.009
 92  3 13  8 12  0.0010000  0  5G16G20G17G 3G24
 -15105811.307 7 -11770747.52227  22057732.244
 -15009278.286 7 -11695524.88029  21739751.375
  -9841968.833 6  -7669060.93726  22412830.425
 -16009077.824 7 -12474594.86129  21725177.878
   6863405.436 5   5348122.76122  24646801.681
 92  3 13  8 12 30.0010000  0  5G16G20G17G 3G24
 -15065318.220 7 -11739194.46628  22065434.212
 -14935483.385 7 -11638022.38829  21753788.871
  -9911521.279 6  -7723257.61426  22399595.185
 -16054423.725 7 -12509929.31529  21716551.642
   6954766.795 5   5419313.37024  24664184.244
 92  3 13  8 13  0.0010000  0  5G16G20G17G 3G24
 -15024299.241 7 -11707231.62627  22073241.108
 -14861246.940 7 -11580175.83129  21767918.086
  -9980808.581 6  -7777247.66926  22386412.714
 -16099591.872 7 -12545125.25829  21707949.994
   7046133.762 5   5490508.34923  24681576.998
 92  3 13  8 13 30.0010000  0  5G16G20G17G 3G24
 -14982730.480 7 -11674840.38727  22081152.635
 -14786551.505 7 -11521971.62828  21782130.049
 -10049809.662 6  -7831014.68626  22373276.697
 -16144567.265 7 -12580171.01129  21699397.223
   7137509.186 5   5561709.90924  24698963.156
 92  3 13  8 14  0.0010000  0  5G16G20G17G 3G24
 -14940593.924 7 -11642006.70527  22089169.684
 -14711374.368 7 -11463392.07029  21796435.842
 -10118509.345 6  -7884546.86526  22360206.658
 -16189331.351 8 -12615052.10329  21690880.121
   7228914.491 5   5632934.74423  24716358.929
 92  3 13  8 14 30.0010000  0  5G16G20G17G 3G24
 -14897903.520 7 -11608741.47028  22097293.458
 -14635764.977 7 -11404475.68628  21810826.182
 -10186932.257 7  -7937863.37926  22347185.759
 -16233914.445 8 -12649792.16529  21682393.591
   7320313.519 5   5704154.70624  24733747.774
 92  3 13  8 15  0.0010000  0  5G16G20G17G 3G24
 -14854665.511 7 -11575049.51427  22105521.864
 -14559721.757 7 -11345221.24729  21825296.566
 -10255072.502 6  -7990959.62025  22334218.241
 -16278321.910 8 -12684395.38429  21673945.435
   7411693.622 4   5775359.93523  24751145.938
 92  3 13  8 15 30.0010000  0  5G16G20G17G 3G24
 -14810871.122 7 -11540924.02027  22113853.104
 -14483205.610 7 -11285598.30528  21839858.685
 -10322900.526 7  -8043812.59226  22321310.681
 -16322533.958 8 -12718846.32329  21665529.963
   7503070.327 4   5846562.41322  24768521.609
 92  3 13  8 16  0.0010000  0  5G16G20G17G 3G24
 -14766528.003 7 -11506370.94227  22122294.647
 -14406223.184 7 -11225612.02829  21854509.539
 -10390417.877 7  -8096423.48126  22308462.470
 -16366554.135 8 -12753147.75229  21657151.066
   7594454.269 5   5917770.61523  24785914.066
 92  3 13  8 16 30.0010000  0  5G16G20G17G 3G24
 -14721629.295 7 -11471384.94827  22130833.946
 -14328771.587 7 -11165260.15528  21869245.532
 -10457634.135 6  -8148799.74125  22295672.420
 -16410382.743 8 -12787299.91529  21648815.341
   7685852.526 5   5988990.01922  24803301.725
 92  3 13  8 17  0.0010000  0  5G16G20G17G 3G24
 -14676189.289 7 -11435977.14627  22139483.548
 -14250842.122 7 -11104535.92528  21884074.762
 -10524572.032 6  -8200959.10826  22282934.843
 -16454021.476 8 -12821304.11429  21640509.893
   7777274.371 5   6060227.87022  24820708.282
 92  3 13  8 17 30.0010000  0  5G16G20G17G 3G24
 -14630209.862 7 -11400149.02127  22148229.108
 -14172451.135 7 -11043452.08228  21898992.151
 -10591250.953 6  -8252916.69826  22270244.032
 -16497466.706 8 -12855157.53029  21632241.910
   7868722.193 5   6131485.88722  24838107.336
 92  3 13  8 18  0.0010000  0  5G16G20G17G 3G24
 -14583705.710 7 -11363912.02728  22157081.970
 -14093623.162 7 -10982027.71728  21913990.456
 -10657700.118 6  -8304695.24326  22257603.880
 -16540724.484 8 -12888864.88829  21624006.315
   7960184.782 5   6202755.40121  24855518.081
 92  3 13  8 18 30.0010000  0  5G16G20G17G 3G24
 -14536690.548 7 -11327276.85227  22166026.585
 -14014357.367 7 -10920262.19328  21929076.919
 -10723914.315 6  -8356290.69426  22244997.302
 -16583788.349 8 -12922421.14529  21615818.376
   8051655.568 4   6274031.34122  24872915.041
 92  3 13  8 19  0.0010000  0  5G16G20G17G 3G24
 -14489170.159 7 -11290247.98227  22175070.126
 -13934663.639 7 -10858163.19429  21944237.424
 -10789873.203 6  -8407687.19626  22232443.807
 -16626654.357 8 -12955823.21129  21607656.839
   8143122.737 4   6345304.39424  24890320.394
 92  3 13  8 19 30.0010000  0  5G16G20G17G 3G24
 -14441148.811 7 -11252828.75927  22184210.498
 -13854557.362 7 -10795742.75128  21959482.161
 -10855563.006 6  -8458874.00326  22219952.941
 -16669327.195 8 -12989074.77229  21599540.254
   8234572.627 4   6416563.96923  24907730.843
 92  3 13  8 20  0.0010000  0  5G16G20G17G 3G24
 -14392629.777 7 -11215021.73628  22193444.402
 -13774037.447 7 -10732999.98128  21974808.164
 -10920953.966 6  -8509827.93126  22207507.062
 -16711802.618 7 -13022172.49129  21591453.946
   8326018.191 5   6487820.18722  24925134.381
 92  3 13  8 20 30.0010000  0  5G16G20G17G 3G24
 -14343591.719 7 -11176810.26527  22202779.937
 -13693098.711 7 -10669930.88127  21990209.988
 -10986008.148 6  -8560519.46627  22195130.128
 -16754073.580 8 -13055110.89029  21583409.919
   8417459.342 5   6559072.93123  24942531.952
 92  3 13  8 21  0.0010000  0  5G16G20G17G 3G24
 -14294023.389 7 -11138185.61127  22212204.503
 -13611738.566 7 -10606533.37127  22005692.170
 -11050723.411 6  -8610946.92426  22182808.669
 -16796136.404 8 -13087887.11329  21575408.156
   8508896.031 5   6630322.26222  24959936.397
 92  3 13  8 21 30.0010000  0  5G16G20G17G 3G24
 -14243938.651 7 -11099158.54127  22221740.314
 -13529959.796 7 -10542809.69628  22021255.304
 -11115111.484 6  -8661119.42826  22170561.845
 -16837992.402 8 -13120502.17729  21567441.765
   8600329.031 5   6701568.80622  24977334.247
 92  3 13  8 22  0.0010000  0  5G16G20G17G 3G24
 -14193341.938 7 -11059732.54727  22231362.748
 -13447761.058 7 -10478758.76028  22036896.667
 -11179182.275 6  -8711044.69126  22158368.086
 -16879646.411 7 -13152959.83829  21559510.467
   8691754.187 5   6772809.14622  24994733.004
 92  3 13  8 22 30.0010000  0  5G16G20G17G 3G24
 -14142226.866 7 -11019902.63427  22241092.205
 -13365122.451 7 -10414365.06228  22052619.296
 -11242952.709 6  -8760735.93427  22146228.877
 -16921092.001 8 -13185255.09229  21551627.715
   8783165.072 4   6844038.35723  25012115.271
 92  3 13  8 23  0.0010000  0  5G16G20G17G 3G24
 -14090613.470 7 -10979684.40627  22250915.211
 -13282058.993 7 -10349640.32528  22068429.437
 -11306455.277 6  -8810218.42327  22134144.549
 -16962332.222 8 -13217390.33329  21543781.242
   8874568.155 4   6915261.50222  25029522.718
 92  3 13  8 23 30.0010000  0  5G16G20G17G 3G24
 -14038492.217 7 -10939070.44427  22260834.142
 -13198569.975 7 -10284583.97029  22084312.154
 -11369686.229 7  -8859489.25626  22122112.973
 -17003357.349 8 -13249357.95329  21535970.158
   8965987.477 5   6986497.33622  25046913.989
 92  3 13  8 24  0.0010000  0  5G16G20G17G 3G24
 -13985851.075 7 -10898051.38227  22270849.311
 -13114655.159 7 -10219195.83227  22100283.588
 -11432644.831 7  -8908547.88827  22110132.369
 -17044168.987 8 -13281159.22329  21528211.529
   9057416.555 5   7057740.72022  25064308.540
 92  3 13  8 24 30.0010000  0  5G16G20G17G 3G24
 -13932687.171 7 -10856624.96226  22280967.610
 -13030322.861 7 -10153482.39827  22116331.786
 -11495333.611 7  -8957396.25926  22098202.737
 -17084762.946 8 -13312790.87929  21520482.287
   9148858.938 5   7128994.51022  25081713.283
 92  3 13  8 25  0.0010000  0  5G16G20G17G 3G24
 -13879005.961 7 -10814795.46127  22291181.536
 -12945595.121 7 -10087460.81628  22132453.117
 -11557745.132 7  -9006028.57827  22086328.248
 -17125145.707 8 -13344257.95928  21512798.607
   9240304.339 4   7200250.67221  25099106.054
 92  3 13  8 25 30.0010000  0  5G16G20G17G 3G24
 -13824800.683 7 -10772557.59327  22301497.686
 -12860456.802 7 -10021119.29528  22148658.401
 -11619860.826 7  -9054430.39426  22074508.029
 -17165316.035 8 -13375559.50229  21505152.393
   9331747.817 3   7271505.28222  25116517.690
 92  3 13  8 26  0.0010000  0  5G16G20G17G 3G23
 -13770074.922 7 -10729914.15727  22311910.388
 -12774915.033 7  -9954463.41127  22164930.834
 -11681671.895 7  -9102594.82627  22062748.083
 -17205275.641 8 -13406696.86029  21497549.665
   -300481.932 4   -234141.54223  25265900.383
 92  3 13  8 26 30.0010000  0  5G16G20G17G 3G23
 -13714836.225 7 -10686871.02827  22322419.904
 -12688970.508 7  -9887493.68928  22181289.610
 -11743179.848 7  -9150523.07327  22051039.388
 -17245015.039 8 -13437662.62128  21489987.997
   -409023.736 4   -318719.53821  25245245.573
 92  3 13  8 27  0.0010000  0  5G16G20G17G 3G23
 -13659102.846 7 -10643442.41927  22333028.973
 -12602637.322 7  -9820221.10627  22197717.333
 -11804375.899 6  -9198208.27726  22039394.247
 -17284533.336 8 -13468456.08229  21482472.799
   -517520.814 4   -403262.64522  25224597.969
 92  3 13  8 27 30.0010000  0  6G16G20G17G 3G23G24
 -13602884.365 7 -10599635.81527  22343721.664
 -12515926.979 7  -9752654.64027  22214217.910
 -11865270.283 7  -9245658.41426  22027805.173
 -17323830.712 8 -13499077.41129  21474990.878
   -625975.062 4   -487772.41123  25203956.962
     15230.79515     11882.08922  25186111.514
 92  3 13  8 28  0.0010000  0  6G16G20G17G 3G23G24
 -13546204.223 7 -10555469.48827  22354509.092
 -12428864.530 7  -9684813.80328  22230786.246
 -11925886.479 7  -9292891.77927  22016275.151
 -17362914.561 8 -13529532.35829  21467554.224
   -734402.322 4   -572261.06523  25183325.552
    106652.031 5     83119.28922  25203506.676
 92  3 13  8 28 30.0010000  0  5G16G20G17G 3G23
 -13489069.590 7 -10510948.99326  22365382.864
 -12341446.868 7  -9616696.17127  22247424.121
 -11986221.957 7  -9339906.39026  22004791.599
 -17401775.275 8 -13559813.42329  21460156.535
   -842791.011 4   -656719.72821  25162692.938
 92  3 13  8 29  0.0010000  0  4G16G20G17G 3
 -13431478.884 7 -10466073.12527  22376345.980
 -12253676.301 7  -9548303.55427  22264124.363
 -12046264.056 7  -9386692.40626  21993365.615
 -17440414.676 8 -13589922.03829  21452803.537
 92  3 13  8 29 30.0010000  0  4G16G20G17G 3
 -13373420.588 7 -10420832.88826  22387395.127
 -12165526.192 7  -9479615.18927  22280896.553
 -12106020.684 7  -9433255.99827  21981996.886
 -17478829.586 8 -13619855.72729  21445493.100
 92  3 13  8 30  0.0010000  0  4G16G20G17G 3
 -13314884.401 7 -10375220.28926  22398530.320
 -12076984.165 7  -9410621.44127  22297752.695
 -12165487.146 7  -9479593.47826  21970678.814
 -17517014.108 8 -13649609.88529  21438227.929
 92  3 13  8 30 30.0010000  0  4G16G20G17G 3
 -13255851.715 7 -10329220.80427  22409766.847
 -11988035.688 7  -9341310.96327  22314672.077
 -12224647.243 7  -9525692.21726  21959421.016
 -17554962.721 8 -13679180.22929  21431006.226
 92  3 13  8 31  0.0010000  0  4G16G20G17G 3
 -13196311.694 7 -10282825.98527  22421091.201
 -11898685.757 7  -9271687.68627  22331674.208
 -12283503.020 7  -9571553.83726  21948221.361
 -17592685.786 8 -13708574.83329  21423827.695
 92  3 13  8 31 30.0010000  0  4G16G20G17G 3
 -13136262.177 7 -10236034.15127  22432520.186
 -11808944.117 7  -9201759.15527  22348754.272
 -12342066.334 7  -9617187.56926  21937074.476
 -17630182.235 8 -13737792.82829  21416692.039
 92  3 13  8 32  0.0010000  0  4G16G20G17G 3
 -13075696.122 7 -10188839.83627  22444044.816
 -11718828.190 7  -9131538.99328  22365900.001
 -12400319.075 7  -9662579.29726  21925992.052
 -17667444.379 8 -13766828.25729  21409602.836
 92  3 13  8 32 30.0010000  0  4G16G20G17G 3
 -13014620.041 7 -10141248.09027  22455667.463
 -11628336.039 7  -9061025.65727  22383118.288
 -12458243.369 7  -9707715.07825  21914969.884
 -17704465.062 8 -13795675.54329  21402556.525
 92  3 13  8 33  0.0010000  0  4G16G20G17G 3
 -12953045.493 7 -10093267.93126  22467386.646
 -11537482.576 7  -8990230.78827  22400410.616
 -12515847.780 7  -9752601.59627  21904006.471
 -17741244.860 8 -13824335.11629  21395556.667
 92  3 13  8 33 30.0010000  0  4G16G20G17G 3
 -12890997.294 7 -10044918.69427  22479194.580
 -11446268.611 7  -8919155.01427  22417767.999
 -12573153.015 7  -9797254.99826  21893098.828
 -17777784.566 8 -13852807.60129  21388607.170
 92  3 13  8 34  0.0010000  0  4G16G20G17G 3
 -12828496.940 7  -9996217.13026  22491088.247
 -11354687.195 7  -8847792.91827  22435195.234
 -12630151.916 7  -9841669.69226  21882250.534
 -17814086.393 8 -13881094.73729  21381696.064
 92  3 13  8 34 30.0010000  0  4G16G20G17G 3
 -12765564.938 7  -9947179.22027  22503062.255
 -11262735.567 7  -8776142.35327  22452692.620
 -12686857.884 7  -9885856.14926  21871468.795
 -17850154.188 8 -13909199.50929  21374832.614
 92  3 13  8 35  0.0010000  0  4G16G20G17G 3
 -12702195.815 7  -9897800.68626  22515120.198
 -11170407.234 7  -8704198.22227  22470263.454
 -12743267.106 7  -9929811.36727  21860729.634
 -17885973.527 8 -13937110.66629  21368015.931
 92  3 13  8 35 30.0010000  0  4G16G20G17G 3
 -12638401.964 7  -9848091.21027  22527266.003
 -11077714.706 7  -8631970.31526  22487904.141
 -12799390.179 7  -9973543.59227  21850046.523
 -17921547.220 8 -13964830.42329  21361252.017
 92  3 13  8 36  0.0010000  0  4G16G20G17G 3
 -12574170.475 7  -9798040.70827  22539483.145
 -10984672.990 7  -8559470.31827  22505604.490
 -12855213.990 7 -10017042.63627  21839424.576
 -17956872.995 8 -13992356.99529  21354528.867
 92  3 13  8 36 30.0010000  0  5G16G20G17G 3G23
 -12509488.922 7  -9747639.50327  22551790.819
 -10891298.955 7  -8486711.37625  22523377.083
 -12910754.174 7 -10060320.67627  21828860.197
 -17991956.631 8 -14019694.88429  21347851.890
    -82277.48415    -64111.64623  24834245.114
 92  3 13  8 37  0.0010000  0  5G16G20G17G 3G23
 -12444335.880 7  -9696870.91126  22564190.839
 -10797599.485 7  -8413698.83126  22541203.649
 -12966005.688 7 -10103373.77626  21818343.177
 -18026791.163 8 -14046838.67629  21341215.991
   -189526.635 5   -147682.33723  24813826.544
 92  3 13  8 37 30.0010000  0  5G16G20G17G 3G23
 -12378692.334 7  -9645720.11326  22576682.594
 -10703564.523 7  -8340424.86525  22559097.661
 -13020955.242 7 -10146191.58427  21807890.619
 -18061365.710 8 -14073779.87729  21334641.237
   -296669.724 5   -231170.39424  24793456.539
 92  3 13  8 38  0.0010000  0  5G16G20G17G 3G23
 -12312561.828 7  -9594189.86527  22589263.678
 -10609191.030 7  -8266887.12026  22577060.933
 -13075597.645 7 -10188770.06327  21797495.001
 -18095688.054 8 -14100524.55329  21328110.860
   -403722.598 5   -314588.17422  24773082.048
 92  3 13  8 38 30.0010000  0  5G16G20G17G 3G23
 -12245968.679 7  -9542299.10627  22601940.999
 -10514492.266 6  -8193095.92026  22595080.551
 -13129935.611 7 -10231111.30327  21787153.059
 -18129762.933 8 -14127076.40529  21321626.045
   -510689.648 5   -397939.08522  24752720.454
 92  3 13  8 39  0.0010000  0  5G16G20G17G 3G23
 -12178925.752 7  -9490057.88126  22614695.067
 -10419474.298 7  -8119055.97826  22613160.739
 -13183967.618 7 -10273214.14627  21776868.390
 -18163580.899 8 -14153428.05929  21315190.108
   -617548.816 5   -481205.91322  24732386.134
 92  3 13  8 39 30.0010000  0  5G16G20G17G 3G23
 -12111445.514 7  -9437475.88826  22627535.181
 -10324146.216 6  -8044774.39526  22631299.682
 -13237697.283 7 -10315081.39227  21766638.863
 -18197144.334 8 -14179581.37329  21308803.922
   -724314.193 5   -564399.69422  24712072.196
 92  3 13  8 40  0.0010000  0  5G16G20G17G 3G23
 -12043547.427 7  -9384568.29326  22640458.045
 -10228531.701 6  -7970269.60226  22649490.784
 -13291139.570 7 -10356724.71027  21756473.500
 -18230468.176 8 -14205547.99829  21302464.519
   -831012.922 5   -647541.54123  24691766.337
 92  3 13  8 40 30.0010000  0  5G16G20G17G 3G23
 -11975214.730 7  -9331322.06727  22653459.138
 -10132625.528 7  -7895537.56727  22667743.642
 -13344282.244 7 -10398134.54927  21746360.610
 -18263528.252 8 -14231309.09529  21296174.867
   -937605.831 5   -730600.91022  24671483.286
 92  3 13  8 41  0.0010000  0  5G16G20G17G 3G23
 -11906425.802 7  -9277720.29626  22666552.874
 -10036402.715 7  -7820558.79726  22686058.273
 -13397118.990 7 -10439306.00227  21736305.865
 -18296310.328 8 -14256853.56729  21289930.185
  -1044086.341 4   -813572.70221  24651223.618
 92  3 13  8 41 30.0010000  0  5G16G20G17G 3G23
 -11837196.717 6  -9223775.57227  22679722.762
  -9939853.533 7  -7745325.69426  22704431.957
 -13449644.519 7 -10480234.95827  21726311.689
 -18328828.714 8 -14282192.57029  21283744.868
  -1150483.266 4   -896479.34822  24630971.140
 92  3 13  8 42  0.0010000  0  5G16G20G17G 3G23
 -11767543.746 7  -9169500.55726  22692981.682
  -9842968.844 7  -7669831.16726  22722863.784
 -13501862.655 7 -10520924.38727  21716372.673
 -18361087.122 8 -14307328.98529  21277603.927
  -1256783.532 4   -979310.67123  24610743.545
 92  3 13  8 42 30.0010000  0  5G16G20G17G 3G23
 -11697461.721 7  -9114891.19926  22706318.849
  -9745734.809 6  -7594064.41326  22741365.185
 -13553766.644 7 -10561369.02227  21706499.305
 -18393074.986 8 -14332254.58329  21271518.129
  -1362964.988 3  -1062049.40422  24590541.114
 92  3 13  8 43  0.0010000  0  5G16G20G17G 3G23
 -11626962.262 7  -9059956.55527  22719728.259
  -9648151.840 7  -7518025.78226  22759940.925
 -13605354.527 7 -10601567.35228  21696683.191
 -18424799.655 8 -14356975.09929  21265481.819
  -1469041.888 4  -1144706.63923  24570360.600
 92  3 13  8 43 30.0010000  0  5G16G20G17G 3G23
 -11556046.258 7  -9004697.35226  22733230.313
  -9550234.690 6  -7441726.72327  22778565.525
 -13656618.012 7 -10641512.89928  21686927.961
 -18456253.317 8 -14381484.44229  21259497.057
  -1574986.718 4  -1227261.00224  24550200.748
 92  3 13  8 44  0.0010000  0  5G16G20G17G 3G23
 -11484709.542 7  -8949110.32127  22746804.017
  -9452014.226 6  -7365191.33626  22797264.480
 -13707572.455 7 -10681217.62927  21677228.467
 -18487433.132 8 -14405780.39429  21253561.767
  -1680785.965 4  -1309701.89223  24530043.897
 92  3 13  8 44 30.0010000  0  5G16G20G17G 3G23
 -11412953.620 7  -8893196.62627  22760459.859
  -9353509.940 6  -7288434.78726  22816006.607
 -13758205.935 7 -10720672.26427  21667592.229
 -18518336.015 8 -14429860.56229  21247684.935
  -1786440.602 4  -1392030.08724  24509958.713
 92  3 13  8 45  0.0010000  0  5G16G20G17G 3G23
 -11340783.460 7  -8836960.14626  22774185.852
  -9254726.331 6  -7211460.60726  22834807.786
 -13808529.560 7 -10759885.45527  21658019.564
 -18548960.290 8 -14453723.63729  21241855.166
  -1891957.118 4  -1474250.70524  24489884.611
 92  3 13  8 45 30.0010000  0  5G16G20G17G 3G23
 -11268192.303 7  -8780395.62825  22788004.487
  -9155654.755 6  -7134262.01826  22853659.047
 -13858550.708 7 -10798862.94927  21648503.855
 -18579295.977 8 -14477361.83129  21236080.872
  -1997331.387 5  -1556360.44025  24469832.095
 92  3 13  8 46  0.0010000  0  5G16G20G17G 3G23
 -11195181.433 7  -8723504.05926  22801897.478
  -9056280.509 6  -7056827.57526  22872567.858
 -13908268.555 7 -10837604.10427  21639036.414
 -18609348.191 8 -14500779.12929  21230363.832
  -2102590.271 5  -1638380.28425  24449791.567
 92  3 13  8 46 30.0010000  0  5G16G20G17G 3G23
 -11121753.418 6  -8666287.41926  22815866.307
  -8956598.413 6  -6979153.25626  22891534.221
 -13957692.541 7 -10876116.27428  21629633.416
 -18639122.174 8 -14523979.64129  21224699.247
  -2207747.107 5  -1720320.61325  24429778.924
 92  3 13  8 47  0.0010000  0  5G16G20G17G 3G23
 -11047894.831 7  -8608735.30325  22829925.965
  -8856595.893 6  -6901229.26525  22910566.545
 -14006813.546 7 -10914392.35528  21620286.487
 -18668605.986 8 -14546954.03929  21219085.634
  -2312801.016 5  -1802180.75724  24409784.255
 92  3 13  8 47 30.0010000  0  5G16G20G17G 3G23
 -10973611.447 7  -8550852.16526  22844061.479
  -8756294.225 6  -6823072.16225  22929650.138
 -14055615.376 7 -10952419.72528  21610996.514
 -18697807.044 8 -14569708.10229  21213530.479
  -2417743.385 5  -1883953.95724  24389819.880
 92  3 13  8 48  0.0010000  0  5G16G20G17G 3G23
 -10898901.935 7  -8492636.97725  22858276.741
  -8655704.475 6  -6744690.57726  22948797.581
 -14104083.611 7 -10990187.14628  21601775.505
 -18726720.777 8 -14592238.28429  21208029.891
  -2522552.372 5  -1965623.24724  24369883.076
 92  3 13  8 48 30.0010000  0  5G16G20G17G 3G23
 -10823780.439 7  -8434100.75225  22872575.641
  -8554852.516 6  -6666104.66426  22967986.103
 -14152231.811 7 -11027705.20828  21592614.751
 -18755346.371 8 -14614543.93829  21202578.164
  -2627214.478 5  -2047178.08823  24349960.965
 92  3 13  8 49  0.0010000  0  5G16G20G17G 3G23
 -10748261.815 7  -8375255.09326  22886943.505
  -8453751.133 6  -6587324.41926  22987227.672
 -14200056.701 7 -11064971.32227  21583511.549
 -18783683.770 8 -14636625.01229  21197186.989
  -2731721.402 5  -2128611.98322  24330075.447
 92  3 13  8 49 30.0010000  0  5G16G20G17G 3G23
 -10672348.944 6  -8316102.22225  22901390.505
  -8352405.929 6  -6508354.17824  23006513.915
 -14247574.092 7 -11101997.84028  21574465.914
 -18811739.188 8 -14658486.37729  21191849.788
  -2836067.908 5  -2209920.90924  24310212.388
 92  3 13  8 50  0.0010000  0  5G16G20G17G 3G23
 -10596047.581 6  -8256646.62126  22915906.155
  -8250819.988 6  -6429196.32425  23025837.937
 -14294794.340 7 -11138792.81427  21565486.224
 -18839515.946 8 -14680130.60029  21186565.652
  -2940277.034 5  -2291122.75122  24290381.420
 92  3 13  8 50 30.0010000  0  5G16G20G17G 3G23
 -10519365.865 7  -8196894.63926  22930501.552
  -8149002.356 6  -6349857.94625  23045218.934
 -14341725.049 7 -11175362.16828  21556550.613
 -18867020.648 8 -14701562.81929  21181330.674
  -3044371.507 5  -2372235.28721  24270575.335
 92  3 13  8 51  0.0010000  0  5G16G20G17G 3G23
 -10442290.266 6  -8136835.74826  22945169.786
  -8046938.456 6  -6270327.67225  23064641.288
 -14388349.364 7 -11211692.79528  21547680.057
 -18894248.072 8 -14722778.99029  21176150.856
  -3148348.233 5  -2453256.04023  24250791.133
 92  3 13  8 51 30.0010000  0  5G16G20G17G 3G23
 -10364818.118 6  -8076467.85726  22959911.189
  -7944615.821 6  -6190595.79125  23084111.909
 -14434657.813 7 -11247777.27528  21538873.647
 -18921190.647 8 -14743773.20029  21171023.197
  -3252208.948 5  -2534186.43924  24231037.801
 92  3 13  8 52  0.0010000  0  5G16G20G17G 3G23
 -10286955.826 6  -8015795.95126  22974722.724
  -7842024.495 6  -6110654.53524  23103631.391
 -14480654.832 7 -11283619.07928  21530113.411
 -18947834.260 8 -14764534.44429  21165951.012
  -3355944.959 4  -2615019.63922  24211292.862
 92  3 13  8 52 30.0010000  0  5G16G20G17G 3G23
 -10208713.091 6  -7954827.61125  22989614.915
  -7739162.121 6  -6030502.06422  23123208.128
 -14526364.335 7 -11319236.84628  21521416.432
 -18974178.211 8 -14785062.19429  21160937.582
  -3459547.648 4  -2695748.94522  24191578.810
 92  3 13  8 53  0.0010000  0  5G16G20G17G 3G23
 -10130105.426 6  -7893574.90826  23004574.271
  -7636044.288 6  -5950150.55226  23142835.557
 -14571799.594 7 -11354640.93128  21512773.723
 -19000226.125 8 -14805359.26629  21155982.313
  -3563003.534 5  -2776363.89723  24171893.254
 92  3 13  8 53 30.0010000  0  5G16G20G17G 3G23
 -10051151.320 6  -7832052.24525  23019598.961
  -7532680.512 6  -5869607.41824  23162501.027
 -14616977.917 7 -11389844.78528  21504171.778
 -19025977.275 8 -14825425.08629  21151080.408
  -3666310.261 4  -2856862.57922  24152217.872
 92  3 13  8 54  0.0010000  0  5G16G20G17G 3G23
  -9971839.730 6  -7770251.02425  23034688.722
  -7429081.629 6  -5788881.04724  23182210.891
 -14661901.400 7 -11424850.06728  21495626.494
 -19051431.044 8 -14845259.19729  21146237.257
  -3769443.340 5  -2937225.96422  24132601.856
 92  3 13  8 54 30.0010000  0  5G16G20G17G 3G23
  -9892165.629 6  -7708167.32026  23049852.211
  -7325260.836 6  -5707981.77225  23201971.710
 -14706545.935 7 -11459637.99028  21487129.477
 -19076592.223 8 -14864865.30929  21141448.376
  -3872390.193 5  -3017444.21924  24113017.598
 92  3 13  8 55  0.0010000  0  5G16G20G17G 3G23
  -9812121.122 6  -7645795.03326  23065086.478
  -7221206.087 6  -5626900.17724  23221772.699
 -14750883.767 7 -11494186.91928  21478691.808
 -19101449.712 8 -14884234.76829  21136721.548
  -3975134.644 5  -3097504.77322  24093458.243
 92  3 13  8 55 30.0010000  0  5G16G20G17G 3G23
  -9731701.740 6  -7583130.55925  23080373.794
  -7116902.225 6  -5545624.50525  23241624.956
 -14794896.466 7 -11528482.51228  21470315.616
 -19125999.395 8 -14903364.39129  21132048.083
  -4077684.978 5  -3177414.07223  24073942.059
 92  3 13  8 56  0.0010000  0  5G16G20G17G 3G23
  -9650895.112 6  -7520164.37325  23095763.333
  -7012349.523 6  -5464154.92224  23261511.399
 -14838565.632 7 -11562510.40229  21462008.352
 -19150238.826 8 -14922252.26329  21127434.874
  -4180040.320 5  -3257171.42622  24054467.546
 92  3 13  8 56 30.0010000  0  5G16G20G17G 3G23
  -9569722.266 6  -7456912.82825  23111209.847
  -6907562.442 6  -5382502.69924  23281449.686
 -14881901.765 7 -11596278.79428  21453760.472
 -19174170.370 8 -14940900.21729  21122882.828
  -4282220.675 5  -3336792.42024  24035020.308
 92  3 13  8 57  0.0010000  0  5G16G20G17G 3G23
  -9488180.696 6  -7393373.93824  23126725.010
  -6802543.350 6  -5300669.67823  23301438.649
 -14924905.036 7 -11629787.80728  21445575.535
 -19197780.005 8 -14959297.33329  21118387.739
  -4384235.262 5  -3416284.23723  24015608.441
 92  3 13  8 57 30.0010000  0  5G16G20G17G 3G23
  -9406269.248 6  -7329546.86125  23142317.512
  -6697320.086 6  -5218677.58325  23321464.780
 -14967581.975 7 -11663042.54828  21437457.763
 -19221071.132 8 -14977446.26729  21113958.019
  -4486083.422 5  -3495646.37225  23996233.150
 92  3 13  8 58  0.0010000  0  5G16G20G17G 3G23
  -9324002.137 6  -7265442.63725  23157970.567
  -6591919.737 6  -5136547.49024  23341524.207
 -15009970.860 7 -11696072.82229  21429389.742
 -19244058.447 8 -14995358.44929  21109580.143
  -4587770.063 5  -3574882.64326  23976880.650
 92  3 13  8 58 30.0010000  0  5G16G20G17G 3G23
  -9241381.055 6  -7201062.60225  23173691.381
  -6486340.318 6  -5054277.86324  23361611.188
 -15052063.197 7 -11728872.01329  21421379.883
 -19266726.702 8 -15013022.02529  21105270.620
  -4689287.299 5  -3653986.91424  23957561.426
 92  3 13  8 59  0.0010000  0  5G16G20G17G 3G23
  -9158400.990 6  -7136402.82425  23189486.550
  -6380569.560 6  -4971859.14324  23381737.466
 -15093840.986 7 -11761426.11129  21413432.687
 -19289079.162 8 -15030439.53029  21101014.180
  -4790636.210 5  -3732960.04225  23938267.087
 92  3 13  8 59 30.0010000  0  5G16G20G17G 3G23
  -9075067.135 6  -7071467.36726  23205346.180
  -6274598.437 6  -4889284.27325  23401903.601
 -15135298.045 7 -11793730.28229  21405540.652
 -19311117.514 8 -15047612.26629  21096820.683
  -4891806.290 5  -3811793.80724  23919026.407
 92  3 13  9  0  0.0010000  0  5G16G20G17G 3G23
  -8991396.194 6  -7006269.25125  23221264.252
  -6168409.423 6  -4806539.62625  23422112.017
 -15176428.216 7 -11825779.74629  21397712.467
 -19332835.948 8 -15064535.71629  21092688.035
  -4992805.815 5  -3890494.66425  23899804.015
 92  3 13  9  0 30.0010000  0  5G16G20G17G 3G23
  -8907396.458 6  -6940814.96525  23237245.597
  -6061993.484 6  -4723618.16924  23442360.884
 -15217219.035 7 -11857564.77528  21389953.838
 -19354231.699 8 -15081207.73229  21088618.348
  -5093637.618 5  -3969064.83523  23880613.400
 92  3 13  9  1  0.0010000  0  5G16G20G17G 3G23
  -8823069.775 6  -6875105.89025  23253297.983
  -5955340.613 6  -4640512.08422  23462659.535
 -15257688.016 7 -11889099.01628  21382254.872
 -19375309.019 8 -15097631.61429  21084606.822
  -5194290.570 5  -4047495.64924  23861454.561
 92  3 13  9  1 30.0010000  0  5G16G20G17G 3G23
  -8738430.061 6  -6809152.86124  23269404.918
  -5848461.076 6  -4557229.36525  23482995.059
 -15297857.282 7 -11920399.72928  21374610.769
 -19396064.016 8 -15113804.33829  21080655.866
  -5294757.189 5  -4125781.24823  23842331.391
 92  3 13  9  2  0.0010000  0  5G16G20G17G 3G23
  -8653489.265 6  -6742965.26324  23285564.343
  -5741360.258 6  -4473774.22325  23503377.053
 -15337749.511 7 -11951484.55528  21367015.527
 -19416496.746 8 -15129725.94829  21076766.055
  -5395033.907 5  -4203918.89024  23823260.101
 92  3 13  9  2 30.0010000  0  5G16G20G17G 3G23
  -8568218.725 6  -6676520.73425  23301796.308
  -5634038.592 6  -4390147.03223  23523801.905
 -15377345.697 7 -11982338.70728  21359479.947
 -19436592.336 8 -15145384.85029  21072946.395
  -5495091.769 5  -4281886.01023  23804227.183
 92  3 13  9  3  0.0010000  0  5G16G20G17G 3G23
  -8482629.791 6  -6609828.05524  23318080.729
  -5526525.385 6  -4306370.51023  23544255.253
 -15416643.445 7 -12012960.30127  21352002.808
 -19456357.328 8 -15160786.14429  21069182.801
  -5594934.451 5  -4359685.43522  23785224.838
 92  3 13  9  3 30.0010000  0  5G16G20G17G 3G23
  -8396723.918 6  -6542888.43925  23334428.111
  -5418842.033 6  -4222461.43523  23564748.457
 -15455634.560 7 -12043342.95728  21344584.145
 -19475789.189 8 -15175927.86129  21065485.763
  -5694574.192 5  -4437326.73324  23766255.771
 92  3 13  9  4  0.0010000  0  5G16G20G17G 3G23
  -8310485.799 6  -6475689.92424  23350840.843
  -5311000.154 6  -4138428.82924  23585271.955
 -15494314.293 7 -12073482.98528  21337221.252
 -19494888.280 8 -15190810.25829  21061851.686
  -5794015.101 5  -4514813.10523  23747336.768
 92  3 13  9  4 30.0010000  0  5G16G20G17G 3G23
  -8223896.289 6  -6408217.62725  23367315.053
  -5203002.989 6  -4054275.25322  23605824.524
 -15532665.532 8 -12103367.04328  21329924.304
 -19513646.674 8 -15205427.18229  21058281.459
  -5893252.353 5  -4592140.77524  23728448.042
 92  3 13  9  5  0.0010000  0  5G16G20G17G 3G23
  -8136968.105 6  -6340481.39925  23383855.800
  -5094856.523 5  -3970005.33023  23626401.385
 -15570717.073 8 -12133017.57228  21322684.907
 -19532065.756 8 -15219779.71629  21054772.080
  -5992296.957 5  -4669318.34022  23709598.579
 92  3 13  9  5 30.0010000  0  5G16G20G17G 3G23
  -8049707.825 6  -6272486.39024  23400464.289
  -4986557.815 6  -3885616.76623  23647016.915
 -15608490.151 7 -12162451.12028  21315493.183
 -19550145.164 8 -15233867.56329  21051334.963
  -6091144.788 5  -4746342.56323  23690800.105
 92  3 13  9  6  0.0010000  0  5G16G20G17G 3G23
  -7962124.587 6  -6204239.71825  23417125.862
  -4878096.436 5  -3801101.46424  23667650.733
 -15645976.975 7 -12191661.59828  21308360.826
 -19567879.805 8 -15247686.77029  21047963.197
  -6189778.031 5  -4823199.58923  23672024.403
 92  3 13  9  6 30.0010000  0  5G16G20G17G 3G23
  -7874243.436 6  -6135760.94625  23433851.582
  -4769472.652 5  -3716459.59225  23688319.626
 -15683175.307 7 -12220647.29828  21301281.534
 -19585273.224 8 -15261240.08329  21044654.688
  -6288193.314 5  -4899886.78121  23653292.764
 92  3 13  9  7  0.0010000  0  5G16G20G17G 3G23
  -7786084.595 6  -6067065.76523  23450623.178
  -4660682.131 5  -3631687.81624  23709022.390
 -15720079.183 7 -12249403.54028  21294257.996
 -19602326.498 8 -15274528.34429  21041404.934
  -6386397.517 5  -4976409.47723  23634608.798
 92  3 13  9  7 30.0010000  0  5G16G20G17G 3G23
  -7697643.754 6  -5998150.84025  23467456.216
  -4551710.756 5  -3546775.10825  23729760.229
 -15756659.250 7 -12277907.46828  21287300.402
 -19619038.211 8 -15287550.46029  21038224.737
  -6484385.875 5  -5052763.99325  23615968.301
 92  3 13  9  8  0.0010000  0  5G16G20G17G 3G23
  -7608908.757 6  -5929006.71624  23484350.121
  -4442553.136 5  -3461717.28524  23750531.642
 -15792898.776 7 -12306146.04528  21280405.175
 -19635405.086 8 -15300303.87229  21035111.391
  -6582162.991 5  -5128953.91523  23597354.485
 92  3 13  9  8 30.0010000  0  5G16G20G17G 3G23
  -7519864.027 6  -5859621.23725  23501286.901
  -4333211.215 5  -3376515.83524  23771332.441
 -15828787.871 7 -12334111.54428  21273575.003
 -19651414.611 8 -15312778.81929  21032061.006
  -6679724.884 6  -5204976.13324  23578791.345
 92  3 13  9  9  0.0010000  0  5G16G20G17G 3G23
  -7430506.299 6  -5789991.86225  23518295.332
  -4223700.759 6  -3291183.08125  23792176.115
 -15864352.971 7 -12361824.59229  21266808.402
 -19667073.818 8 -15324980.80629  21029084.662
  -6777080.291 6  -5280837.45724  23560268.061
 92  3 13  9  9 30.0010000  0  5G16G20G17G 3G23
  -7340824.121 6  -5720109.66225  23535358.905
  -4114038.995 6  -3205732.37924  23813047.675
 -15899597.217 7 -12389287.62728  21260100.242
 -19682377.402 8 -15336905.68129  21026171.278
  -6874210.542 6  -5356523.32024  23541780.463
 92  3 13  9 10  0.0010000  0  5G16G20G17G 3G23
  -7250824.887 6  -5649980.41125  23552480.954
  -4004252.160 6  -3120184.24324  23833936.912
 -15934536.217 8 -12416512.80429  21253454.448
 -19697321.214 8 -15348550.20628  21023326.247
  -6971101.703 6  -5432022.87024  23523343.837
 92  3 13  9 10 30.0010000  0  5G16G20G17G 3G23
  -7160519.674 6  -5579612.75525  23569669.558
  -3894358.877 6  -3034553.17025  23854851.329
 -15969174.752 7 -12443503.84729  21246861.110
 -19711905.903 8 -15359914.90029  21020551.680
  -7067744.288 6  -5507328.74425  23504955.757
 92  3 13  9 11  0.0010000  0  5G16G20G17G 3G23
  -7069903.526 6  -5509002.81024  23586910.617
  -3784344.066 6  -2948827.37724  23875787.036
 -16003514.161 7 -12470261.80329  21240327.121
 -19726124.855 8 -15370994.60929  21017843.650
  -7164127.635 5  -5582432.59524  23486609.052
 92  3 13  9 11 30.0010000  0  5G16G20G17G 3G23
  -6978995.608 6  -5438165.48925  23604213.450
  -3674212.012 5  -2863010.23223  23896737.436
 -16037548.621 7 -12496782.13629  21233849.513
 -19739980.606 8 -15381791.29929  21015211.180
  -7260258.981 6  -5657340.08824  23468321.712
 92  3 13  9 12  0.0010000  0  5G16G20G17G 3G23
  -6887813.213 6  -5367114.28924  23621557.030
  -3563955.200 5  -2777095.88024  23917718.112
 -16071283.222 7 -12523068.82429  21227426.157
 -19753481.865 8 -15392311.75629  21012640.449
  -7356159.293 6  -5732067.54625  23450079.045
 92  3 13  9 12 30.0010000  0  5G16G20G17G 3G23
  -6796351.350 6  -5295845.33824  23638965.681
  -3453547.312 5  -2691063.80124  23938737.458
 -16104724.539 8 -12549126.97528  21221063.965
 -19766623.211 8 -15402551.77129  21010140.478
  -7451840.853 6  -5806624.55725  23431856.167
 92  3 13  9 13  0.0010000  0  5G16G20G17G 3G23
  -6704620.225 6  -5224366.54924  23656423.804
  -3342977.564 5  -2604905.62124  23959772.997
 -16137888.957 8 -12574969.35729  21214755.729
 -19779406.087 8 -15412512.45029  21007710.972
  -7547308.712 6  -5881015.04225  23413695.341
 92  3 13  9 13 30.0010000  0  5G16G20G17G 3G23
  -6612619.880 6  -5152677.99622  23673926.582
  -3232247.881 5  -2518622.79724  23980849.004
 -16170758.404 8 -12600581.89729  21208502.653
 -19791824.814 8 -15422189.38029  21005347.706
  -7642549.531 6  -5955228.61925  23395574.686
 92  3 13  9 14  0.0010000  0  5G16G20G17G 3G23
  -6520350.408 6  -5080779.71525  23691485.724
  -3121362.614 5  -2432218.73222  24001944.799
 -16203337.330 7 -12625968.05128  21202299.048
 -19803876.952 8 -15431580.66529  21003054.294
  -7737557.089 5  -6029260.44425  23377485.808
 92  3 13  9 14 30.0010000  0  5G16G20G17G 3G23
  -6427818.303 6  -5008676.82925  23709095.227
  -3010339.899 5  -2345707.55523  24023069.980
 -16235629.727 8 -12651130.94529  21196154.809
 -19815562.641 8 -15440686.40029  21000831.032
  -7832321.667 6  -6103102.92426  23359456.592
 92  3 13  9 15  0.0010000  0  5G16G20G17G 3G23
  -6335021.400 6  -4936367.58724  23726744.622
  -2899198.025 5  -2259103.56523  24044225.437
 -16267602.238 8 -12676044.59429  21190071.122
 -19826876.487 8 -15449502.38029  20998677.622
  -7926825.039 6  -6176741.86125  23341476.830
 92  3 13  9 15 30.0010000  0  5G16G20G17G 3G23
  -6241959.811 6  -4863852.09524  23744463.852
  -2787951.557 5  -2172418.06623  24065397.368
 -16299237.930 8 -12700695.74429  21184050.989
 -19837818.355 8 -15458028.53229  20996596.160
  -8021069.623 6  -6250179.16125  23323541.740
 92  3 13  9 16  0.0010000  0  5G16G20G17G 3G23
  -6148636.669 6  -4791132.78924  23762226.847
  -2676612.917 5  -2085660.67922  24086586.103
 -16330551.354 8 -12725095.80429  21178095.910
 -19848389.373 8 -15466265.68029  20994581.550
  -8115068.174 6  -6323424.74125  23305654.325
 92  3 13  9 16 30.0010000  0  5G16G20G17G 3G23
  -6055038.721 6  -4718199.34024  23780030.031
  -2565177.808 5  -1998828.19222  24107785.622
 -16361524.560 8 -12749230.75029  21172195.398
 -19858582.854 8 -15474208.64829  20992642.203
  -8208809.090 6  -6396469.57325  23287816.084
 92  3 13  9 17  0.0010000  0  5G16G20G17G 3G23
  -5961164.405 6  -4645050.52725  23797904.254
  -2453637.405 5  -1911913.61423  24129012.136
 -16392156.051 8 -12773099.42929  21166369.224
 -19868394.409 8 -15481854.01629  20990773.284
  -8302294.015 6  -6469314.92925  23270027.000
 92  3 13  9 17 30.0010000  0  5G16G20G17G 3G23
  -5867034.604 6  -4571702.65723  23815818.351
  -2341995.612 5  -1824920.08623  24150252.437
 -16422472.110 8 -12796722.31929  21160594.633
 -19877833.864 8 -15489209.43629  20988980.833
  -8395537.949 6  -6541972.49624  23252279.588
 92  3 13  9 18  0.0010000  0  5G16G20G17G 3G23
  -5772650.602 6  -4498156.70925  23833772.025
  -2230246.890 5  -1737843.19321  24171522.402
 -16452472.532 8 -12820099.26329  21154891.378
 -19886893.888 8 -15496269.19029  20987252.528
  -8488538.174 6  -6614440.14826  23234584.631
 92  3 13  9 18 30.0010000  0  5G16G20G17G 3G23
  -5678019.858 6  -4424418.53825  23851778.451
  -2118380.694 5  -1650674.77222  24192806.765
 -16482143.637 8 -12843219.58629  21149246.582
 -19895566.118 8 -15503026.78229  20985602.471
  -8581279.899 6  -6686706.39325  23216940.646
 92  3 13  9 19  0.0010000  0  5G16G20G17G 3G23
  -5583159.007 6  -4350500.99823  23869835.255
  -2006412.128 6  -1563426.54922  24214122.014
 -16511502.104 8 -12866096.29929  21143657.556
 -19903855.321 8 -15509485.89929  20984027.658
  -8673767.897 6  -6758774.91726  23199337.739
 92  3 13  9 19 30.0010000  0  5G16G20G17G 3G23
  -5488065.374 6  -4276402.08823  23887924.727
  -1894356.323 5  -1476110.38822  24235443.545
 -16540540.946 8 -12888723.95329  21138131.474
 -19911753.782 8 -15515640.54629  20982524.497
  -8765980.667 6  -6830628.98525  23181791.475
 92  3 13  9 20  0.0010000  0  5G16G20G17G 3G23
  -5392738.731 6  -4202121.62125  23906067.579
  -1782235.704 6  -1388743.75522  24256777.378
 -16569272.122 8 -12911111.86529  21132666.257
 -19919266.382 8 -15521494.52229  20981093.596
  -8857913.481 6  -6902264.91425  23164293.793
 92  3 13  9 20 30.0010000  0  5G16G20G17G 3G23
  -5297176.211 6  -4127657.35625  23924255.679
  -1670063.030 6  -1301336.50723  24278122.607
 -16597713.275 8 -12933273.79129  21127253.811
 -19926394.919 8 -15527049.22529  20979734.329
  -8949554.068 6  -6973673.11325  23146856.366
 92  3 13  9 21  0.0010000  0  5G16G20G17G 3G23
  -5201361.249 5  -4052996.38824  23942484.264
  -1557838.281 5  -1213888.67723  24299476.525
 -16625870.192 8 -12955214.23129  21121895.320
 -19933133.924 8 -15532300.40029  20978453.623
  -9040892.451 6  -7044845.84125  23129473.803
 92  3 13  9 21 30.0010000  0  5G16G20G17G 3G23
  -5105291.174 5  -3978136.63223  23960760.505
  -1445552.073 5  -1126392.96223  24320839.728
 -16653732.192 8 -12976924.87229  21116594.083
 -19939478.720 8 -15537244.40029  20977249.959
  -9131929.184 6  -7115783.50624  23112154.183
 92  3 13  9 22  0.0010000  0  5G16G20G17G 3G23
  -5008959.887 6  -3903073.28824  23979098.223
  -1333183.755 5  -1038833.27522  24342221.828
 -16681296.963 8 -12998403.90429  21111347.710
 -19945424.112 8 -15541877.17829  20976115.834
  -9222676.197 6  -7186495.43725  23094882.550
 92  3 13  9 22 30.0010000  0  5G16G20G17G 3G23
  -4912382.055 6  -3827817.89625  23997476.391
  -1220720.368 5   -951199.49822  24363621.920
 -16708562.742 8 -13019649.94829  21106158.609
 -19950973.632 8 -15546201.48029  20975061.771
  -9313148.808 6  -7256993.53124  23077663.373
 92  3 13  9 23  0.0010000  0  5G16G20G17G 3G23
  -4815569.765 6  -3752379.76525  24015901.343
  -1108156.823 5   -863487.68323  24385049.880
 -16735514.395 8 -13040651.22129  21101032.764
 -19956127.844 8 -15550217.75529  20974079.045
  -9403355.034 5  -7327284.04224  23060498.449
 92  3 13  9 23 30.0010000  0  5G16G20G17G 3G23
  -4718533.183 5  -3676766.85024  24034365.558
   -995496.764 5   -775700.70624  24406493.441
 -16762141.350 8 -13061399.47029  21095964.174
 -19960882.512 8 -15553922.69229  20973173.675
  -9493310.340 5  -7397379.05225  23043383.904
 92  3 13  9 24  0.0010000  0  5G16G20G17G 3G23
  -4621281.931 5  -3600986.67825  24052873.835
   -882748.398 5   -687844.87124  24427939.985
 -16788448.767 8 -13081898.74329  21090954.635
 -19965236.903 8 -15557315.73129  20972348.647
  -9583013.746 6  -7467277.76925  23026311.920
 92  3 13  9 24 30.0010000  0  5G16G20G17G 3G23
  -4523823.203 5  -3525044.82424  24071413.313
   -769921.918 5   -599928.20124  24449412.024
 -16814434.957 8 -13102147.72629  21086013.153
 -19969185.169 8 -15560392.31429  20971594.361
  -9672455.294 6  -7536972.43725  23009292.391
 92  3 13  9 25  0.0010000  0  5G16G20G17G 3G23
  -4426155.475 5  -3448940.15924  24090001.040
   -657033.343 5   -511963.10723  24470894.255
 -16840106.243 8 -13122151.31629  21081127.737
 -19972723.000 8 -15563149.07029  20970925.232
  -9761624.933 6  -7606455.23325  22992328.650
 92  3 13  9 25 30.0010000  0  5G16G20G17G 3G23
  -4328288.586 5  -3372680.26223  24108627.438
   -544102.783 4   -423965.31423  24492377.985
 -16865485.424 8 -13141927.28529  21076298.075
 -19975857.203 8 -15565591.30929  20970327.737
  -9850525.006 6  -7675727.97825  22975408.954
 92  3 13  9 26  0.0010000  0  5G16G20G17G 3G23
  -4230215.646 5  -3296259.77624  24127288.334
   -431125.521 5   -335931.14823  24513887.194
 -16890585.758 8 -13161485.97829  21071520.886
 -19978582.158 8 -15567714.65529  20969806.097
  -9939131.441 6  -7744771.91825  22958543.231
 92  3 13  9 26 30.0010000  0  5G16G20G17G 3G23
  -4131933.946 5  -3219676.63522  24145991.774
   -318107.844 5   -247865.48324  24535399.700
 -16915416.340 8 -13180834.46729  21066794.966
 -19980902.769 8 -15569522.92529  20969365.410
 -10027438.424 6  -7813582.50925  22941747.065
 92  3 13  9 27  0.0010000  0  5G16G20G17G 3G23
  -4033429.669 5  -3142920.10624  24164739.293
   -205044.093 5   -159763.91122  24556905.313
 -16939965.386 8 -13199963.58429  21062123.595
 -19982814.579 8 -15571012.65229  20969004.155
 -10115426.856 6  -7882144.88324  22924999.446
 92  3 13  9 27 30.0010000  0  5G16G20G17G 3G23
  -3934710.470 5  -3065996.03824  24183520.404
    -91930.944 5    -71623.83322  24578430.105
 -16964216.697 8 -13218860.69729  21057510.386
 -19984317.653 8 -15572183.87729  20968713.661
 -10203100.238 6  -7950461.77025  22908311.209
 92  3 13  9 28  0.0010000  0  5G16G20G17G 3G23
  -3835760.154 5  -2988891.94826  24202352.452
     21237.693 5     16559.47622  24599967.495
 -16988139.199 8 -13237501.59029  21052952.947
 -19985402.041 8 -15573028.85429  20968506.807
 -10290450.035 6  -8018526.51025  22891694.012
 92  3 13  9 28 30.0010000  0  5G16G20G17G 3G23
  -3736580.792 5  -2911609.36625  24221218.703
    134448.470 5    104775.61623  24621504.292
 -17011716.861 8 -13255873.78629  21048469.550
 -19986072.396 8 -15573551.21729  20968379.385
 -10377481.481 6  -8086343.17925  22875132.883
 92  3 13  9 29  0.0010000  0  5G16G20G17G 3G23
  -3637189.188 5  -2834161.41124  24240132.610
    247691.771 5    193017.11222  24643055.765
 -17034950.802 8 -13273978.14329  21044047.316
 -19986327.502 8 -15573750.02229  20968331.118
 -10464212.556 6  -8153925.80526  22858624.506
 92  3 13  9 29 30.0010000  0  5G16G20G17G 3G23
  -3537584.110 5  -2756547.08223  24259086.984
    360961.882 5    281279.49523  24664611.443
 -17057838.581 8 -13291812.76529  21039693.120
 -19986163.086 8 -15573621.92729  20968364.709
 -10550654.299 6  -8221282.96525  22842177.885
 92  3 13  9 30  0.0010000  0  5G16G20G17G 3G23
  -3437767.473 5  -2678767.86323  24278083.937
    474248.375 5    369554.64722  24686173.124
 -17080396.024 8 -13309389.98729  21035401.902
 -19985584.030 8 -15573170.72229  20968472.936
 -10636815.100 6  -8288421.20825  22825780.736
 92  3 13  9 30 30.0010000  0  5G16G20G17G 3G23
  -3337754.674 6  -2600835.76924  24297118.652
    587568.482 5    457855.96021  24707734.491
 -17102635.744 8 -13326719.62729  21031169.718
 -19984582.080 8 -15572389.99129  20968665.394
 -10722687.062 6  -8355334.38925  22809445.343
 92  3 13  9 31  0.0010000  0  5G16G20G17G 3G23
  -3237558.811 5  -2522761.10124  24316184.550
    700921.555 5    546182.99622  24729304.862
 -17124565.627 8 -13343807.83729  21026999.605
 -19983155.035 8 -15571278.01129  20968936.099
 -10808265.955 6  -8422019.20725  22793154.919
 92  3 13  9 31 30.0010000  0  5G16G20G17G 3G23
  -3137191.083 5  -2444552.55723  24335284.041
    814295.827 5    634526.56623  24750883.312
 -17146185.205 8 -13360654.24829  21022878.963
 -19981308.999 8 -15569839.54729  20969287.756
 -10893539.702 6  -8488466.25426  22776929.253
 92  3 13  9 32  0.0010000  0  5G16G20G17G 3G23
  -3036673.419 6  -2366227.18124  24354417.995
    927695.137 5    722889.65024  24772458.186
 -17167513.880 8 -13377273.98429  21018822.468
 -19979044.321 8 -15568074.87429  20969719.771
 -10978496.476 6  -8554666.29625  22760762.045
 92  3 13  9 32 30.0010000  0  5G16G20G17G 3G23
  -2936021.323 5  -2287797.02824  24373560.029
   1041111.428 5    811265.93123  24794043.547
 -17188557.306 8 -13393671.45529  21014818.742
 -19976360.016 8 -15565983.21429  20970229.108
 -11063125.317 6  -8620610.80726  22744658.705
 92  3 13  9 33  0.0010000  0  5G16G20G17G 3G23
  -2835220.300 5  -2209250.80324  24392744.955
   1154533.521 5    899646.72524  24815629.204
 -17209301.999 8 -13409836.13729  21010871.974
 -19973247.996 8 -15563558.27429  20970823.602
 -11147421.901 6  -8686296.41426  22728615.306
 92  3 13  9 33 30.0010000  0  5G16G20G17G 3G23
  -2734256.169 6  -2130577.46823  24411962.548
   1267973.338 4    988041.36222  24837201.355
 -17229750.809 8 -13425770.26729  21006978.272
 -19969702.040 8 -15560795.18629  20971498.437
 -11231383.349 6  -8751720.87726  22712639.073
 92  3 13  9 34  0.0010000  0  5G16G20G17G 3G23
  -2633128.498 5  -2051776.71322  24431207.120
   1381427.002 5   1076446.78323  24858799.315
 -17249923.182 8 -13441488.99829  21003139.730
 -19965731.066 8 -15557700.93529  20972251.815
 -11315021.606 6  -8816893.49926  22696725.190
 92  3 13  9 34 30.0010000  0  5G16G20G17G 3G23
  -2531810.975 5  -1972827.95423  24450480.187
   1494886.553 4   1164856.74222  24880383.176
 -17269800.487 8 -13456977.79429  20999357.256
 -19961328.039 8 -15554270.02229  20973092.724
 -11398336.234 6  -8881813.95325  22680867.357
 92  3 13  9 35  0.0010000  0  5G16G20G17G 3G23
  -2430288.218 5  -1893719.44225  24469802.709
   1608354.684 4   1253273.41123  24901974.225
 -17289374.249 8 -13472230.06329  20995635.020
 -19956492.400 8 -15550501.99529  20974015.195
 -11481332.205 6  -8946486.10126  22665069.500
 92  3 13  9 35 30.0010000  0  5G16G20G17G 3G23
  -2328563.042 5  -1814453.13024  24489154.616
   1721825.887 4   1341692.48223  24923575.763
 -17308647.964 8 -13487248.53729  20991963.773
 -19951225.561 8 -15546397.97429  20975013.504
 -11564007.855 6  -9010908.65026  22649334.587
 92  3 13  9 36  0.0010000  0  5G16G20G17G 3G23
  -2226646.299 6  -1735037.51222  24508555.681
   1835287.313 4   1430103.95222  24945168.627
 -17327610.183 8 -13502024.28129  20988361.752
 -19945523.109 8 -15541954.50729  20976096.343
 -11646366.288 6  -9075084.02126  22633668.043
 92  3 13  9 36 30.0010000  0  5G16G20G17G 3G23
  -2124555.092 5  -1655485.91322  24527980.740
   1948725.812 4   1518497.53423  24966754.267
 -17346259.551 8 -13516556.24229  20984811.016
 -19939389.279 8 -15537174.91029  20977266.746
 -11728411.781 6  -9139015.54525  22618060.237
 92  3 13  9 37  0.0010000  0  5G16G20G17G 3G23
  -2022321.927 5  -1575823.61621  24547435.167
   2062144.144 4   1606875.38623  24988331.531
 -17364605.798 8 -13530852.01429  20981316.942
 -19932830.674 8 -15532064.31529  20978513.878
 -11810149.371 6  -9202707.13626  22602505.514
 92  3 13  9 37 30.0010000  0  5G16G20G17G 3G23
  -1919967.145 5  -1496066.70523  24566915.980
   2175539.250 4   1695235.17822  25009916.002
 -17382651.671 8 -13544913.72329  20977881.919
 -19925846.867 8 -15526622.40429  20979842.555
 -11891573.997 6  -9266154.85926  22587008.639
 92  3 13  9 38  0.0010000  0  5G16G20G17G 3G23
  -1817487.711 5  -1416212.63024  24586416.284
   2288916.182 4   1783580.82623  25031492.062
 -17400397.225 8 -13558741.41729  20974509.245
 -19918435.145 8 -15520847.03229  20981249.479
 -11972668.318 6  -9329345.20626  22571572.019
 92  3 13  9 38 30.0010000  0  5G16G20G17G 3G23
  -1714862.918 5  -1336245.30922  24605940.862
   2402279.285 4   1871915.63022  25053063.027
 -17417839.021 8 -13572332.42029  20971190.545
 -19910588.467 8 -15514732.75029  20982746.952
 -12053415.252 6  -9392264.86626  22556213.367
 92  3 13  9 39  0.0010000  0  5G16G20G17G 3G23
  -1612081.369 5  -1256155.82522  24625499.327
   2515624.267 4   1960236.33022  25074636.696
 -17434980.229 8 -13585689.19029  20967927.006
 -19902299.409 8 -15508273.75729  20984323.248
 -12133810.307 6  -9454910.33826  22540911.952
 92  3 13  9 39 30.0010000  0  5G16G20G17G 3G23
  -1509130.003 5  -1175933.98723  24645091.350
   2628925.793 4   2048523.14424  25096186.371
 -17451824.159 7 -13598814.32129  20964720.720
 -19893567.900 8 -15501469.99029  20985983.810
 -12213843.373 6  -9517273.73725  22525682.797
 92  3 13  9 40  0.0010000  0  5G16G20G17G 3G23
  -1406010.471 5  -1095581.18923  24664719.076
   2742169.120 4   2136764.64222  25117737.251
 -17468384.662 8 -13611718.59329  20961568.705
 -19884400.357 8 -15494326.45829  20987727.401
 -12293529.304 6  -9579366.64327  22510518.087
 92  3 13  9 40 30.0010000  0  5G16G20G17G 3G23
  -1302744.853 4  -1015114.52924  24684359.069
   2855346.228 4   2224954.60122  25139268.045
 -17484658.342 7 -13624399.38429  20958470.052
 -19874800.241 8 -15486845.84629  20989556.725
 -12372895.659 6  -9641210.53026  22495416.040
 92  3 13  9 41  0.0010000  0  5G16G20G17G 3G23
  -1199355.599 5   -934551.47223  24704039.547
   2968461.566 4   2313096.34823  25160807.529
 -17500645.519 8 -13636856.91929  20955429.264
 -19864771.743 8 -15479031.44629  20991467.314
 -12451954.168 6  -9702814.52826  22480370.061
 92  3 13  9 41 30.0010000  0  5G16G20G17G 3G23
  -1095844.067 5   -853893.14323  24723739.219
   3081530.860 4   2401202.23323  25182317.645
 -17516329.572 8 -13649078.24829  20952445.120
 -19854310.308 8 -15470879.68329  20993453.428
 -12530705.242 7  -9764178.96827  22465385.245
 92  3 13  9 42  0.0010000  0  5G16G20G17G 3G23
   -992213.013 5   -773141.68822  24743452.067
   3194580.952 5   2489293.14822  25203838.248
 -17531698.551 8 -13661054.07229  20949523.343
 -19843406.345 7 -15462383.10229  20995529.498
 -12609161.693 7  -9825313.83326  22450455.572
 92  3 13  9 42 30.0010000  0  5G16G20G17G 3G23
   -888479.304 4   -692310.27925  24763192.801
   3307606.132 5   2577364.70723  25225347.456
 -17546752.771 8 -13672784.62729  20946654.928
 -19832065.202 8 -15453545.86029  20997689.504
 -12687317.406 7  -9886214.35125  22435581.076
 92  3 13  9 43  0.0010000  0  5G16G20G17G 3G23
   -784622.516 4   -611383.03226  24782966.812
   3420607.968 5   2665418.06622  25246850.365
 -17561495.312 8 -13684272.30629  20943849.178
 -19820277.131 8 -15444360.36229  20999934.352
 -12765150.812 7  -9946863.73426  22420770.727
 92  3 13  9 43 30.0010000  0  5G16G20G17G 3G23
   -680643.325 5   -530360.37822  24802754.608
   3533570.497 4   2753440.79421  25268340.988
 -17575946.124 8 -13695532.66529  20941097.680
 -19808045.997 8 -15434829.60729  21002260.135
 -12842659.909 7 -10007260.40226  22406021.227
 92  3 13  9 44  0.0010000  0  5G16G20G17G 3G23
   -576536.424 5   -449238.13822  24822558.598
   3646488.253 5   2841428.60123  25289825.627
 -17590114.230 8 -13706572.74929  20938404.937
 -19795362.734 8 -15424946.56529  21004673.168
 -12919822.620 7 -10067387.16026  22391341.005
 92  3 13  9 44 30.0010000  0  5G16G20G17G 3G23
   -472299.859 5   -368014.73821  24842388.380
   3759350.423 5   2929373.15622  25311308.747
 -17604011.179 8 -13717401.53129  20935761.072
 -19782229.708 8 -15414713.05428  21007173.435
 -12996616.947 7 -10127226.87227  22376724.615
 92  3 13  9 45  0.0010000  0  4G16G17G 3G23
   -367930.674 5   -286688.09823  24862255.924
 -17617642.811 8 -13728023.57929  20933166.364
 -19768650.149 8 -15404131.58429  21009753.747
 -13073056.965 7 -10186790.49226  22362182.581
 92  3 13  9 45 30.0010000  0  4G16G17G 3G23
   -263449.829 5   -205274.49824  24882135.160
 -17630996.104 7 -13738428.73429  20930622.925
 -19754625.625 8 -15393203.40129  21012426.998
 -13149142.827 7 -10246078.14126  22347700.802
 92  3 13  9 46  0.0010000  0  4G16G17G 3G23
   -158861.603 4   -123777.33024  24902041.374
 -17644053.297 8 -13748603.16529  20928140.055
 -19740151.728 7 -15381925.05429  21015173.994
 -13224869.835 7 -10305086.16727  22333291.582
 92  3 13  9 46 30.0010000  0  4G16G17G 3G23
    -54166.360 3    -42196.86324  24921953.590
 -17656787.400 8 -13758525.83929  20925714.126
 -19725215.409 8 -15370286.37029  21018020.822
 -13300238.137 7 -10363814.68527  22318950.120
 92  3 13  9 47  0.0010000  0  3G17G 3G23
 -17669199.332 8 -13768197.46829  20923355.659
 -19709823.666 8 -15358292.81529  21020952.197
 -13375266.061 7 -10422277.96727  22304668.897
 92  3 13  9 47 30.0010000  0  4G16G17G 3G23
     80390.49415     62652.91422  24961860.755
 -17681301.566 8 -13777627.78129  20921048.461
 -19693978.291 8 -15345945.76929  21023966.617
 -13449950.741 7 -10480473.78027  22290456.934
 92  3 13  9 48  0.0010000  0  4G16G17G 3G23
    185328.938 6    144423.08622  24981826.334
 -17693113.607 8 -13786831.96629  20918804.206
 -19677677.243 8 -15333243.67829  21027070.662
 -13524294.136 7 -10538403.67627  22276316.621
 92  3 13  9 48 30.0010000  0  4G16G17G 3G23
    290345.836 5    226254.41221  25001811.702
 -17704642.991 8 -13795815.90029  20916609.440
 -19660918.579 8 -15320184.98129  21030253.564
 -13598290.062 7 -10596062.81027  22262229.077
 92  3 13  9 49  0.0010000  0  4G16G17G 3G23
    395457.535 4    308159.68423  25021817.452
 -17715890.997 8 -13804580.58029  20914470.707
 -19643694.676 8 -15306763.78329  21033535.095
 -13671921.340 7 -10653437.80827  22248217.373
 92  3 13  9 49 30.0010000  0  4G16G17G 3G23
    500675.003 3    390147.30324  25041833.707
 -17726857.576 8 -13813125.95929  20912385.650
 -19626006.470 8 -15292980.77129  21036897.264
 -13745184.116 7 -10710525.65728  22234274.038
 92  3 13  9 50  0.0010000  0  3G17G 3G23
 -17737526.200 8 -13821439.17129  20910353.363
 -19607859.522 8 -15278840.31129  21040358.671
 -13818077.280 7 -10767325.49228  22220405.635
 92  3 13  9 50 30.0010000  0  4G16G17G 3G23
     59762.00415     46578.98523  25081943.538
 -17747879.476 8 -13829506.66329  20908383.722
 -19589243.841 7 -15264334.60129  21043895.307
 -13890592.990 7 -10823831.21627  22206607.084
 92  3 13  9 51  0.0010000  0  4G16G17G 3G23
    165335.257 5    128843.82123  25102031.426
 -17757917.464 8 -13837328.47529  20906474.057
 -19570162.226 8 -15249465.81729  21047530.606
 -13962748.465 7 -10880056.23228  22192873.885
 92  3 13  9 51 30.0010000  0  4G16G17G 3G23
    271029.892 5    211203.32922  25122153.203
 -17767630.476 8 -13844897.04629  20904624.334
 -19550606.013 8 -15234227.23829  21051246.229
 -14034539.145 7 -10935996.98527  22179214.745
 92  3 13  9 52  0.0010000  0  4G16G17G 3G23
    376826.260 4    293642.06823  25142290.248
 -17777037.590 8 -13852227.27029  20902835.460
 -19530578.975 8 -15218621.75729  21055059.887
 -14105970.407 7 -10991657.69427  22165622.159
 92  3 13  9 52 30.0010000  0  4G16G17G 3G23
    482721.566 4    376157.80822  25162433.313
 -17786153.355 8 -13859330.46229  20901100.873
 -19510074.660 8 -15202644.39829  21058960.185
 -14177035.742 7 -11047033.25728  22152099.427
 92  3 13  9 53  0.0010000  0  4G16G17G 3G23
    588708.330 4    458744.81123  25182608.435
 -17794986.386 8 -13866213.33829  20899422.023
 -19489100.265 8 -15186300.72429  21062955.220
 -14247730.095 7 -11102119.73128  22138645.937
 92  3 13  9 53 30.0010000  0  4G16G17G 3G23
    694767.534 5    541388.33622  25202786.576
 -17803556.741 8 -13872891.53429  20897788.159
 -19467670.331 8 -15169602.08929  21067029.392
 -14318052.639 7 -11156916.50028  22125263.802
 92  3 13  9 54  0.0010000  0  4G16G17G 3G23
    800908.914 5    624095.93122  25222982.096
 -17811848.698 8 -13879352.79729  20896212.457
 -19445773.386 8 -15152539.54429  21071196.208
 -14387990.856 7 -11211413.79028  22111957.208
 92  3 13  9 54 30.0010000  0  4G16G17G 3G23
    907135.034 4    706869.55923  25243186.011
 -17819830.806 8 -13885572.61729  20894691.304
 -19423399.937 8 -15135105.69029  21075452.961
 -14457535.318 7 -11265604.25128  22098718.373
 92  3 13  9 55  0.0010000  0  3G17G 3G23
 -17827494.196 7 -13891544.09329  20893232.221
 -19400557.689 8 -15117306.57629  21079802.655
 -14526696.743 7 -11319496.25428  22085558.082
 92  3 13  9 55 30.0010000  0  3G17G 3G23
 -17834828.256 8 -13897258.94429  20891836.989
 -19377243.126 8 -15099139.38429  21084237.488
 -14595479.906 7 -11373093.49828  22072468.255
 92  3 13  9 56  0.0010000  0  3G17G 3G23
 -17841828.767 8 -13902713.88329  20890506.200
 -19353455.039 8 -15080603.24629  21088762.557
 -14663886.981 7 -11426397.68129  22059455.157
 92  3 13  9 56 30.0010000  0  3G17G 3G23
 -17848517.639 8 -13907925.99529  20889232.684
 -19329194.011 7 -15061698.55929  21093377.563
 -14731915.347 7 -11479406.77429  22046510.114
 92  3 13  9 57  0.0010000  0  3G17G 3G23
 -17854919.668 8 -13912914.59029  20888014.623
 -19304457.942 8 -15042423.71829  21098090.588
 -14799566.769 7 -11532122.14828  22033635.535
 92  3 13  9 57 30.0010000  0  3G17G 3G23
 -17861056.113 8 -13917696.23429  20886846.035
 -19279245.226 8 -15022777.46929  21102888.473
 -14866840.727 7 -11584543.38528  22020831.700
 92  3 13  9 58  0.0010000  0  3G17G 3G23
 -17866933.973 8 -13922276.38029  20885727.807
 -19253551.616 7 -15002756.48329  21107774.185
 -14933738.417 7 -11636671.42828  22008099.812
 92  3 13  9 58 30.0010000  0  3G17G 3G23
 -17872548.056 8 -13926650.98829  20884659.051
 -19227378.329 8 -14982361.74829  21112759.433
 -15000268.392 7 -11688512.94429  21995443.779
 92  3 13  9 59  0.0010000  0  3G17G 3G23
 -17877882.038 8 -13930807.34429  20883642.751
 -19200727.279 8 -14961594.69229  21117828.931
 -15066443.866 7 -11740078.23228  21982850.393
 92  3 13  9 59 30.0010000  0  3G17G 3G23
 -17882919.676 8 -13934732.78129  20882686.112
 -19173596.066 8 -14940453.51229  21122990.757
 -15132257.454 7 -11791361.52329  21970326.267
 92  3 13 10  0  0.0010000  0  3G17G 3G23
 -17887646.742 8 -13938416.20929  20881783.447
 -19145977.966 8 -14918932.92729  21128248.525
 -15197697.683 7 -11842353.88628  21957870.477
 92  3 13 10  0 30.0010000  0  3G17G 3G23
 -17892063.795 8 -13941858.07029  20880946.116
 -19117872.193 8 -14897032.33329  21133595.918
 -15262743.832 7 -11893039.17228  21945495.044
 92  3 13 10  1  0.0010000  0  3G17G 3G23
 -17896173.485 8 -13945060.42629  20880158.274
 -19089274.378 8 -14874748.34829  21139034.453
 -15327380.694 7 -11943405.53528  21933193.373
 92  3 13 10  1 30.0010000  0  3G17G 3G23
 -17899988.821 8 -13948033.41029  20879437.562
 -19060189.877 8 -14852085.13429  21144573.117
 -15391589.588 7 -11993438.41728  21920976.528
 92  3 13 10  2  0.0010000  0  3G17G 3G23
 -17903501.373 8 -13950770.46529  20878768.730
 -19030615.398 8 -14829040.09329  21150200.219
 -15455364.112 7 -12043132.82428  21908840.617
 92  3 13 10  2 30.0010000  0  3G17G 3G23
 -17906703.672 8 -13953265.77129  20878162.248
 -19000552.256 7 -14805614.27928  21155914.258
 -15518708.011 7 -12092491.68728  21896788.066
 92  3 13 10  3  0.0010000  0  3G17G 3G23
 -17909600.019 8 -13955522.65629  20877609.739
 -18969999.452 8 -14781806.93229  21161732.335
 -15581632.979 7 -12141524.11129  21884811.667
 92  3 13 10  3 30.0010000  0  3G17G 3G23
 -17912201.539 8 -13957549.81429  20877112.984
 -18938965.980 8 -14757625.02729  21167644.538
 -15644155.877 7 -12190243.22029  21872908.699
 92  3 13 10  4  0.0010000  0  3G17G 3G23
 -17914506.355 8 -13959345.77429  20876673.483
 -18907457.674 7 -14733073.10329  21173635.006
 -15706302.814 7 -12238669.37929  21861086.980
 92  3 13 10  4 30.0010000  0  3G17G 3G23
 -17916510.308 8 -13960907.29029  20876293.347
 -18875459.143 8 -14708139.22929  21179724.678
 -15768061.952 7 -12286793.36128  21849334.816
 92  3 13 10  5  0.0010000  0  4G16G17G 3G23
    447055.27714    348365.27122  25670203.484
 -17918214.309 8 -13962235.08829  20875969.558
 -18842968.934 8 -14682822.19929  21185908.809
 -15829443.655 7 -12334623.23428  21837657.602
 92  3 13 10  5 30.0010000  0  3G17G 3G23
 -17919618.509 8 -13963329.27229  20875703.355
 -18809997.266 8 -14657130.00229  21192184.954
 -15890461.275 7 -12382169.41828  21826046.646
 92  3 13 10  6  0.0010000  0  3G17G 3G23
 -17920724.386 8 -13964190.99229  20875491.091
 -18776544.909 8 -14631063.25329  21198547.146
 -15951102.433 7 -12429422.24629  21814505.229
 92  3 13 10  6 30.0010000  0  3G17G 3G23
 -17921555.451 8 -13964838.57429  20875331.910
 -18742618.794 8 -14604627.34029  21205004.076
 -16011369.870 7 -12476383.85428  21803033.979
 92  3 13 10  7  0.0010000  0  3G17G 3G23
 -17922118.594 8 -13965277.38829  20875228.779
 -18708217.137 8 -14577820.89429  21211546.756
 -16071257.606 7 -12523049.60629  21791640.365
 92  3 13 10  7 30.0010000  0  3G17G 3G23
 -17922407.212 8 -13965502.28429  20875170.914
 -18673324.174 8 -14550631.59328  21218190.158
 -16130721.106 7 -12569384.77728  21780323.795
 92  3 13 10  8  0.0010000  0  3G17G 3G23
 -17922432.327 8 -13965521.88929  20875167.616
 -18637947.391 8 -14523065.28428  21224923.796
 -16189769.195 7 -12615396.25129  21769089.379
 92  3 13 10  8 30.0010000  0  3G17G 3G23
 -17922201.248 8 -13965341.80629  20875210.491
 -18602087.697 8 -14495122.68628  21231746.168
 -16248421.536 7 -12661099.36129  21757927.505
 92  3 13 10  9  0.0010000  0  3G17G 3G23
 -17921705.890 8 -13964955.81429  20875302.524
 -18565743.392 7 -14466802.47029  21238659.089
 -16306681.035 7 -12706496.34729  21746839.968
 92  3 13 10  9 30.0010000  0  3G17G 3G23
 -17920932.714 8 -13964353.34429  20875453.032
 -18528908.887 8 -14438100.28728  21245671.232
 -16364557.128 7 -12751594.57829  21735826.804
 92  3 13 10 10  0.0010000  0  3G17G 3G23
 -17919872.619 8 -13963527.29629  20875656.589
 -18491580.613 7 -14409013.33928  21252770.906
 -16422064.978 7 -12796405.86929  21724882.272
 92  3 13 10 10 30.0010000  0  3G17G 3G23
 -17918523.744 8 -13962476.23129  20875909.303
 -18453758.418 7 -14379541.51428  21259971.319
 -16479190.810 7 -12840919.48929  21714009.407
 92  3 13 10 11  0.0010000  0  3G17G 3G23
 -17916869.789 8 -13961187.43229  20876226.181
 -18415445.252 8 -14349687.12128  21267261.689
 -16535912.066 7 -12885117.85429  21703219.275
 92  3 13 10 11 30.0010000  0  3G17G 3G23
 -17914889.744 8 -13959644.54929  20876601.535
 -18376638.433 8 -14319448.07329  21274648.872
 -16592215.155 7 -12928990.37329  21692500.792
 92  3 13 10 12  0.0010000  0  3G17G 3G23
 -17912577.962 8 -13957843.16029  20877039.833
 -18337344.219 8 -14288829.24128  21282126.290
 -16648090.576 7 -12972529.63729  21681868.061
 92  3 13 10 12 30.0010000  0  3G17G 3G23
 -17909927.296 8 -13955777.70529  20877547.372
 -18297551.782 8 -14257822.17727  21289694.851
 -16703524.606 7 -13015724.96428  21671322.859
 92  3 13 10 13  0.0010000  0  3G17G 3G23
 -17906950.664 8 -13953458.25529  20878114.277
 -18257264.780 8 -14226429.73129  21297364.745
 -16758530.289 7 -13058586.51829  21660855.294
 92  3 13 10 13 30.0010000  0  3G17G 3G23
 -17903676.515 8 -13950906.96629  20878734.859
 -18216487.552 8 -14194655.28128  21305121.577
 -16813124.280 7 -13101127.26729  21650465.103
 92  3 13 10 14  0.0010000  0  3G17G 3G23
 -17900144.038 8 -13948154.38529  20879409.083
 -18175224.068 8 -14162501.95628  21312974.035
 -16867304.595 7 -13143345.66429  21640158.236
 92  3 13 10 14 30.0010000  0  3G17G 3G23
 -17896362.877 8 -13945208.03729  20880127.387
 -18133461.711 8 -14129959.88528  21320922.435
 -16921059.411 7 -13185232.52129  21629925.411
 92  3 13 10 15  0.0010000  0  3G17G 3G23
 -17892323.032 8 -13942060.11629  20880894.254
 -18091196.169 8 -14097025.73128  21328964.071
 -16974383.905 7 -13226784.04928  21619776.539
 92  3 13 10 15 30.0010000  0  3G17G 3G23
 -17888011.318 8 -13938700.33929  20881718.079
 -18048427.976 7 -14063699.88627  21337102.835
 -17027275.918 7 -13267998.58429  21609715.808
 92  3 13 10 16  0.0010000  0  4G17G 3G21G23
 -17883409.307 8 -13935114.36829  20882591.986
 -18005152.158 8 -14029978.49729  21345341.728
   -215163.299 5   -167660.21022  24328096.209
 -17079738.433 7 -13308878.44629  21599731.823
 92  3 13 10 16 30.0010000  0  4G17G 3G21G23
 -17878500.363 8 -13931289.21429  20883526.131
 -17961379.150 8 -13995869.69728  21353671.154
   -314161.867 5   -244801.89522  24309250.951
 -17131800.598 7 -13349446.34829  21589824.270
 92  3 13 10 17  0.0010000  0  4G17G 3G21G23
 -17873276.249 8 -13927218.48629  20884523.847
 -17917107.238 8 -13961372.11427  21362091.739
   -412977.793 5   -321801.27823  24290453.070
 -17183468.532 7 -13389707.05729  21579993.183
 92  3 13 10 17 30.0010000  0  4G17G 3G21G23
 -17867746.194 8 -13922909.35629  20885571.314
 -17872338.330 8 -13926487.27928  21370613.640
   -511624.422 5   -398668.72622  24271672.570
 -17234748.262 7 -13429665.27429  21570230.136
 92  3 13 10 18  0.0010000  0  4G17G 3G21G23
 -17861928.690 8 -13918376.23529  20886681.148
 -17827076.337 8 -13891218.20328  21379225.776
   -610124.351 5   -475421.89322  24252937.632
 -17285643.659 7 -13469324.00829  21560549.540
 92  3 13 10 18 30.0010000  0  4G17G 3G21G23
 -17855831.678 8 -13913625.31629  20887842.250
 -17781322.324 8 -13855565.75728  21387933.539
   -708485.244 5   -552066.68724  24234211.996
 -17336142.583 7 -13508673.80229  21550938.204
 92  3 13 10 19  0.0010000  0  4G17G 3G21G23
 -17849453.813 8 -13908655.55229  20889052.213
 -17735070.438 8 -13819525.34827  21396734.853
   -806691.817 5   -628591.23722  24215522.935
 -17386224.330 7 -13547698.51229  21541408.990
 92  3 13 10 19 30.0010000  0  4G17G 3G21G23
 -17842790.043 8 -13903463.01129  20890322.136
 -17688321.883 7 -13783097.93028  21405629.683
   -904735.307 5   -704988.74622  24196867.465
 -17435873.247 7 -13586385.95428  21531964.932
 92  3 13 10 20  0.0010000  0  4G17G 3G21G23
 -17835838.059 8 -13898045.88429  20891647.514
 -17641080.449 8 -13746286.45828  21414620.471
  -1002618.618 5   -781261.41322  24178242.848
 -17485083.577 7 -13624731.65228  21522597.009
 92  3 13 10 20 30.0010000  0  4G17G 3G21G23
 -17828587.778 8 -13892396.32529  20893026.553
 -17593344.002 8 -13709089.25628  21423705.369
  -1100318.777 5   -857391.38923  24159649.431
 -17533848.892 7 -13662730.58529  21513318.432
 92  3 13 10 21  0.0010000  0  4G17G 3G21G23
 -17821032.588 8 -13886509.15829  20894459.268
 -17545108.638 8 -13671503.29328  21432883.224
  -1197817.574 5   -933364.43723  24141098.262
 -17582168.056 7 -13700381.86528  21504118.415
 92  3 13 10 21 30.0010000  0  4G17G 3G21G23
 -17813186.459 8 -13880395.30829  20895956.427
 -17496377.614 8 -13633531.10028  21442155.205
  -1295120.969 5  -1009185.23022  24122574.681
 -17630050.140 7 -13737692.56228  21495013.118
 92  3 13 10 22  0.0010000  0  4G17G 3G21G23
 -17805059.201 8 -13874062.37829  20897503.668
 -17447147.336 8 -13595169.86927  21451523.721
  -1392220.306 5  -1084847.01223  24104100.275
 -17677504.848 7 -13774670.24429  21485977.972
 92  3 13 10 22 30.0010000  0  4G17G 3G21G23
 -17796664.332 8 -13867520.92529  20899101.549
 -17397425.906 8 -13556425.92727  21460985.770
  -1489112.251 5  -1160347.18922  24085667.837
 -17724543.330 7 -13811323.58329  21477030.355
 92  3 13 10 23  0.0010000  0  4G17G 3G21G23
 -17787995.886 8 -13860766.29429  20900746.808
 -17347210.770 8 -13517297.26128  21470542.259
  -1585807.731 5  -1235694.29522  24067264.174
 -17771172.631 7 -13847658.09529  21468155.907
 92  3 13 10 23 30.0010000  0  4G17G 3G21G23
 -17779046.787 8 -13853792.97029  20902454.434
 -17296499.334 8 -13477781.90228  21480191.375
  -1682316.480 5  -1310895.88624  24048894.400
 -17817398.240 7 -13883678.03629  21459358.188
 92  3 13 10 24  0.0020000  0  4G17G 3G21G23
 -17769796.411 8 -13846584.89029  20904211.517
 -17245284.500 8 -13437874.25828  21489936.435
  -1778633.054 5  -1385947.72324  24030570.174
 -17863215.509 7 -13919379.77629  21450639.033
 92  3 13 10 24 30.0020000  0  4G17G 3G21G23
 -17760233.049 8 -13839132.91729  20906034.559
 -17193579.584 8 -13397584.74328  21499779.212
  -1874775.948 5  -1460864.22522  24012274.755
 -17908627.011 7 -13954765.35029  21441998.714
 92  3 13 10 25  0.0020000  0  4G17G 3G21G23
 -17750355.993 8 -13831436.51529  20907910.946
 -17141387.751 8 -13356915.80227  21509708.631
  -1970758.565 5  -1535655.82722  23994013.189
 -17953635.877 7 -13989837.18128  21433432.752
 92  3 13 10 25 30.0020000  0  4G17G 3G21G23
 -17740175.045 8 -13823503.30729  20909847.013
 -17088702.513 8 -13315862.40228  21519733.990
  -2066564.771 5  -1610310.01922  23975767.817
 -17998221.155 7 -14024578.93628  21424948.613
 92  3 13 10 26  0.0020000  0  4G17G 3G21G23
 -17729700.802 8 -13815341.56529  20911841.538
 -17035523.790 8 -13274424.47027  21529853.493
  -2162192.599 5  -1684825.18122  23957575.808
 -18042367.183 7 -14058978.42729  21416548.724
 92  3 13 10 26 30.0020000  0  4G17G 3G21G23
 -17718954.680 8 -13806967.97129  20913889.112
 -16981860.675 8 -13232609.07027  21540065.919
  -2257656.945 5  -1759212.94822  23939421.876
 -18086077.834 7 -14093038.64729  21408226.488
 92  3 13 10 27  0.0020000  0  4G17G 3G21G23
 -17707960.746 8 -13798401.26729  20915978.670
 -16927713.346 8 -13190416.38426  21550370.081
  -2352954.152 5  -1833470.49123  23921281.450
 -18129355.447 7 -14126761.44329  21399992.987
 92  3 13 10 27 30.0020000  0  4G17G 3G21G23
 -17696736.197 8 -13789654.86729  20918114.699
 -16873096.340 7 -13147857.69428  21560765.088
  -2448097.728 5  -1907608.33422  23903169.485
 -18172221.200 7 -14160163.31129  21391837.139
 92  3 13 10 28  0.0020000  0  4G17G 3G21G23
 -17685238.523 8 -13780695.64629  20920303.183
 -16817989.838 7 -13104917.60328  21571252.739
  -2543074.601 5  -1981616.24222  23885103.082
 -18214662.328 7 -14193234.29929  21383764.930
 92  3 13 10 28 30.0020000  0  4G17G 3G21G23
 -17673468.114 8 -13771523.89629  20922543.233
 -16762396.059 7 -13061597.82627  21581829.107
  -2637880.667 5  -2055491.10023  23867062.471
 -18256692.615 7 -14225985.14929  21375762.574
 92  3 13 10 29  0.0020000  0  4G17G 3G21G23
 -17661435.549 8 -13762147.87129  20924828.234
 -16706319.198 7 -13017901.59727  21592500.229
  -2732508.358 5  -2129226.94123  23849056.342
 -18298317.479 7 -14258420.09429  21367841.746
 92  3 13 10 29 30.0020000  0  4G17G 3G21G23
 -17649115.655 8 -13752547.97029  20927178.307
 -16649753.150 8 -12973824.18527  21603268.165
  -2826935.745 5  -2202806.70724  23831079.285
 -18339536.096 7 -14290538.47629  21360001.572
 92  3 13 10 30  0.0020000  0  4G17G 3G21G23
 -17636515.382 8 -13742729.56729  20929570.052
 -16592705.842 7 -12929371.76828  21614119.461
  -2921162.720 5  -2276230.27522  23813157.702
 -18380346.261 7 -14322338.59129  21352236.051
 92  3 13 10 30 30.0020000  0  4G17G 3G21G23
 -17623650.289 8 -13732704.82729  20932025.053
 -16535171.785 7 -12884540.07826  21625067.570
  -3015166.808 5  -2349480.20523  23795268.785
 -18420741.026 7 -14353815.02629  21344544.885
 92  3 13 10 31  0.0020000  0  4G17G 3G21G23
 -17610498.944 8 -13722457.02929  20934528.322
 -16477151.468 7 -12839329.48027  21636109.527
  -3108939.916 5  -2422550.11723  23777423.634
 -18460712.845 7 -14384961.87829  21336940.342
 92  3 13 10 31 30.0020000  0  4G17G 3G21G23
 -17597055.697 8 -13711981.77029  20937081.062
 -16418650.596 7 -12793744.41327  21647241.422
  -3202489.334 5  -2495445.75323  23759612.965
 -18500269.062 7 -14415784.88229  21329409.264
 92  3 13 10 32  0.0020000  0  4G17G 3G21G23
 -17583326.408 8 -13701283.62729  20939700.043
 -16359663.983 7 -12747780.84027  21658465.350
  -3295819.894 5  -2568170.82423  23741859.846
 -18539392.532 7 -14446270.68929  21321969.905
 92  3 13 10 32 30.0020000  0  4G17G 3G21G23
 -17569301.595 8 -13690355.20729  20942365.197
 -16300186.667 7 -12701434.91727  21669783.422
  -3388930.259 5  -2640724.32424  23724141.523
 -18578091.104 7 -14476425.39729  21314602.510
 92  3 13 10 33  0.0020000  0  4G17G 3G21G23
 -17554975.995 8 -13679192.40029  20945089.717
 -16240216.748 7 -12654705.16127  21681195.026
  -3481835.914 5  -2713118.29423  23706461.556
 -18616365.655 7 -14506249.70729  21307321.145
 92  3 13 10 33 30.0020000  0  4G17G 3G21G23
 -17540379.464 8 -13667818.48729  20947871.491
 -16179763.000 7 -12607598.37226  21692698.664
  -3574552.688 5  -2785365.09425  23688817.868
 -18654223.680 7 -14535749.45029  21300116.229
 92  3 13 10 34  0.0020000  0  4G17G 3G21G23
 -17525513.667 8 -13656234.74229  20950694.640
 -16118827.151 7 -12560115.91727  21704296.427
  -3667078.095 5  -2857462.79424  23671215.257
 -18691664.587 7 -14564924.16629  21292989.264
 92  3 13 10 34 30.0020000  0  4G17G 3G21G23
 -17510376.285 8 -13644439.38629  20953582.529
 -16057405.701 7 -12512255.07627  21715983.240
  -3759396.586 5  -2929399.23823  23653645.924
 -18728684.569 7 -14593770.89829  21285948.048
 92  3 13 10 35  0.0020000  0  4G17G 3G21G23
 -17494959.039 8 -13632425.95429  20956515.107
 -15995491.086 7 -12464009.96027  21727769.570
  -3851497.831 5  -3001166.42022  23636120.653
 -18765259.825 7 -14622271.07929  21278985.970
 92  3 13 10 35 30.0020000  0  4G17G 3G21G23
 -17479258.166 8 -13620191.50829  20959499.234
 -15933087.914 7 -12415384.15227  21739640.168
  -3943376.408 5  -3072760.07824  23618634.052
 -18801393.387 7 -14650427.08329  21272110.218
 92  3 13 10 36  0.0020000  0  4G17G 3G21G23
 -17463270.528 8 -13607733.61329  20962543.041
 -15870201.060 7 -12366381.44826  21751605.468
  -4035035.738 5  -3144182.90523  23601196.032
 -18837093.804 7 -14678245.58329  21265318.732
 92  3 13 10 36 30.0020000  0  4G17G 3G21G23
 -17446979.029 8 -13595038.94429  20965643.194
 -15806821.428 7 -12316994.74726  21763667.931
  -4126477.450 5  -3215436.14724  23583795.477
 -18872350.051 7 -14705717.96829  21258607.867
 92  3 13 10 37  0.0020000  0  4G17G 3G21G23
 -17430393.784 8 -13582115.38029  20968798.211
 -15742964.304 7 -12267235.98326  21775821.816
  -4217727.432 5  -3286540.00223  23566420.714
 -18907172.212 7 -14732852.10029  21251982.753
 92  3 13 10 37 30.0020000  0  4G17G 3G21G23
 -17413510.768 8 -13568959.78729  20972015.281
 -15678621.124 7 -12217098.47926  21788065.028
  -4308765.932 5  -3357479.06725  23549101.094
 -18941558.580 7 -14759646.66329  21245437.996
 92  3 13 10 38  0.0020000  0  4G17G 3G21G23
 -17396310.626 8 -13555557.09029  20975286.917
 -15613782.111 7 -12166574.61126  21800403.292
  -4399579.462 5  -3428242.81622  23531815.362
 -18975497.318 7 -14786092.41629  21238979.862
 92  3 13 10 38 30.0020000  0  4G17G 3G21G23
 -17378793.916 8 -13541907.70429  20978619.700
 -15548446.572 7 -12115663.84126  21812838.980
  -4490160.308 6  -3498825.26924  23514585.087
 -19008981.032 7 -14812183.61329  21232606.275
 92  3 13 10 39  0.0020000  0  4G17G 3G21G23
 -17360979.791 8 -13528026.57929  20982009.160
 -15482623.619 7 -12064373.26326  21825361.309
  -4580502.632 5  -3569221.85423  23497395.000
 -19042019.373 7 -14837927.76329  21226321.125
 92  3 13 10 39 30.0020000  0  4G17G 3G21G23
 -17342851.588 8 -13513900.70929  20985459.173
 -15416307.141 7 -12012698.11326  21837983.470
  -4670591.253 5  -3639420.74524  23480248.660
 -19074621.934 7 -14863332.34029  21220116.927
 92  3 13 10 40  0.0020000  0  4G17G 3G21G23
 -17324407.181 8 -13499528.44629  20988969.145
 -15349492.569 7 -11960634.85726  21850696.774
  -4760432.688 5  -3709427.02624  23463152.106
 -19106778.754 7 -14888389.58629  21213998.462
 92  3 13 10 40 30.0020000  0  4G17G 3G21G23
 -17305685.309 8 -13484939.98029  20992530.367
 -15282189.746 7 -11908191.12826  21863503.314
  -4850037.016 6  -3779248.52924  23446100.503
 -19138494.949 7 -14913103.49229  21207961.542
 92  3 13 10 41  0.0020000  0  4G17G 3G21G23
 -17286690.674 8 -13470138.96629  20996141.673
 -15214398.314 7 -11855366.67926  21876403.388
  -4939402.661 5  -3848884.05325  23429100.170
 -19169773.664 7 -14937476.50129  21202009.761
 92  3 13 10 41 30.0020000  0  4G17G 3G21G23
 -17267444.857 8 -13455142.22629  20999802.746
 -15146130.731 7 -11802171.19726  21889394.883
  -5028546.836 5  -3918347.02224  23412120.829
 -19200629.829 7 -14961520.26029  21196141.009
 92  3 13 10 42  0.0020000  0  4G17G 3G21G23
 -17247960.258 8 -13439959.42929  21003514.163
 -15077380.434 7 -11748599.57126  21902476.334
  -5117467.786 6  -3987636.03024  23395217.623
 -19231046.803 7 -14985221.79529  21190350.817
 92  3 13 10 42 30.0020000  0  4G17G 3G21G23
 -17228232.228 8 -13424586.94729  21007266.972
 -15008153.487 7 -11694656.53926  21915646.205
  -5206160.572 5  -4056747.26824  23378334.223
 -19261042.800 7 -15008595.28129  21184643.078
 92  3 13 10 43  0.0020000  0  4G17G 3G21G23
 -17208239.086 8 -13409007.87529  21011074.644
 -14938446.491 7 -11640339.43826  21928916.223
  -5294621.471 5  -4125677.80723  23361498.480
 -19290627.632 7 -15031648.38929  21179014.475
 92  3 13 10 43 30.0020000  0  4G17G 3G21G23
 -17187964.412 8 -13393209.44229  21014930.566
 -14868255.892 7 -11585645.50426  21942271.381
  -5382850.300 6  -4194427.51124  23344711.301
 -19319807.750 7 -15054386.13229  21173457.226
 92  3 13 10 44  0.0020000  0  4G17G 3G21G23
 -17167390.537 8 -13377177.85329  21018844.964
 -14797591.706 7 -11530582.53327  21955721.869
  -5470853.540 6  -4263001.42025  23327961.587
 -19348593.081 7 -15076816.24329  21167980.912
 92  3 13 10 44 30.0020000  0  4G17G 3G21G23
 -17146503.700 8 -13360902.41329  21022822.305
 -14726454.285 7 -11475150.81927  21969256.904
  -5558617.044 6  -4331388.55025  23311266.143
 -19376980.834 7 -15098936.55929  21162578.656
 92  3 13 10 45  0.0020000  0  4G17G 3G21G23
 -17125299.215 8 -13344379.43829  21026852.712
 -14654836.475 7 -11419344.78026  21982882.767
  -5646135.054 6  -4399584.35824  23294609.073
 -19404946.713 7 -15120728.13929  21157258.242
 92  3 13 10 45 30.0020000  0  4G17G 3G21G23
 -17103776.897 8 -13327608.81429  21030949.971
 -14582748.159 7 -11363172.09025  21996603.367
  -5733403.942 6  -4467586.06425  23278005.069
 -19432483.676 7 -15142185.50429  21152021.763
 92  3 13 10 46  0.0020000  0  4G17G 3G21G23
 -17081937.279 8 -13310590.94229  21035107.799
 -14510184.660 7 -11306629.13926  22010411.201
  -5820402.715 6  -4535377.29424  23261443.940
 -19459569.673 7 -15163291.46529  21146866.532
 92  3 13 10 46 30.0020000  0  4G17G 3G21G23
 -17059807.653 8 -13293347.07229  21039315.082
 -14437152.648 7 -11249721.12527  22024309.880
  -5907131.321 6  -4602958.00025  23244943.363
 -19486203.096 7 -15184044.76329  21141796.145
 92  3 13 10 47  0.0020000  0  4G17G 3G21G23
 -17037392.382 8 -13275880.64129  21043585.028
 -14363654.270 7 -11192449.71526  22038296.998
  -5993601.498 6  -4670337.32023  23228490.146
 -19512388.553 7 -15204449.00829  21136812.397
 92  3 13 10 47 30.0020000  0  4G17G 3G21G23
 -17014693.123 8 -13258192.91229  21047902.037
 -14289683.243 7 -11134809.98125  22052374.368
  -6079809.757 6  -4737512.55425  23212081.619
 -19538130.039 7 -15224507.29629  21131912.882
 92  3 13 10 48  0.0020000  0  4G17G 3G21G23
 -16991735.234 8 -13240303.66129  21052273.020
 -14215241.220 7 -11076803.27225  22066534.451
  -6165770.567 6  -4804494.95823  23195727.938
 -19563435.235 7 -15244225.61829  21127100.008
 92  3 13 10 48 30.0020000  0  4G17G 3G21G23
 -16968527.576 8 -13222219.78729  21056689.251
 -14140331.375 7 -11018431.99326  22080790.494
  -6251500.838 6  -4871297.75825  23179411.129
 -19588312.192 7 -15263610.25029  21122365.397
 92  3 13 10 49  0.0020000  0  4G17G 3G21G23
 -16945070.446 8 -13203941.50729  21061147.171
 -14064961.063 7 -10959701.91826  22095133.160
  -6337011.128 6  -4937929.12524  23163141.384
 -19612769.839 7 -15282668.14729  21117712.611
 92  3 13 10 49 30.0020000  0  4G17G 3G21G23
 -16921357.563 8 -13185463.94229  21065665.644
 -13989126.387 7 -10900610.00925  22109566.374
  -6422291.123 6  -5004381.04424  23146913.623
 -19636792.433 7 -15301387.03229  21113139.572
 92  3 13 10 50  0.0020000  0  4G17G 3G21G23
 -16897375.691 8 -13166776.77329  21070225.787
 -13912822.782 7 -10841152.69826  22124084.118
  -6507330.406 6  -5070645.37824  23130729.925
 -19660368.632 7 -15319758.09329  21108655.581
 92  3 13 10 50 30.0020000  0  4G17G 3G21G23
 -16873095.479 8 -13147857.13829  21074849.780
 -13836051.964 7 -10781331.32526  22138693.597
  -6592121.822 6  -5136716.56924  23114597.792
 -19683489.716 7 -15337774.50829  21104253.135
 92  3 13 10 51  0.0020000  0  4G17G 3G21G23
 -16848506.825 8 -13128697.15629  21079528.637
 -13758814.129 7 -10721146.01925  22153393.329
  -6676655.224 6  -5202586.73624  23098504.940
 -19706154.046 7 -15355435.01429  21099939.110
 92  3 13 10 51 30.0020000  0  4G17G 3G21G23
 -16823604.614 8 -13109292.83229  21084264.766
 -13681105.789 7 -10660594.10426  22168182.092
  -6760924.544 6  -5268251.10224  23082467.544
 -19728369.217 7 -15372745.52929  21095712.947
 92  3 13 10 52  0.0020000  0  4G17G 3G21G23
 -16798401.531 8 -13089654.08329  21089063.838
 -13602936.007 7 -10599682.60525  22183060.182
  -6844935.176 6  -5333713.90325  23066483.807
 -19750161.539 7 -15389726.54829  21091563.512
 92  3 13 10 52 30.0020000  0  4G17G 3G21G23
 -16772894.475 8 -13069778.46029  21093911.787
 -13524302.488 7 -10538409.78126  22198019.539
  -6928684.182 6  -5398972.81924  23050548.042
 -19771544.167 7 -15406388.32329  21087500.124
 92  3 13 10 53  0.0020000  0  4G17G 3G21G23
 -16747108.367 8 -13049685.40629  21098822.698
 -13445213.183 7 -10476781.78925  22213067.315
  -7012180.214 6  -5464034.63024  23034659.933
 -19792539.664 7 -15422748.44229  21083499.696
 92  3 13 10 53 30.0020000  0  4G17G 3G21G23
 -16721034.138 8 -13029367.84129  21103783.062
 -13365652.235 7 -10414786.27124  22228208.625
  -7095408.692 6  -5528887.95825  23018815.606
 -19813128.712 7 -15438791.84229  21079584.408
 92  3 13 10 54  0.0020000  0  4G17G 3G21G23
 -16694667.388 8 -13008822.32429  21108801.273
 -13285623.284 7 -10352426.09725  22243438.093
  -7178367.216 6  -5593530.93125  23003033.926
 -19833307.913 7 -15454515.88629  21075743.772
 92  3 13 10 54 30.0020000  0  4G17G 3G21G23
 -16668004.770 8 -12988046.27029  21113878.571
 -13205132.286 7 -10289705.88025  22258753.294
  -7261061.172 6  -5657967.75924  22987299.919
 -19853067.453 7 -15469912.92129  21071983.774
 92  3 13 10 55  0.0020000  0  4G17G 3G21G23
 -16641051.703 8 -12967043.88729  21119005.009
 -13124181.340 7 -10226627.24925  22274161.121
  -7343480.129 6  -5722190.29724  22971612.680
 -19872397.455 7 -15484975.24529  21068304.710
 92  3 13 10 55 30.0020000  0  4G17G 3G21G23
 -16613807.779 8 -12945814.87229  21124186.938
 -13042776.985 7 -10163195.32724  22289648.992
  -7425628.267 6  -5786201.80024  22955981.508
 -19891299.433 7 -15499704.05629  21064708.098
 92  3 13 10 56  0.0020000  0  4G17G 3G21G23
 -16586267.885 8 -12924355.22329  21129431.793
 -12960919.174 7 -10099410.07226  22305227.115
  -7507506.883 6  -5850003.29225  22940402.494
 -19909781.046 7 -15514105.31129  21061193.938
 92  3 13 10 56 30.0020000  0  4G17G 3G21G23
 -16558437.318 8 -12902669.09029  21134726.433
 -12878602.745 7 -10035267.43624  22320890.972
  -7589113.684 6  -5913592.98225  22924875.343
 -19927832.455 7 -15528171.33429  21057757.711
 92  3 13 10 57  0.0020000  0  4G17G 3G21G23
 -16530331.409 8 -12880768.38929  21140073.232
 -12795836.044 7  -9970773.92825  22336643.562
  -7670459.506 6  -5976979.29424  22909395.551
 -19945462.090 7 -15541908.71329  21054401.842
 92  3 13 10 57 30.0020000  0  4G17G 3G21G23
 -16501944.088 8 -12858648.41629  21145477.582
 -12712613.749 7  -9905925.43924  22352477.698
  -7751552.326 6  -6040168.48225  22893960.432
 -19962661.522 7 -15555310.85829  21051127.815
 92  3 13 10 58  0.0020000  0  4G17G 3G21G23
 -16473284.827 8 -12836316.52529  21150930.514
 -12628941.781 7  -9840726.54224  22368399.678
  -7832392.586 6  -6103160.85725  22878571.487
 -19979418.440 7 -15568368.18829  21047941.318
 92  3 13 10 58 30.0020000  0  4G17G 3G21G23
 -16444363.012 8 -12813780.06129  21156434.103
 -12544827.183 7  -9775182.74125  22384407.705
  -7912975.201 6  -6165952.47425  22863242.500
 -19995723.483 7 -15581073.41429  21044838.460
 92  3 13 10 59  0.0020000  0  4G17G 3G21G23
 -16415166.264 8 -12791029.35529  21161989.851
 -12460266.030 7  -9709290.97225  22400498.149
  -7993281.729 6  -6228528.96125  22847968.673
 -20011562.751 7 -15593415.69229  21041821.649
 92  3 13 10 59 30.0020000  0  4G17G 3G21G23
 -16385694.233 8 -12768064.15029  21167600.776
 -12375264.087 7  -9643055.72525  22416675.862
  -8073311.112 6  -6290889.48225  22832736.221
 -20026939.068 7 -15605397.22329  21038896.277
 92  3 13 11  0  0.0020000  0  4G17G 3G21G23
 -16355932.917 8 -12744873.53629  21173263.250
 -12289816.722 7  -9576473.40425  22432938.104
  -8153049.074 6  -6353022.91824  22817562.838
 -20041849.912 7 -15617016.06029  21036054.840
 92  3 13 11  0 30.0020000  0  4G17G 3G21G23
 -16325864.036 8 -12721443.25229  21178984.792
 -12203922.995 7  -9509543.26925  22449280.984
  -8232489.942 6  -6414924.87025  22802434.407
 -20056319.605 7 -15628291.13129  21033305.140
 92  3 13 11  1  0.0020000  0  4G17G 3G21G23
 -16295489.388 8 -12697774.70629  21184762.402
 -12117595.408 7  -9442275.04725  22465710.817
  -8311653.109 6  -6476610.41726  22787380.017
 -20070380.013 7 -15639247.28329  21030627.997
 92  3 13 11  1 30.0020000  0  4G17G 3G21G23
 -16264796.054 8 -12673857.83429  21190603.845
 -12030824.355 7  -9374661.27825  22482220.084
  -8390541.638 6  -6538081.96624  22772365.221
 -20084044.377 7 -15649894.82929  21028028.490
 92  3 13 11  2  0.0020000  0  4G17G 3G21G23
 -16233793.511 8 -12649700.01629  21196501.967
 -11943622.267 7  -9306711.65424  22498813.898
  -8469162.959 6  -6599345.30326  22757400.787
 -20097342.295 7 -15660256.84329  21025499.448
 92  3 13 11  2 30.0020000  0  4G17G 3G21G23
 -16202480.326 8 -12625300.15029  21202467.830
 -11855982.296 7  -9238420.79424  22515489.849
  -8547494.447 6  -6660382.79824  22742496.591
 -20110267.994 7 -15670328.81629  21023040.258
 92  3 13 11  3  0.0020000  0  4G17G 3G21G23
 -16170869.448 8 -12600668.30229  21208476.585
 -11767901.784 6  -9169786.68024  22532250.941
  -8625533.928 6  -6721192.73526  22727646.682
 -20122796.944 7 -15680091.62829  21020656.000
 92  3 13 11  3 30.0020000  0  4G17G 3G21G23
 -16138976.720 8 -12575816.84529  21214551.268
 -11679383.229 6  -9100811.22125  22549094.187
  -8703278.278 6  -6781772.71926  22712851.917
 -20134914.470 7 -15689533.85229  21018350.896
 92  3 13 11  4  0.0020000  0  4G17G 3G21G23
 -16106818.220 8 -12550758.27629  21220661.950
 -11590432.574 6  -9031499.07225  22566025.261
  -8780719.767 6  -6842116.69326  22698110.828
 -20146611.350 7 -15698648.30029  21016126.430
 92  3 13 11  4 30.0020000  0  4G17G 3G21G23
 -16074394.641 8 -12525493.17629  21226840.671
 -11501039.122 6  -8961841.88125  22583035.192
  -8857848.420 6  -6902216.91026  22683440.185
 -20157858.858 7 -15707412.58529  21013984.730
 92  3 13 11  5  0.0020000  0  4G17G 3G21G23
 -16041717.039 8 -12500030.11829  21233052.355
 -11411211.720 6  -8891846.55125  22600128.448
  -8934699.935 6  -6962101.18026  22668818.700
 -20168671.579 7 -15715838.07429  21011925.447
 92  3 13 11  5 30.0020000  0  4G17G 3G21G23
 -16008765.057 8 -12474353.26829  21239328.518
 -11320944.556 6  -8821508.57126  22617305.658
  -9011262.280 6  -7021760.12125  22654243.685
 -20179052.008 7 -15723926.72029  21009949.820
 92  3 13 11  6  0.0020000  0  4G17G 3G21G23
 -15975536.714 8 -12448461.05829  21245646.945
 -11230251.420 7  -8750838.63925  22634559.927
  -9087546.623 6  -7081202.43326  22639727.739
 -20189009.728 7 -15731685.97529  21008058.426
 92  3 13 11  6 30.0020000  0  4G17G 3G21G23
 -15942010.386 8 -12422336.67129  21252027.128
 -11139131.933 6  -8679836.47925  22651900.819
  -9163562.919 7  -7140435.88125  22625266.046
 -20198544.070 7 -15739115.33129  21006245.279
 92  3 13 11  7  0.0020000  0  4G17G 3G21G23
 -15908165.530 8 -12395964.05629  21258466.974
 -11047587.811 7  -8608503.43426  22669322.349
  -9239312.571 6  -7199461.55325  22610850.229
 -20207657.794 7 -15746216.93229  21004508.581
 92  3 13 11  7 30.0020000  0  4G17G 3G21G23
 -15874013.285 8 -12369351.93529  21264968.576
 -10955629.134 7  -8536847.36425  22686823.940
  -9314786.464 6  -7258272.34926  22596478.491
 -20216348.986 7 -15752989.28429  21002857.319
 92  3 13 11  8  0.0020000  0  4G17G 3G21G23
 -15839561.364 8 -12342506.29229  21271525.321
 -10863251.006 7  -8464864.47725  22704401.370
  -9389984.377 6  -7316868.09426  22582175.682
 -20224621.441 7 -15759435.34229  21001281.023
 92  3 13 11  8 30.0020000  0  4G17G 3G21G23
 -15804818.921 8 -12315434.26929  21278133.352
 -10770448.942 7  -8392551.20726  22722062.735
  -9464898.678 7  -7375242.83725  22567923.548
 -20232480.869 7 -15765559.56929  20999787.756
 92  3 13 11  9  0.0020000  0  4G17G 3G21G23
 -15769816.498 8 -12288159.66429  21284795.950
 -10677230.627 7  -8319913.58425  22739798.473
  -9539516.891 7  -7433386.87525  22553725.074
 -20239929.308 7 -15771363.53529  20998365.232
 92  3 13 11  9 30.0020000  0  4G17G 3G21G23
 -15734565.371 8 -12260691.26129  21291505.297
 -10583595.691 7  -8246951.33425  22757618.129
  -9613833.056 6  -7491295.54426  22539576.682
 -20246966.493 7 -15776847.05229  20997028.754
 92  3 13 11 10  0.0020000  0  4G17G 3G21G23
 -15699039.331 8 -12233008.64029  21298264.726
 -10489537.151 7  -8173659.02126  22775514.846
  -9687837.968 6  -7548961.66226  22525496.624
 -20253579.854 7 -15782000.31829  20995765.132
 92  3 13 11 10 30.0020000  0  4G17G 3G21G23
 -15663230.045 8 -12205105.31929  21305078.094
 -10395057.765 7  -8100038.76524  22793494.590
  -9761524.465 7  -7606379.68825  22511482.529
 -20259749.903 7 -15786808.13429  20994591.151
 92  3 13 11 11  0.0020000  0  4G17G 3G21G23
 -15627129.505 8 -12176975.04229  21311949.937
 -10300167.814 7  -8026098.58425  22811552.599
  -9834911.546 7  -7663564.40425  22497508.604
 -20265489.012 7 -15791280.18129  20993504.997
 92  3 13 11 11 30.0020000  0  4G17G 3G21G23
 -15590719.187 8 -12148603.37729  21318875.457
 -10204873.594 7  -7951843.38225  22829687.930
  -9908010.765 6  -7720524.79526  22483594.027
 -20270808.355 7 -15795425.11029  20992488.696
 92  3 13 11 12  0.0020000  0  4G17G 3G21G23
 -15553992.766 8 -12119985.40729  21325869.016
 -10109167.567 6  -7877267.30325  22847892.538
  -9980808.150 6  -7777249.99725  22469744.522
 -20275702.938 7 -15799239.06629  20991559.053
 92  3 13 11 12 30.0020000  0  4G17G 3G21G23
 -15516983.049 8 -12091146.66929  21332904.839
 -10013071.187 6  -7802387.06925  22866186.474
 -10053325.035 7  -7833756.61926  22455950.178
 -20280204.844 7 -15802747.04229  20990703.138
 92  3 13 11 13  0.0020000  0  4G17G 3G21G23
 -15479681.625 8 -12062080.66529  21340009.015
  -9916578.318 6  -7727197.85825  22884545.167
 -10125559.100 7  -7890042.87427  22442201.989
 -20284323.840 7 -15805956.64129  20989922.171
 92  3 13 11 13 30.0020000  0  4G17G 3G21G23
 -15442104.982 8 -12032800.16129  21347154.879
  -9819694.719 6  -7651704.20224  22902978.496
 -10197498.774 7  -7946099.73326  22428510.461
 -20288052.579 7 -15808862.15129  20989208.980
 92  3 13 11 14  0.0020000  0  4G17G 3G21G23
 -15404254.648 8 -12003306.43229  21354361.575
  -9722415.887 6  -7575902.54924  22921496.981
 -10269150.038 6  -8001931.84426  22414874.703
 -20291387.402 7 -15811460.71529  20988573.705
 92  3 13 11 14 30.0020000  0  4G17G 3G21G23
 -15366122.913 8 -11973593.38729  21361618.666
  -9624742.426 6  -7499793.41725  22940076.908
 -10340516.540 7  -8057542.07527  22401298.608
 -20294311.713 7 -15813739.38929  20988015.804
 92  3 13 11 15  0.0020000  0  4G17G 3G21G23
 -15327713.897 8 -11943664.31029  21368926.696
  -9526674.350 6  -7423376.80924  22958747.681
 -10411592.551 7  -8112925.95326  22387778.267
 -20296821.683 7 -15815695.21129  20987539.431
 92  3 13 11 15 30.0020000  0  4G17G 3G21G23
 -15289039.986 8 -11913528.80929  21376288.401
  -9428216.419 6  -7346656.38124  22977482.322
 -10482376.567 7  -8168082.30026  22374301.394
 -20298917.588 7 -15817328.37629  20987140.711
 92  3 13 11 16  0.0020000  0  4G17G 3G21G23
 -15250098.741 8 -11883184.99629  21383695.077
  -9329369.838 6  -7269633.11323  22996285.909
 -10552867.643 7  -8223010.38426  22360886.277
 -20300608.765 7 -15818646.17429  20986819.923
 92  3 13 11 16 30.0020000  0  4G17G 3G21G23
 -15210891.061 8 -11852633.58329  21391159.302
  -9230138.711 6  -7192310.18725  23015172.821
 -10623052.215 7  -8277699.63226  22347530.823
 -20301903.100 7 -15819654.74329  20986575.289
 92  3 13 11 17  0.0020000  0  4G17G 3G21G23
 -15171403.916 8 -11821864.38529  21398668.218
  -9130520.465 6  -7114685.66625  23034131.104
 -10692927.390 7  -8332147.79626  22334232.937
 -20302825.447 7 -15820373.44829  20986396.023
 92  3 13 11 17 30.0020000  0  4G17G 3G21G23
 -15131617.017 8 -11790861.62029  21406241.561
  -9030519.734 6  -7036763.05924  23053161.631
 -10762493.704 7  -8386355.28626  22320994.102
 -20303369.066 7 -15820797.04629  20986292.595
 92  3 13 11 18  0.0020000  0  4G17G 3G21G23
 -15091519.944 8 -11759617.14729  21413868.894
  -8930134.795 6  -6958541.06524  23072264.698
 -10831736.964 7  -8440311.04827  22307821.823
 -20303532.048 7 -15820924.07929  20986264.116
 92  3 13 11 18 30.0020000  0  4G17G 3G21G23
 -15051123.434 8 -11728139.36829  21421560.670
  -8829369.196 6  -6880022.45725  23091439.434
 -10900656.405 7  -8494014.47726  22294707.391
 -20303309.922 7 -15820750.97529  20986309.679
 92  3 13 11 19  0.0020000  0  4G17G 3G21G23
 -15010426.655 8 -11696427.60729  21429303.402
  -8728217.589 6  -6801203.08223  23110685.506
 -10969236.793 7  -8547453.71327  22281655.937
 -20302676.697 7 -15820257.54629  20986428.096
 92  3 13 11 19 30.0020000  0  4G17G 3G21G23
 -14969458.627 8 -11664504.49129  21437099.199
  -8626693.362 6  -6722093.36825  23130007.730
 -11037477.285 7  -8600628.10226  22268665.332
 -20301617.892 7 -15819432.49829  20986628.058
 92  3 13 11 20  0.0020000  0  4G17G 3G21G23
 -14928240.437 8 -11632386.43529  21444942.374
  -8524794.589 6  -6642691.73824  23149394.713
 -11105387.467 7  -8653545.09527  22255743.672
 -20300143.498 7 -15818283.61629  20986906.860
 92  3 13 11 20 30.0020000  0  4G17G 3G21G23
 -14886764.843 8 -11600067.81329  21452835.910
  -8422525.239 6  -6563001.38624  23168856.033
 -11172991.122 7  -8706223.24326  22242882.269
 -20298259.461 7 -15816815.53529  20987268.708
 92  3 13 11 21  0.0020000  0  4G17G 3G21G23
 -14845004.294 7 -11567527.12729  21460781.902
  -8319882.855 6  -6483020.36424  23188387.521
 -11240298.374 7  -8758670.42526  22230076.339
 -20295976.826 7 -15815036.85729  20987696.518
 92  3 13 11 21 30.0020000  0  4G17G 3G21G23
 -14802956.964 7 -11534763.00229  21468784.572
  -8216867.727 6  -6402748.93123  23207992.439
 -11307329.084 7  -8810902.10826  22217322.272
 -20293327.442 7 -15812972.38829  20988205.261
 92  3 13 11 22  0.0020000  0  4G17G 3G21G23
 -14760615.809 7 -11501769.92429  21476841.494
  -8113484.475 6  -6322190.58323  23227664.820
 -11374097.452 7  -8862929.37826  22204610.172
 -20290326.672 7 -15810634.13729  20988777.576
 92  3 13 11 22 30.0020000  0  4G17G 3G21G23
 -14717966.946 7 -11468537.04629  21484955.375
  -8009734.105 6  -6241346.16022  23247404.664
 -11440582.261 7  -8914735.69326  22191961.922
 -20286966.938 8 -15808016.15029  20989417.929
 92  3 13 11 23  0.0020000  0  4G17G 3G21G23
 -14675018.816 8 -11435071.00729  21493132.215
  -7905615.283 6  -6160214.65824  23267221.829
 -11506768.993 7  -8966309.73627  22179368.240
 -20283226.706 7 -15805101.68629  20990129.933
 92  3 13 11 23 30.0020000  0  4G17G 3G21G23
 -14631792.502 8 -11401388.16529  21501359.417
  -7801133.595 6  -6078800.41823  23287103.473
 -11572648.514 7  -9017644.40327  22166829.718
 -20279081.570 7 -15801871.70629  20990916.885
 92  3 13 11 24  0.0020000  0  4G17G 3G21G23
 -14588291.140 7 -11367491.02129  21509632.495
  -7696293.772 6  -5997107.10624  23307057.360
 -11638217.544 7  -9068737.11526  22154355.063
 -20274509.160 7 -15798308.79629  20991785.383
 92  3 13 11 24 30.0020000  0  4G17G 3G21G23
 -14544507.372 8 -11333373.82529  21517966.126
  -7591096.143 6  -5915134.98022  23327073.004
 -11703465.854 7  -9119579.92827  22141934.050
 -20269506.083 7 -15794410.29429  20992737.536
 92  3 13 11 25  0.0020000  0  4G17G 3G21G23
 -14500450.966 7 -11299044.17129  21526349.821
  -7485542.443 6  -5832885.35022  23347160.596
 -11768404.192 7  -9170181.20427  22129581.408
 -20264079.196 7 -15790181.54929  20993772.718
 92  3 13 11 25 30.0020000  0  4G17G 3G21G23
 -14456115.614 7 -11264497.16429  21534785.972
  -7379630.683 6  -5750356.77324  23367315.039
 -11833027.305 7  -9220536.83827  22117281.220
 -20258246.241 7 -15785636.39329  20994878.940
 92  3 13 11 26  0.0020000  0  4G17G 3G21G23
 -14411489.293 8 -11229723.43329  21543277.894
  -7273365.202 6  -5667552.55624  23387534.240
 -11897336.915 7  -9270648.20827  22105045.494
 -20252029.240 7 -15780791.97129  20996063.722
 92  3 13 11 26 30.0020000  0  4G17G 3G21G23
 -14366573.819 8 -11194724.37129  21551824.679
  -7166752.934 6  -5584478.11422  23407822.997
 -11961327.295 7  -9320510.81627  22092864.021
 -20245441.835 7 -15775658.93529  20997315.968
 92  3 13 11 27  0.0020000  0  4G17G 3G21G23
 -14321374.421 7 -11159504.06729  21560423.937
  -7059795.962 6  -5501135.04322  23428172.917
 -12025001.697 7  -9370127.20026  22080745.211
 -20238491.054 7 -15770242.73829  20998643.737
 92  3 13 11 27 30.0020000  0  4G17G 3G21G23
 -14275874.871 7 -11124049.89929  21569081.635
  -6952491.601 6  -5417521.28722  23448594.174
 -12088352.096 7  -9419491.12226  22068692.363
 -20231176.597 7 -15764543.16229  21000032.373
 92  3 13 11 28  0.0020000  0  4G17G 3G21G23
 -14230073.276 8 -11088360.36029  21577800.497
  -6844840.425 6  -5333637.33323  23469079.299
 -12151371.905 7  -9468597.43227  22056697.362
 -20223492.581 7 -15758555.61429  21001495.068
 92  3 13 11 28 30.0020000  0  4G17G 3G21G23
 -14183997.241 8 -11052456.96929  21586571.221
  -6736856.855 6  -5249494.34922  23489634.260
 -12214075.016 7  -9517456.97826  22044772.529
 -20215450.160 7 -15752288.79529  21003026.708
 92  3 13 11 29  0.0020000  0  4G17G 3G21G23
 -14137634.986 8 -11016330.55829  21595388.432
  -6628534.271 6  -5165087.21023  23510243.490
 -12276450.861 7  -9566061.50627  22032897.447
 -20207040.096 7 -15745735.49429  21004625.497
 92  3 13 11 29 30.0020000  0  4G17G 3G21G23
 -14090977.803 8 -10979974.32929  21604272.477
  -6519865.233 5  -5080410.06422  23530918.683
 -12338493.299 7  -9614406.23727  22021097.016
 -20198240.470 7 -15738878.64229  21006301.346
 92  3 13 11 30  0.0020000  0  4G17G 3G21G23
 -14044043.049 8 -10943401.80229  21613199.695
  -6410857.998 6  -4995469.41223  23551661.320
 -12400207.319 7  -9662495.05827  22009350.542
 -20189039.801 7 -15731709.28129  21008050.626
 92  3 13 11 30 30.0020000  0  5G11G17G 3G21G23
  -1625393.713 4  -1266540.33422  25808269.313
 -13996831.758 7 -10906613.80828  21622184.166
  -6301518.453 6  -4910269.83223  23572466.918
 -12461592.532 7  -9710327.65827  21997666.434
 -20179433.966 7 -15724224.21429  21009877.262
 92  3 13 11 31  0.0020000  0  5G11G17G 3G21G23
  -1734893.243 4  -1351864.59722  25787429.827
 -13949332.151 7 -10869601.16129  21631221.110
  -6191846.066 6  -4824810.89124  23593336.681
 -12522650.029 7  -9757904.89627  21986048.882
 -20169419.339 7 -15716420.60929  21011785.444
 92  3 13 11 31 30.0020000  0  5G11G17G 3G21G23
  -1844403.803 4  -1437197.45622  25766596.361
 -13901555.611 8 -10832372.70229  21640317.717
  -6081846.555 6  -4739097.00523  23614277.483
 -12583398.710 7  -9805241.50827  21974490.975
 -20159001.470 8 -15708302.79429  21013767.073
 92  3 13 11 32  0.0020000  0  5G11G17G 3G21G23
  -1953915.970 4  -1522531.58522  25745763.471
 -13853495.013 7 -10794922.88729  21649460.183
  -5971514.512 6  -4653124.04223  23635268.646
 -12643814.580 7  -9852318.79427  21962989.135
 -20148185.104 8 -15699874.46129  21015826.042
 92  3 13 11 32 30.0020000  0  5G11G17G 3G21G23
  -2063425.499 4  -1607863.65622  25724922.204
 -13805140.773 7 -10757244.29029  21658663.515
  -5860850.690 6  -4566892.54623  23656323.364
 -12703897.113 7  -9899136.31827  21951559.260
 -20136997.312 8 -15691156.70229  21017957.568
 92  3 13 11 33  0.0020000  0  5G11G17G 3G21G23
  -2172941.743 4  -1693200.97022  25704064.448
 -13756515.451 7 -10719354.45828  21667914.817
  -5749868.876 6  -4480413.29324  23677450.046
 -12763668.282 7  -9945711.22728  21940185.731
 -20125468.235 8 -15682173.01629  21020146.663
 92  3 13 11 33 30.0020000  0  5G11G17G 3G21G23
  -2282463.570 5  -1778542.61423  25683238.171
 -13707626.590 7 -10681259.25328  21677218.576
  -5638572.349 6  -4393688.75124  23698626.775
 -12823111.332 7  -9992030.46427  21928874.256
 -20113615.165 7 -15672936.84729  21022403.186
 92  3 13 11 34  0.0020000  0  5G11G17G 3G21G23
  -2391985.461 5  -1863884.31423  25662391.199
 -13658463.111 7 -10642950.07228  21686574.196
  -5526960.132 6  -4306718.22223  23719862.573
 -12882210.080 7 -10038081.40928  21917627.241
 -20101440.296 7 -15663449.94229  21024719.685
 92  3 13 11 34 30.0020000  0  5G11G17G 3G21G23
  -2501501.197 5  -1949221.25222  25641548.729
 -13609024.766 7 -10604426.70429  21695980.491
  -5415030.565 6  -4219500.44322  23741166.130
 -12940982.417 7 -10083878.00727  21906444.688
 -20088940.855 7 -15653710.11629  21027097.643
 92  3 13 11 35  0.0020000  0  5G11G17G 3G21G23
  -2611015.548 5  -2034557.10824  25620710.150
 -13559326.275 7 -10565700.63728  21705436.834
  -5302792.967 6  -4132042.62422  23762520.642
 -12999438.976 7 -10129428.54327  21895317.888
 -20076097.757 7 -15643702.51129  21029543.658
 92  3 13 11 35 30.0020000  0  5G11G17G 3G21G23
  -2720521.007 5  -2119886.02721  25599873.368
 -13509353.728 8 -10526761.01529  21714951.949
  -5190244.530 6  -4044342.58722  23783936.632
 -13057574.606 7 -10174729.00227  21884255.550
 -20062883.741 7 -15633405.87129  21032057.711
 92  3 13 11 36  0.0020000  0  5G11G17G 3G21G23
  -2830015.641 5  -2205206.46122  25579030.601
 -13459103.294 7 -10487604.85529  21724512.627
  -5077387.992 5  -3956402.47722  23805416.750
 -13115417.471 7 -10219801.34127  21873245.963
 -20049272.051 7 -15622799.36629  21034646.119
 92  3 13 11 36 30.0020000  0  5G11G17G 3G21G23
  -2939504.757 5  -2290522.70421  25558201.323
 -13408596.146 7 -10448248.64928  21734121.589
  -4964233.132 5  -3868229.90922  23826954.141
 -13172981.587 7 -10264656.46227  21862295.445
 -20035264.400 7 -15611884.31629  21037314.275
 92  3 13 11 37  0.0020000  0  5G11G17G 3G21G23
  -3048974.202 5  -2375823.55921  25537370.545
 -13357812.516 7 -10408677.01128  21743783.286
  -4850770.979 5  -3779817.88623  23848534.109
 -13230230.065 7 -10309265.64827  21851403.979
 -20020853.438 7 -15600655.00229  21040051.970
 92  3 13 11 37 30.0020000  0  5G11G17G 3G21G23
  -3158432.360 5  -2461115.59622  25516544.268
 -13306748.771 7 -10368887.10928  21753504.959
  -4737013.920 5  -3691176.10323  23870185.118
 -13287160.340 7 -10353626.88127  21840566.783
 -20006075.270 7 -15589139.54129  21042868.522
 92  3 13 11 38  0.0020000  0  5G11G17G 3G21G23
  -3267876.169 5  -2546396.49622  25495711.082
 -13255412.684 7 -10328884.97628  21763274.604
  -4622963.996 5  -3602306.10822  23891895.492
 -13343757.560 7 -10397728.58927  21829796.142
 -19990950.678 7 -15577354.15629  21045744.126
 92  3 13 11 38 30.0020000  0  5G11G17G 3G21G23
  -3377290.558 5  -2631654.44321  25474890.494
 -13203783.559 7 -10288654.50027  21773099.094
  -4508610.583 5  -3513199.59722  23913657.118
 -13399981.810 7 -10441539.66727  21819101.358
 -19975486.907 7 -15565304.47329  21048686.302
 92  3 13 11 39  0.0020000  0  5G11G17G 3G21G23
  -3486678.482 5  -2716891.79822  25454068.423
 -13151839.648 7 -10248178.75028  21782981.763
  -4393961.944 5  -3423863.02923  23935467.622
 -13455834.619 7 -10485061.32127  21808470.406
 -19959694.133 7 -15552998.41129  21051690.218
 92  3 13 11 39 30.0020000  0  5G11G17G 3G21G23
  -3596038.797 5  -2802107.61621  25433266.420
 -13099589.285 7 -10207464.20728  21792923.466
  -4279020.949 5  -3334298.68923  23957342.569
 -13511335.800 7 -10528308.97126  21797906.323
 -19943562.461 8 -15540428.27729  21054765.487
 92  3 13 11 40  0.0020000  0  5G11G17G 3G21G23
  -3705366.499 5  -2887298.00922  25412463.509
 -13047034.380 7 -10166512.36428  21802924.849
  -4163788.128 5  -3244506.98223  23979270.303
 -13566490.350 7 -10571286.51927  21787412.687
 -19927063.087 8 -15527571.63229  21057903.717
 92  3 13 11 40 30.0020000  0  5G11G17G 3G21G23
  -3814657.234 5  -2972459.58622  25391659.412
 -12994160.441 7 -10125311.91228  21812990.972
  -4048263.303 5  -3154487.65122  24001253.773
 -13621302.344 7 -10613997.14627  21776978.120
 -19910186.900 8 -15514421.36229  21061111.503
 92  3 13 11 41  0.0020000  0  5G11G17G 3G21G23
  -3923896.189 5  -3057580.80921  25370877.215
 -12940971.432 7 -10083865.94228  21823108.085
  -3932436.854 6  -3064233.30823  24023297.813
 -13675772.053 7 -10656441.05127  21766619.391
 -19892921.777 8 -15500968.01529  21064395.721
 92  3 13 11 41 30.0020000  0  5G11G17G 3G21G23
  -4033085.567 5  -3142663.43122  25350100.392
 -12887505.937 7 -10042204.54328  21833284.528
  -3816315.604 5  -2973749.29622  24045394.623
 -13729907.353 7 -10698624.38027  21756314.026
 -19875270.050 8 -15487213.42929  21067757.890
 92  3 13 11 42  0.0020000  0  5G11G17G 3G21G23
  -4142239.623 5  -3227718.53523  25329321.179
 -12833784.713 7 -10000343.86428  21843504.457
  -3699918.741 5  -2883050.50024  24067542.387
 -13783717.212 7 -10740554.12427  21746075.808
 -19857264.736 8 -15473183.31529  21071185.427
 92  3 13 11 42 30.0020000  0  5G11G17G 3G21G23
  -4251340.648 4  -3312732.29322  25308565.942
 -12779803.413 7  -9958280.54328  21853775.638
  -3583233.411 5  -2792126.95423  24089743.810
 -13837197.133 7 -10782226.75928  21735902.646
 -19838913.067 8 -15458883.32329  21074678.000
 92  3 13 11 43  0.0020000  0  5G11G17G 3G21G23
  -4360402.562 5  -3397715.56824  25287805.610
 -12725583.198 7  -9916031.05328  21864093.306
  -3466278.602 5  -2700993.38822  24112003.412
 -13890371.990 7 -10823661.70228  21725778.954
 -19820236.322 8 -15444330.00429  21078229.643
 92  3 13 11 43 30.0020000  0  5G11G17G 3G21G23
  -4469416.877 5  -3482661.78122  25267068.679
 -12671104.509 7  -9873580.16028  21874465.227
  -3349050.743 5  -2609647.03422  24134305.576
 -13943232.459 7 -10864851.65728  21715722.411
 -19801225.153 8 -15429516.10529  21081849.045
 92  3 13 11 44  0.0020000  0  5G11G17G 3G21G23
  -4578386.680 5  -3567573.29822  25246333.824
 -12616342.492 7  -9830908.48228  21884887.806
  -3231557.514 5  -2518093.89124  24156662.289
 -13995789.599 7 -10905805.24328  21705721.639
 -19781886.095 8 -15414446.70829  21085532.298
 92  3 13 11 44 30.0020000  0  5G11G17G 3G21G23
  -4687307.326 5  -3652446.4912   25225602.285
 -12561281.290 7  -9788003.65029  21895362.264
  -3113799.312 5  -2426334.32923  24179072.085
 -14048051.100 7 -10946528.46528  21695779.622
 -19762199.030 8 -15399106.15129  21089276.102
 92  3 13 11 45  0.0020000  0  5G11G17G 3G21G23
  -4796176.641 5  -3737279.70822  25204893.518
 -12505917.340 7  -9744862.93428  21905896.961
  -2995778.932 5  -2334370.46223  24201535.524
 -14099997.763 7 -10987006.35728  21685892.765
 -19742156.541 8 -15383488.62429  21093088.259
 92  3 13 11 45 30.0020000  0  5G11G17G 3G21G23
  -4904998.039 5  -3822075.58522  25184179.359
 -12450257.568 7  -9701491.70228  21916487.131
  -2877505.350 5  -2242209.25823  24224039.150
 -14151628.372 7 -11027237.98128  21676065.570
 -19721761.570 8 -15367596.43729  21096966.972
 92  3 13 11 46  0.0020000  0  5G11G17G 3G21G23
  -5013763.729 5  -3906828.03923  25163486.786
 -12394298.600 7  -9657887.34528  21927136.668
  -2758975.378 5  -2149848.28921  24246590.136
 -14202931.453 7 -11067214.39128  21666304.633
 -19701010.514 8 -15351426.78029  21100920.039
 92  3 13 11 46 30.0020000  0  5G11G17G 3G21G23
  -5122469.743 5  -3991534.02722  25142803.200
 -12338060.496 7  -9614065.45828  21937840.457
  -2640190.008 5  -2057288.31423  24269200.488
 -14253881.395 7 -11106915.61828  21656608.141
 -19679912.888 8 -15334987.07929  21104935.160
 92  3 13 11 47  0.0020000  0  5G11G17G 3G21G23
  -5231110.363 5  -4076189.04224  25122119.911
 -12281549.639 8  -9570031.04628  21948593.996
  -2521148.488 5  -1964528.77321  24291858.200
 -14304461.114 7 -11146328.35829  21646982.409
 -19658484.986 8 -15318290.00629  21109014.427
 92  3 13 11 47 30.0020000  0  5G11G17G 3G21G23
  -5339683.113 5  -4160791.15722  25101463.320
 -12224773.170 7  -9525789.65327  21959395.821
  -2401853.593 5  -1871571.76022  24314547.985
 -14354680.377 7 -11185460.23129  21637423.825
 -19636722.772 8 -15301332.43829  21113158.156
 92  3 13 11 48  0.0020000  0  5G11G17G 3G21G23
  -5448193.147 5  -4245344.41423  25080816.903
 -12167747.715 7  -9481354.26627  21970246.820
  -2282315.489 5  -1778425.19522  24337295.949
 -14404553.570 7 -11224322.43229  21627934.484
 -19614635.330 8 -15284121.44529  21117357.359
 92  3 13 11 48 30.0020000  0  5G11G17G 3G21G23
  -5556626.174 5  -4329837.64922  25060175.599
 -12110473.880 7  -9436725.32227  21981146.976
  -2162525.025 4  -1685082.01322  24360091.553
 -14454086.142 7 -11262919.22429  21618511.122
 -19592205.699 8 -15266643.81229  21121624.007
 92  3 13 11 49  0.0020000  0  5G11G17G 3G21G23
  -5664984.263 5  -4414272.52021  25039558.882
 -12052941.669 7  -9391895.05227  21992094.196
  -2042489.360 5  -1591547.80822  24382942.944
 -14503306.063 7 -11301272.38928  21609142.310
 -19569425.095 8 -15248892.69729  21125959.008
 92  3 13 11 49 30.0020000  0  5G11G17G 3G21G23
  -5773262.726 5  -4498645.32822  25018948.448
 -11995141.728 7  -9346856.15827  22003094.482
  -1922209.148 5  -1497823.03022  24405829.393
 -14552215.299 7 -11339383.45628  21599835.550
 -19546288.113 8 -15230863.88129  21130362.047
 92  3 13 11 50  0.0020000  0  5G11G17G 3G21G23
  -5881474.180 5  -4582965.95322  24998362.897
 -11937078.678 7  -9301612.26927  22014143.035
  -1801701.665 5  -1403921.13521  24428759.014
 -14600828.407 7 -11377263.77428  21590588.453
 -19522820.314 8 -15212577.29529  21134826.266
 92  3 13 11 50 30.0020000  0  5G11G17G 3G21G23
  -5989608.588 5  -4667226.52223  24977775.549
 -11878737.173 7  -9256151.35927  22025241.338
  -1680962.392 5  -1309838.5792   24451732.715
 -14649124.676 7 -11414897.20628  21581394.718
 -19499018.410 8 -15194030.35129  21139355.226
 92  3 13 11 51  0.0020000  0  5G11G17G 3G21G23
  -6097653.015 5  -4751416.97821  24957224.166
 -11820092.562 7  -9210454.27527  22036402.916
  -1559983.461 5  -1215569.39922  24474755.572
 -14697077.663 7 -11452263.14628  21572267.225
 -19474890.869 8 -15175229.67329  21143948.350
 92  3 13 11 51 30.0020000  0  5G11G17G 3G21G23
  -6205610.341 5  -4835539.56922  24936679.693
 -11761156.263 7  -9164529.90627  22047619.654
  -1438772.788 5  -1121119.54723  24497823.713
 -14744679.903 7 -11489355.77929  21563209.305
 -19450455.001 8 -15156188.73629  21148598.135
 92  3 13 11 52  0.0020000  0  5G11G17G 3G21G23
  -6313475.765 5  -4919590.56023  24916147.505
 -11701928.176 7  -9118378.17727  22058890.942
  -1317330.891 5  -1026489.53722  24520925.725
 -14791927.849 7 -11526172.34427  21554217.330
 -19425702.671 8 -15136901.21129  21153307.268
 92  3 13 11 52 30.0020000  0  5G11G17G 3G21G23
  -6421250.221 5  -5003570.63822  24895654.301
 -11642403.216 7  -9071995.11127  22070215.016
  -1195664.034 5   -931684.20423  24544088.289
 -14838821.354 7 -11562712.71928  21545297.599
 -19400641.767 8 -15117373.23229  21158073.673
 92  3 13 11 53  0.0020000  0  5G11G17G 3G21G23
  -6528937.340 5  -5087482.65023  24875155.984
 -11582591.247 7  -9025388.39827  22081599.626
  -1073781.112 5   -836710.56823  24567279.925
 -14885377.647 7 -11598990.33228  21536433.639
 -19375276.003 8 -15097607.70829  21162906.022
 92  3 13 11 53 30.0020000  0  5G11G17G 3G21G23
  -6636529.113 5  -5171320.36022  24854689.757
 -11522502.197 7  -8978565.78727  22093037.301
   -951679.257 5   -741566.33822  24590519.531
 -14931596.868 7 -11635005.28728  21527635.623
 -19349580.799 8 -15077585.46629  21167793.846
 92  3 13 11 54  0.0020000  0  5G11G17G 3G21G23
  -6744020.728 4  -5255080.01923  24834215.138
 -11462143.237 7  -8931532.85128  22104520.260
   -829358.938 5   -646251.77622  24613793.916
 -14977483.483 7 -11670761.07429  21518911.666
 -19323549.647 8 -15057301.45829  21172748.207
 92  3 13 11 54 30.0020000  0  5G11G17G 3G21G23
  -6851413.086 5  -5338762.35122  24813780.985
 -11401531.062 7  -8884302.61328  22116053.580
   -706826.523 5   -550772.03322  24637109.083
 -15023041.629 7 -11706260.91728  21510240.164
 -19297193.509 8 -15036764.20629  21177761.933
 92  3 13 11 55  0.0020000  0  5G11G17G 3G21G23
  -6958698.423 5  -5422361.31823  24793348.316
 -11340681.959 7  -8836887.75427  22127632.463
   -584079.144 5   -455124.79823  24660459.027
 -15068258.298 7 -11741494.65428  21501634.031
 -19270498.514 8 -15015962.90329  21182842.826
 92  3 13 11 55 30.0020000  0  5G11G17G 3G21G23
  -7065879.609 5  -5505879.09223  24772987.018
 -11279598.328 7  -8789290.14328  22139261.410
   -461125.249 5   -359316.60221  24683859.926
 -15113127.777 7 -11776457.86629  21493099.234
 -19243477.220 8 -14994907.34929  21187986.662
 92  3 13 11 56  0.0020000  0  5G11G17G 3G21G23
  -7172949.574 5  -5589310.22423  24752598.724
 -11218268.266 7  -8741500.51027  22150929.027
   -337963.413 5   -263346.37322  24707306.388
 -15157648.145 7 -11811149.04629  21484623.803
 -19216141.420 8 -14973606.72529  21193188.362
 92  3 13 11 56 30.0020000  0  5G11G17G 3G21G23
  -7279905.077 5  -5672652.15522  24732248.525
 -11156679.760 7  -8693509.50927  22162648.227
   -214595.113 5   -167215.30022  24730776.546
 -15201822.001 7 -11845570.20929  21476216.724
 -19188493.980 8 -14952063.25629  21198448.521
 92  3 13 11 57  0.0020000  0  5G11G17G 3G21G23
  -7386746.321 5  -5755905.05321  24711920.190
 -11094830.903 7  -8645315.61327  22174423.459
    -91026.698 4    -70928.28523  24754292.565
 -15245660.743 7 -11879730.25229  21467878.888
 -19160537.597 8 -14930279.05629  21203770.139
 92  3 13 11 57 30.0020000  0  5G11G17G 3G21G23
  -7493469.500 5  -5839065.93522  24691604.455
 -11032710.271 7  -8596909.94027  22186238.286
     32741.128 4     25514.10521  24777845.158
 -15289182.800 7 -11913643.52129  21459595.025
 -19132282.298 8 -14908261.94229  21209142.712
 92  3 13 11 58  0.0020000  0  5G11G17G 3G21G23
  -7600059.984 5  -5922123.41323  24671326.796
 -10970308.096 7  -8548284.89827  22198115.463
    156717.043 4    122118.69321  24801436.125
 -15332385.053 7 -11947307.59429  21451373.216
 -19103715.138 8 -14886001.82629  21214582.748
 92  3 13 11 58 30.0020000  0  5G11G17G 3G21G23
  -7706521.968 5  -6005080.78123  24651067.128
 -10907630.715 7  -8499445.40327  22210039.406
    280892.004 5    218878.41221  24825063.964
 -15375270.290 7 -11980724.64629  21443219.165
 -19074839.723 8 -14863501.49829  21220073.441
 92  3 13 11 59  0.0020000  0  5G11G17G 3G21G23
  -7812862.650 5  -6087943.61023  24630831.436
 -10844680.750 7  -8450393.51627  22222020.010
    405252.992 5    315782.95621  24848732.881
 -15417836.302 7 -12013892.94629  21435110.974
 -19045672.812 8 -14840774.03929  21225625.612
 92  3 13 11 59 30.0020000  0  5G11G17G 3G21G23
  -7919086.467 5  -6170715.40623  24610619.425
 -10781449.866 7  -8401122.70927  22234053.383
    529790.024 5    412824.77123  24872423.087
 -15460086.959 7 -12046815.52429  21427074.747
 -19016216.903 8 -14817821.37729  21231230.831
 92  3 13 12  0  0.0020000  0  5G11G17G 3G21G23
  -8025179.540 5  -6253385.33022  24590432.001
 -10717925.233 7  -8351623.03527  22246142.510
    654511.509 5    510010.26721  24896159.153
 -15502003.148 7 -12079477.47529  21419097.572
 -18986453.218 8 -14794628.89829  21236895.399
 92  3 13 12  0 30.0020000  0  5G11G17G 3G21G23
  -8131129.123 5  -6335943.42522  24570262.865
 -10654100.571 7  -8301889.55627  22258286.815
    779424.724 5    607345.30921  24919932.684
 -15543574.414 7 -12111870.64829  21411186.045
 -18956372.107 8 -14771189.06729  21242621.444
 92  3 13 12  1  0.0020000  0  5G11G17G 3G21G23
  -8236949.220 5  -6418400.60222  24550128.193
 -10590001.529 7  -8251942.27427  22270483.871
    904510.388 5    704814.54422  24943734.711
 -15584815.779 7 -12144006.75729  21403338.682
 -18925984.290 8 -14747510.24929  21248402.631
 92  3 13 12  1 30.0020000  0  5G11G17G 3G21G23
  -8342631.665 5  -6500750.53621  24530018.126
 -10525643.823 7  -8201793.42727  22282730.382
   1029771.706 5    802420.71222  24967575.408
 -15625726.345 7 -12175885.10329  21395556.356
 -18895277.017 8 -14723582.50229  21254246.796
 92  3 13 12  2  0.0020000  0  5G11G17G 3G21G23
  -8448180.441 5  -6582996.29522  24509932.332
 -10461063.447 7  -8151471.07426  22295022.472
   1155198.711 5    900156.05621  24991441.285
 -15666295.903 7 -12207497.71929  21387830.412
 -18864271.084 8 -14699422.03429  21260146.715
 92  3 13 12  2 30.0020000  0  5G11G17G 3G21G23
  -8553582.385 5  -6665127.65522  24489868.717
 -10396249.367 7  -8100966.62727  22307355.047
   1280798.783 4    998026.21621  25015335.938
 -15706498.961 7 -12238824.76529  21380179.416
 -18832960.535 8 -14675024.20229  21266105.685
 92  3 13 12  3  0.0020000  0  5G11G17G 3G21G23
  -8658818.981 5  -6747130.18624  24469840.474
 -10331165.853 7  -8050252.23227  22319736.465
   1406585.440 5   1096041.72722  25039273.467
 -15746321.956 7 -12269855.64629  21372606.946
 -18801335.411 8 -14650381.25329  21272125.207
 92  3 13 12  3 30.0020000  0  5G11G17G 3G21G23
  -8763899.938 5  -6829011.43724  24449844.322
 -10265814.531 7  -7999329.14427  22332176.359
   1532543.255 5   1194190.54222  25063244.883
 -15785788.569 7 -12300608.83029  21365092.063
 -18769419.968 8 -14625512.07229  21278195.109
 92  3 13 12  4  0.0020000  0  5G11G17G 3G21G23
  -8868811.771 5  -6910760.88923  24429876.352
 -10200169.711 7  -7948177.35827  22344666.911
   1658680.015 5   1292478.98121  25087236.961
 -15824894.259 7 -12331080.78329  21357656.001
 -18737204.842 8 -14600409.38929  21284323.765
 92  3 13 12  4 30.0020000  0  5G11G17G 3G21G23
  -8973554.574 5  -6992378.66123  24409956.038
 -10134206.862 7  -7896777.76527  22357218.015
   1784990.441 4   1390902.70722  25111287.217
 -15863675.100 7 -12361299.59129  21350268.521
 -18704684.948 8 -14575069.20329  21290513.880
 92  3 13 12  5  0.0020000  0  5G11G17G 3G21G23
  -9078134.931 5  -7073869.81123  24390052.826
 -10067950.741 7  -7845149.64927  22369826.094
   1911462.157 5   1489452.02321  25135348.258
 -15902157.119 7 -12391285.56429  21342944.281
 -18671875.720 8 -14549503.57229  21296756.766
 92  3 13 12  5 30.0020000  0  5G11G17G 3G21G23
  -9182543.406 5  -7155227.05123  24370174.480
 -10001418.357 7  -7793306.27726  22382491.723
   2038098.595 5   1588129.71123  25159450.673
 -15940322.804 7 -12421025.05129  21335691.412
 -18638759.398 8 -14523698.65129  21303059.296
 92  3 13 12  6  0.0020000  0  5G11G17G 3G21G23
  -9286787.874 5  -7236456.48224  24350342.011
  -9934621.829 7  -7741257.04926  22395197.524
   2164886.860 5   1686925.57221  25183568.985
 -15978170.177 7 -12450516.49229  21328482.902
 -18605349.080 8 -14497664.63129  21309416.392
 92  3 13 12  6 30.0020000  0  5G11G17G 3G21G23
  -9390855.287 5  -7317547.94423  24330554.808
  -9867569.834 7  -7689008.76527  22407959.095
   2291834.394 5   1785845.85722  25207737.345
 -16015680.110 7 -12479744.99929  21321346.339
 -18571641.878 8 -14471399.27729  21315831.058
 92  3 13 12  7  0.0020000  0  5G11G17G 3G21G23
  -9494745.410 5  -7398501.27922  24310773.293
  -9800280.081 7  -7636575.22026  22420766.228
   2418935.624 4   1884885.71822  25231926.697
 -16052829.587 7 -12508692.63029  21314274.830
 -18537638.971 8 -14444903.50229  21322302.680
 92  3 13 12  7 30.0020000  0  5G11G17G 3G21G23
  -9598458.075 5  -7479316.32523  24291039.470
  -9732743.099 7  -7583949.03326  22433609.641
   2546185.199 4   1984041.30422  25256138.840
 -16089619.200 7 -12537359.84629  21307280.974
 -18503337.327 8 -14418174.95629  21328830.353
 92  3 13 12  8  0.0020000  0  5G11G17G 3G21G23
  -9701985.887 6  -7559987.31922  24271351.192
  -9664947.899 7  -7531121.62726  22446518.998
   2673585.131 4   2083313.87522  25280379.757
 -16126061.589 7 -12565756.49829  21300336.590
 -18468745.849 8 -14391220.55229  21335409.312
 92  3 13 12  8 30.0020000  0  5G11G17G 3G21G23
  -9805328.467 5  -7640513.98622  24251675.810
  -9596893.379 7  -7478092.17126  22459468.229
   2801129.800 4   2182699.32122  25304653.045
 -16162172.572 7 -12593894.91629  21293473.437
 -18433865.343 8 -14364040.93729  21342046.415
 92  3 13 12  9  0.0020000  0  4G11G17G21G23
  -9908488.765 5  -7720898.60223  24232053.197
  -9528561.801 7  -7424846.81526  22472472.934
 -16197967.828 7 -12621787.30429  21286659.459
 -18398710.127 8 -14336647.26129  21348741.680
 92  3 13 12  9 30.0020000  0  4G11G17G21G23
 -10011449.132 5  -7801127.44722  24212454.561
  -9459940.953 6  -7371376.04826  22485524.999
 -16233435.094 7 -12649424.12429  21279909.331
 -18363280.452 8 -14309039.72929  21355482.210
 92  3 13 12 10  0.0020000  0  4G11G17G21G23
 -10114218.778 6  -7881207.66723  24192901.505
  -9391042.000 7  -7317688.56625  22498636.726
 -16268578.909 7 -12676808.90329  21273223.350
 -18327598.277 8 -14281235.43529  21362271.601
 92  3 13 12 10 30.0020000  0  4G11G17G21G23
 -10216782.183 5  -7961127.19223  24173378.725
  -9321856.295 7  -7263777.66426  22511806.597
 -16303370.997 7 -12703919.60229  21266602.144
 -18291645.144 8 -14253220.00429  21369114.669
 92  3 13 12 11  0.0020000  0  4G11G17G21G23
 -10319133.780 6  -8040881.66022  24153897.302
  -9252393.717 7  -7209651.00926  22525023.252
 -16337792.310 7 -12730741.39629  21260046.882
 -18255412.271 8 -14224986.59629  21376010.803
 92  3 13 12 11 30.0020000  0  4G11G17G21G23
 -10421269.309 6  -8120467.78022  24134460.255
  -9182660.087 6  -7155313.14026  22538294.160
 -16371833.542 7 -12757267.01929  21253576.760
 -18218887.889 8 -14196526.05229  21382960.579
 92  3 13 12 12  0.0020000  0  4G11G17G21G23
 -10523190.445 6  -8199886.84623  24115072.382
  -9112654.667 7  -7100763.48926  22551611.852
 -16405503.777 7 -12783503.55529  21247167.784
 -18182066.568 8 -14167834.12229  21389966.126
 92  3 13 12 12 30.0020000  0  4G11G17G21G23
 -10624913.806 6  -8279151.77922  24095711.784
  -9042408.639 6  -7046026.35926  22564978.091
 -16438825.168 7 -12809468.26129  21240821.785
 -18144961.279 8 -14138920.91529  21397023.850
 92  3 13 12 13  0.0020000  0  4G11G17G21G23
 -10726415.216 6  -8358243.77822  24076399.751
  -8971903.280 6  -6991087.16127  22578396.506
 -16471781.651 7 -12835148.62829  21234553.719
 -18107552.017 8 -14109770.84029  21404143.311
 92  3 13 12 13 30.0020000  0  4G11G17G21G23
 -10827698.538 6  -8437165.84524  24057129.091
  -8901145.341 6  -6935951.12225  22591866.782
 -16504385.743 7 -12860554.39529  21228349.225
 -18069851.460 8 -14080393.78529  21411318.248
 92  3 13 12 14  0.0020000  0  4G11G17G21G23
 -10928764.119 6  -8515918.22524  24037906.403
  -8830147.792 6  -6880628.38826  22605374.228
 -16536643.544 7 -12885690.33529  21222212.768
 -18031866.037 8 -14050794.75529  21418546.843
 92  3 13 12 14 30.0020000  0  4G11G17G21G23
 -11029620.180 6  -8594507.33924  24018710.692
  -8758920.345 6  -6825126.49526  22618926.643
 -16568566.946 7 -12910565.70229  21216133.880
 -17993609.350 8 -14020984.35529  21425827.912
 92  3 13 12 15  0.0020000  0  4G11G17G21G23
 -11130259.558 6  -8672927.61324  23999551.260
  -8687447.875 6  -6769433.69226  22632529.419
 -16600159.396 7 -12935183.18229  21210121.530
 -17955082.301 8 -13990963.27229  21433159.324
 92  3 13 12 15 30.0020000  0  4G11G17G21G23
 -11230684.946 6  -8751181.13923  23980446.081
  -8615727.514 6  -6713547.73926  22646175.978
 -16631435.419 7 -12959554.09729  21204172.454
 -17916296.608 8 -13960740.65929  21440540.819
 92  3 13 12 16  0.0020000  0  4G11G17G21G23
 -11330889.266 6  -8829262.41323  23961373.587
  -8543748.876 6  -6657460.53325  22659873.789
 -16662396.700 7 -12983679.75229  21198278.835
 -17877251.117 8 -13930315.59329  21447968.172
 92  3 13 12 16 30.0020000  0  4G11G17G21G23
 -11430868.157 6  -8907168.02623  23942349.063
  -8471498.940 6  -6601161.89626  22673625.572
 -16693037.222 7 -13007555.47429  21192451.771
 -17837952.625 8 -13899693.39929  21455447.405
 92  3 13 12 17  0.0020000  0  4G11G17G21G23
 -11530616.516 6  -8984894.01224  23923364.691
  -8398977.009 6  -6544651.32426  22687426.827
 -16723355.203 7 -13031179.86529  21186683.462
 -17798402.276 8 -13868874.93529  21462972.498
 92  3 13 12 17 30.0020000  0  4G11G17G21G23
 -11630132.741 6  -9062439.09324  23904430.699
  -8326191.109 6  -6487935.06726  22701273.034
 -16753350.565 7 -13054552.86229  21180970.627
 -17758604.020 8 -13837863.32429  21470551.249
 92  3 13 12 18  0.0020000  0  4G11G17G21G23
 -11729421.779 6  -9139807.17124  23885537.488
  -8253151.995 6  -6431021.49826  22715175.012
 -16783024.641 7 -13077675.50729  21175328.221
 -17718568.189 8 -13806666.57429  21478165.669
 92  3 13 12 18 30.0020000  0  4G11G17G21G23
 -11828469.313 6  -9216987.05725  23866686.245
  -8179861.307 6  -6373911.90625  22729116.567
 -16812381.285 7 -13100550.80029  21169740.993
 -17678279.300 8 -13775272.64229  21485831.672
 92  3 13 12 19  0.0020000  0  4G11G17G21G23
 -11927272.944 6  -9293976.87224  23847874.561
  -8106331.736 6  -6316616.16025  22743111.763
 -16841432.667 7 -13123188.22729  21164211.316
 -17637733.091 8 -13743678.18629  21493548.333
 92  3 13 12 19 30.0020000  0  4G11G17G21G23
 -12025827.599 6  -9370772.69625  23829121.335
  -8032562.925 6  -6259134.01126  22757148.649
 -16870175.090 7 -13145584.91029  21158742.208
 -17596927.694 8 -13711881.78629  21501312.354
 92  3 13 12 20  0.0020000  0  4G11G17G21G23
 -12124134.999 6  -9447375.85924  23810417.285
  -7958557.030 6  -6201467.10426  22771232.911
 -16898604.487 7 -13167737.67829  21153324.963
 -17555874.987 8 -13679892.67029  21509126.439
 92  3 13 12 20 30.0020000  0  4G11G17G21G23
 -12222184.164 6  -9523777.78623  23791759.110
  -7884305.354 6  -6143608.69625  22785360.032
 -16926709.738 7 -13189637.86029  21147985.056
 -17514562.324 8 -13647700.99129  21516987.902
 92  3 13 12 21  0.0020000  0  4G11G17G21G23
 -12319981.651 6  -9599983.59424  23773161.489
  -7809805.840 6  -6085557.14025  22799541.108
 -16954469.831 7 -13211269.09329  21142699.106
 -17473001.644 8 -13615316.04829  21524897.318
 92  3 13 12 21 30.0020000  0  4G11G17G21G23
 -12417518.898 6  -9675986.59224  23754593.532
  -7735046.345 6  -6027303.02526  22813760.558
 -16981866.243 7 -13232616.94629  21137487.529
 -17431189.063 8 -13582734.81829  21532851.109
 92  3 13 12 22  0.0020000  0  4G11G17G21G23
 -12514793.811 6  -9751785.22622  23736081.346
  -7660033.411 6  -5968851.42125  22828044.765
 -17008895.734 7 -13253678.87429  21132342.193
 -17389117.846 8 -13549952.04929  21540856.781
 92  3 13 12 22 30.0020000  0  4G11G17G21G23
 -12611811.020 6  -9827383.02923  23717618.632
  -7584779.161 6  -5910211.79425  22842357.469
 -17035571.959 7 -13274465.53129  21127269.397
 -17346783.439 8 -13516964.20129  21548912.499
 92  3 13 12 23  0.0020000  0  4G11G17G21G23
 -12708556.334 6  -9902768.97724  23699213.783
  -7509284.306 6  -5851384.68225  22856724.722
 -17061882.285 7 -13294967.07229  21122261.062
 -17304187.926 8 -13483772.88929  21557019.190
 92  3 13 12 23 30.0020000  0  4G11G17G21G23
 -12805029.765 6  -9977943.05222  23680862.279
  -7433550.198 6  -5792371.10225  22871138.741
 -17087855.743 7 -13315206.11929  21117313.891
 -17261343.086 8 -13450387.31629  21565172.647
 92  3 13 12 24  0.0020000  0  4G11G17G21G23
 -12901230.215 6 -10052904.42123  23662553.057
  -7357583.922 6  -5733176.64525  22885593.227
 -17113513.007 7 -13335198.78729  21112438.963
 -17218251.739 8 -13416809.64629  21573373.464
 92  3 13 12 24 30.0020000  0  4G11G17G21G23
 -12997142.471 6 -10127641.21523  23644294.196
  -7281368.943 6  -5673788.38825  22900092.404
 -17138850.954 7 -13354942.63329  21107613.803
 -17174911.368 8 -13383037.93029  21581621.955
 92  3 13 12 25  0.0020000  0  4G11G17G21G23
 -13092763.097 6 -10202150.79324  23626097.685
  -7204898.594 6  -5614201.12725  22914649.411
 -17163870.295 7 -13374438.21429  21102854.605
 -17131326.257 8 -13349075.51329  21589914.805
 92  3 13 12 25 30.0020000  0  4G11G17G21G23
 -13188097.012 6 -10276436.94425  23607957.852
  -7128171.061 6  -5554413.47725  22929249.903
 -17188579.641 8 -13393692.24529  21098152.958
 -17087491.438 8 -13314918.52229  21598256.846
 92  3 13 12 26  0.0020000  0  4G11G17G21G23
 -13283140.184 6 -10350496.55524  23589871.364
  -7051200.299 6  -5494436.28526  22943899.274
 -17212958.579 7 -13412688.81129  21093512.457
 -17043405.429 8 -13280565.79729  21606646.230
 92  3 13 12 26 30.0020000  0  4G11G17G21G23
 -13377884.637 6 -10424323.38725  23571846.650
  -6973967.983 6  -5434255.27926  22958593.003
 -17236987.212 7 -13431412.41229  21088938.231
 -16999077.917 8 -13246024.88329  21615080.287
 92  3 13 12 27  0.0020000  0  4G11G17G21G23
 -13472334.896 6 -10497920.97024  23553866.592
  -6896486.590 6  -5373880.21424  22973338.890
 -17260671.259 7 -13449867.50529  21084432.951
 -16954527.583 8 -13211310.33529  21623557.516
 92  3 13 12 27 30.0020000  0  4G11G17G21G23
 -13566491.549 6 -10571289.78024  23535953.995
  -6818769.752 6  -5313321.66725  22988127.950
 -17284012.503 7 -13468055.47529  21079991.225
 -16909765.573 8 -13176430.85929  21632076.729
 92  3 13 12 28  0.0020000  0  4G11G17G21G23
 -13660348.141 6 -10644424.77923  23518091.464
  -6740812.299 6  -5252575.65126  23002960.774
 -17307016.782 8 -13485980.88329  21075615.147
 -16864800.041 8 -13141392.78829  21640632.798
 92  3 13 12 28 30.0020000  0  4G11G17G21G23
 -13753901.300 6 -10717323.32924  23500289.188
  -6662612.359 6  -5191640.66925  23017841.884
 -17329691.765 7 -13503649.69929  21071298.452
 -16819632.396 8 -13106197.23329  21649225.460
 92  3 13 12 29  0.0020000  0  4G11G17G21G23
 -13847150.805 6 -10789985.25323  23482539.385
  -6584193.645 6  -5130535.21025  23032767.945
 -17352037.379 7 -13521061.85029  21067048.294
 -16774249.162 8 -13070833.67629  21657861.276
 92  3 13 12 29 30.0020000  0  4G11G17G21G23
 -13940087.555 6 -10862403.49024  23464861.215
  -6505540.344 6  -5069246.95525  23047730.582
 -17374051.057 8 -13538215.36529  21062857.781
 -16728623.731 8 -13035281.40629  21666543.562
 92  3 13 12 30  0.0020000  0  4G11G17G21G23
 -14032702.315 6 -10934570.83423  23447234.925
  -6426643.016 6  -5007768.56025  23062750.194
 -17395726.579 7 -13555105.38129  21058732.340
 -16682748.084 8 -12999534.15029  21675276.523
 92  3 13 12 30 30.0020000  0  4G11G17G21G23
 -14124997.521 6 -11006489.17325  23429676.079
  -6347509.086 6  -4946105.78925  23077802.769
 -17417065.095 7 -13571732.77929  21054671.657
 -16636621.297 8 -12963591.20829  21684054.733
 92  3 13 12 31  0.0020000  0  4G11G17G21G23
 -14216971.755 6 -11078157.39625  23412169.393
  -6268126.665 6  -4884249.39124  23092909.911
 -17438070.569 7 -13588100.67629  21050673.620
 -16590235.647 8 -12927446.54629  21692880.024
 92  3 13 12 31 30.0020000  0  4G11G17G21G23
 -14308622.641 6 -11149573.65224  23394722.665
  -6188495.221 6  -4822198.94025  23108064.116
 -17458753.864 7 -13604217.52129  21046736.153
 -16543604.913 8 -12891110.91929  21701752.692
 92  3 13 12 32  0.0020000  0  4G11G17G21G23
 -14399943.544 6 -11220732.79125  23377348.495
  -6108620.865 6  -4759959.21124  23123265.402
 -17479109.236 7 -13620078.83829  21042863.130
 -16496744.678 8 -12854596.45129  21710670.015
 92  3 13 12 32 30.0020000  0  4G11G17G21G23
 -14490927.759 6 -11291629.56025  23360039.677
  -6028500.217 6  -4697527.57424  23138506.545
 -17499139.362 7 -13635686.72329  21039053.363
 -16449651.096 8 -12817900.15429  21719636.512
 92  3 13 12 33  0.0020000  0  4G11G17G21G23
 -14581565.858 6 -11362256.62624  23342792.021
  -5948137.370 6  -4634907.20225  23153804.348
 -17518843.346 8 -13651040.47829  21035306.261
 -16402320.813 8 -12781019.41629  21728636.881
 92  3 13 12 33 30.0020000  0  4G11G17G21G23
 -14671853.625 6 -11432610.71325  23325613.922
  -5867539.937 6  -4572104.04725  23169138.448
 -17538222.223 7 -13666140.89629  21031615.819
 -16354764.039 8 -12743962.20729  21737689.112
 92  3 13 12 34  0.0020000  0  4G11G17G21G23
 -14761802.476 6 -11502700.72225  23308494.857
  -5786706.860 6  -4509117.27525  23184520.797
 -17557285.191 7 -13680995.15329  21027990.728
 -16306992.283 8 -12706737.45529  21746778.825
 92  3 13 12 34 30.0020000  0  4G11G17G21G23
 -14851402.127 6 -11572518.62525  23291442.661
  -5705621.216 6  -4445933.67125  23199950.210
 -17576017.064 7 -13695591.41329  21024424.986
 -16258991.382 8 -12669334.16729  21755914.102
 92  3 13 12 35  0.0020000  0  4G11G17G21G23
 -14940653.156 6 -11642064.87225  23274456.427
  -5624277.405 6  -4382548.93524  23215430.298
 -17594412.746 7 -13709925.70229  21020924.611
 -16210764.563 8 -12631754.83129  21765091.049
 92  3 13 12 35 30.0020000  0  4G11G17G21G23
 -15029545.392 6 -11711331.54325  23257537.342
  -5542659.913 6  -4318950.92126  23230958.339
 -17612448.914 7 -13723979.85629  21017489.588
 -16162306.968 8 -12593995.67529  21774314.152
 92  3 13 12 36  0.0020000  0  4G11G17G21G23
 -15118071.640 6 -11780313.01224  23240692.612
  -5460765.350 6  -4255137.01725  23246546.357
 -17630121.576 7 -13737750.76229  21014129.828
 -16113609.006 8 -12556049.21129  21783579.241
 92  3 13 12 36 30.0020000  0  4G11G17G21G23
 -15206230.457 6 -11849008.18025  23223920.422
  -5378616.402 6  -4191124.87624  23262176.029
 -17647447.047 7 -13751251.12129  21010833.604
 -16064670.283 8 -12517915.14929  21792891.096
 92  3 13 12 37  0.0020000  0  4G11G17G21G23
 -15294016.981 6 -11917413.26125  23207212.676
  -5296237.237 6  -4126933.35525  23277860.581
 -17664432.294 7 -13764486.37429  21007600.044
 -16015495.855 8 -12479597.41729  21802249.421
 92  3 13 12 37 30.0020000  0  4G11G17G21G23
 -15381438.092 6 -11985533.58825  23190574.505
  -5213645.334 6  -4062576.06424  23293570.890
 -17681098.915 7 -13777473.34429  21004429.130
 -15966099.630 8 -12441106.86429  21811647.916
 92  3 13 12 38  0.0020000  0  4G11G17G21G23
 -15468488.161 6 -12053364.80125  23174009.170
  -5130840.163 6  -3998052.59926  23309333.078
 -17697463.526 7 -13790224.98829  21001313.394
 -15916485.012 8 -12402446.13629  21821089.566
 92  3 13 12 38 30.0020000  0  4G11G17G21G23
 -15555162.569 6 -12120903.27825  23157516.079
  -5047819.127 6  -3933360.92625  23325127.043
 -17713516.674 7 -13802733.92829  20998260.007
 -15866660.133 8 -12363621.56629  21830571.717
 92  3 13 12 39  0.0020000  0  4G11G17G21G23
 -15641448.583 7 -12188139.12724  23141101.549
  -4964552.839 6  -3868478.12325  23340970.480
 -17729233.431 7 -13814980.74429  20995267.172
 -15816630.043 8 -12324637.08329  21840090.113
 92  3 13 12 39 30.0020000  0  4G11G17G21G23
 -15727355.549 7 -12255079.61325  23124757.169
  -4881037.048 6  -3803400.94625  23356869.670
 -17744623.753 7 -13826973.20129  20992339.706
 -15766403.804 8 -12285499.77229  21849651.105
 92  3 13 12 40  0.0020000  0  4G11G17G21G23
 -15812893.372 6 -12321732.45625  23108467.339
  -4797296.436 6  -3738148.54724  23372801.248
 -17759686.085 7 -13838710.07929  20989470.699
 -15715996.210 8 -12246221.13529  21859242.669
 92  3 13 12 40 30.0020000  0  4G11G17G21G23
 -15898058.785 7 -12388095.10525  23092271.949
  -4713332.539 6  -3672722.16126  23388777.480
 -17774413.651 7 -13850186.10029  20986666.431
 -15665403.516 8 -12206798.26529  21868870.495
 92  3 13 12 41  0.0020000  0  4G11G17G21G23
 -15982845.376 7 -12454162.56724  23076130.829
  -4629153.693 6  -3607128.26425  23404795.995
 -17788805.844 7 -13861400.79429  20983932.034
 -15614619.940 8 -12167226.65129  21878533.100
 92  3 13 12 41 30.0020000  0  4G11G17G21G23
 -16067240.817 7 -12519925.24525  23060077.239
  -4544772.692 6  -3541376.87925  23420850.178
 -17802855.860 7 -13872348.85229  20981261.174
 -15563617.924 8 -12127484.82229  21888241.877
 92  3 13 12 42  0.0020000  0  4G11G17G21G23
 -16151244.590 7 -12585382.73426  23044090.501
  -4460196.556 6  -3475473.43224  23436945.142
 -17816577.673 7 -13883041.16429  20978646.678
 -15512396.298 8 -12087571.87829  21897983.933
 92  3 13 12 42 30.0020000  0  4G11G17G21G23
 -16234859.287 6 -12650537.03126  23028176.025
  -4375428.243 6  -3409420.24524  23453077.275
 -17829984.867 7 -13893488.32229  20976096.956
 -15460956.052 8 -12047488.56429  21907773.958
 92  3 13 12 43  0.0020000  0  4G11G17G21G23
 -16318072.942 7 -12715378.82825  23012344.577
  -4290455.831 6  -3343207.99325  23469248.985
 -17843070.434 7 -13903684.86529  20973605.083
 -15409286.891 8 -12007226.89029  21917608.953
 92  3 13 12 43 30.0020000  0  4G11G17G21G23
 -16400885.280 7 -12779907.92524  22996580.591
  -4205264.512 6  -3276825.17125  23485459.051
 -17855848.968 7 -13913642.14829  20971170.760
 -15357392.908 8 -11966790.02329  21927482.618
 92  3 13 12 44  0.0020000  0  4G11G17G21G23
 -16483295.059 7 -12844123.32625  22980897.260
  -4119837.937 6  -3210259.04225  23501717.401
 -17868319.989 7 -13923359.82629  20968797.007
 -15305291.955 8 -11926191.88229  21937394.953
 92  3 13 12 44 30.0020000  0  5G12G11G17G21G23
   -137671.96515   -107281.25622  25134125.713
 -16565295.266 7 -12908019.58325  22965302.960
  -4034163.076 6  -3143499.44724  23518019.220
 -17880466.089 7 -13932824.30429  20966488.308
 -15252997.113 7 -11885442.67029  21947349.569
 92  3 13 12 45  0.0020000  0  5G12G11G17G21G23
   -207107.073 5   -161386.48322  25120909.651
 -16646872.532 7 -12971586.26125  22949776.995
  -3948224.509 6  -3076534.37825  23534374.088
 -17892277.276 7 -13942027.81629  20964240.458
 -15200508.224 7 -11844542.24829  21957335.351
 92  3 13 12 45 30.0020000  0  5G12G11G17G21G23
   -276143.791 4   -215181.32822  25107770.649
 -16728014.501 7 -13034813.76026  22934328.998
  -3862020.847 6  -3009362.69925  23550780.538
 -17903737.575 7 -13950957.91729  20962057.366
 -15147819.133 8 -11803485.81429  21967362.212
 92  3 13 12 46  0.0020000  0  5G12G11G17G21G23
   -344802.270 4   -268681.35322  25094705.095
 -16808741.166 7 -13097717.65125  22918970.329
  -3775586.895 6  -2942011.60825  23567225.641
 -17914860.108 8 -13959624.81229  20959943.238
 -15094949.268 7 -11762288.53729  21977423.850
 92  3 13 12 46 30.0020000  0  5G12G11G17G21G23
   -413061.253 3   -321870.16022  25081727.682
 -16889031.891 7 -13160281.84626  22903690.203
  -3688920.016 6  -2874478.97822  23583713.339
 -17925638.963 8 -13968023.91229  20957893.552
 -15041873.632 8 -11720930.90329  21987526.549
 92  3 13 12 47  0.0020000  0  4G11G17G21G23
 -16968901.879 7 -13222518.20025  22888494.030
  -3602048.611 6  -2806787.03624  23600251.678
 -17936092.521 8 -13976169.53329  20955906.531
 -14988603.230 8 -11679421.51229  21997661.932
 92  3 13 12 47 30.0020000  0  4G11G17G21G23
 -17048353.269 7 -13284428.36426  22873372.194
  -3514985.403 6  -2738945.61423  23616818.810
 -17946222.646 8 -13984063.12529  20953974.059
 -14935138.975 7 -11637761.05929  22007831.500
 92  3 13 12 48  0.0020000  0  4G11G17G21G23
 -17127377.789 7 -13346005.91626  22858333.998
  -3427723.391 6  -2670949.29125  23633424.926
 -17956035.628 8 -13991709.60229  20952107.566
 -14881474.164 8 -11595944.33829  22018047.817
 92  3 13 12 48 30.0020000  0  4G11G17G21G23
 -17205973.560 7 -13407249.35926  22843383.960
  -3340270.734 6  -2602804.38425  23650062.208
 -17965534.256 7 -13999111.12729  20950301.608
 -14827619.951 8 -11553980.01829  22028294.725
 92  3 13 12 49  0.0020000  0  5G12G11G17G21G23
    -69633.87615    -54264.18822  25017883.286
 -17284128.351 7 -13468149.19225  22828512.448
  -3252614.308 5  -2534500.71224  23666742.348
 -17974699.069 7 -14006252.52329  20948558.018
 -14773569.558 8 -11511862.83929  22038579.709
 92  3 13 12 49 30.0020000  0  5G12G11G17G21G23
   -135524.330 5   -105607.34923  25005335.463
 -17361836.099 7 -13528700.67126  22813728.781
  -3164744.505 5  -2466030.77122  23683470.476
 -17983532.281 7 -14013135.54229  20946876.183
 -14719313.373 8 -11469585.29529  22048905.160
 92  3 13 12 50  0.0020000  0  5G12G11G17G21G23
   -200999.062 4   -156626.58122  24992879.689
 -17439093.025 7 -13588900.85726  22799023.971
  -3076652.470 6  -2397387.69624  23700232.177
 -17992036.243 7 -14019762.00229  20945256.698
 -14664856.607 8 -11427151.46129  22059266.889
 92  3 13 12 50 30.0020000  0  5G12G11G17G21G23
   -266052.003 4   -207317.16521  24980500.959
 -17515893.471 7 -13648745.36525  22784401.893
  -2988330.250 6  -2328565.19022  23717037.645
 -18000194.200 7 -14026118.83929  20943703.175
 -14610201.089 8 -11384562.76429  22069669.680
 92  3 13 12 51  0.0020000  0  5G12G11G17G21G23
   -330686.083 4   -257681.38622  24968203.179
 -17592240.482 7 -13708236.53026  22769876.035
  -2899774.625 5  -2259560.86624  23733885.673
 -18008014.073 7 -14032212.24929  20942215.300
 -14555346.691 8 -11341819.09029  22080109.656
 92  3 13 12 51 30.0020000  0  5G12G11G17G21G23
   -394894.646 4   -307714.01221  24955980.035
 -17668127.172 7 -13767369.00525  22755434.444
  -2810985.559 5  -2190374.61124  23750773.278
 -18015496.344 7 -14038042.57729  20940791.589
 -14500292.820 7 -11298919.96829  22090580.817
 92  3 13 12 52  0.0020000  0  5G12G11G17G21G23
   -458678.044 4   -357415.25421  24943845.328
 -17743554.581 7 -13826143.61326  22741082.774
  -2721978.116 5  -2121018.24524  23767726.845
 -18022649.999 7 -14043616.84829  20939433.526
 -14445055.770 8 -11255878.12329  22101094.538
 92  3 13 12 52 30.0020000  0  5G12G11G17G21G23
   -522030.267 4   -406780.61522  24931791.573
 -17818516.793 7 -13884555.72825  22726817.745
  -2632761.225 5  -2051498.63423  23784699.887
 -18029469.734 7 -14048930.92129  20938134.531
 -14389630.873 7 -11212689.88629  22111640.036
 92  3 13 12 53  0.0020000  0  5G12G11G17G21G23
   -584940.217 5   -455801.34522  24919813.080
 -17893002.630 7 -13942596.62126  22712645.969
  -2543331.796 5  -1981813.36923  23801717.007
 -18035958.274 7 -14053986.91729  20936901.778
 -14334016.860 7 -11169354.30629  22122222.406
 92  3 13 12 53 30.0020000  0  5G12G11G17G21G23
   -647434.428 5   -504498.11322  24907926.009
 -17967038.987 7 -14000287.31226  22698557.518
  -2453721.818 5  -1911987.46624  23818767.109
 -18042148.155 7 -14058810.19829  20935719.700
 -14278248.311 7 -11125898.29829  22132835.664
 92  3 13 12 54  0.0020000  0  5G12G11G17G21G23
   -709489.321 5   -552852.55223  24896118.668
 -18040602.303 7 -14057609.34726  22684554.818
  -2363908.964 5  -1842003.49523  23835857.678
 -18048026.135 7 -14063390.43229  20934605.678
 -14222310.723 8 -11082310.58028  22143484.293
 92  3 13 12 54 30.0020000  0  5G12G11G17G21G23
   -771107.331 5   -600866.55923  24884393.501
 -18113695.302 7 -14114564.92926  22670645.930
  -2273884.218 5  -1771854.35523  23852990.214
 -18053596.135 7 -14067730.68829  20933542.018
 -14166207.816 7 -11038594.02829  22154158.696
 92  3 13 12 55  0.0020000  0  5G12G11G17G21G23
   -832279.653 4   -648533.23122  24872742.950
 -18186309.369 7 -14171147.30825  22656830.907
  -2183629.891 5  -1701526.36623  23870164.422
 -18058868.564 7 -14071839.07429  20932539.503
 -14109937.676 7 -10994747.18529  22164866.376
 92  3 13 12 55 30.0020000  0  5G12G11G17G21G23
   -893010.775 4   -695856.11121  24861200.050
 -18258449.034 7 -14227360.02825  22643103.710
  -2093156.728 5  -1631027.82524  23887386.914
 -18063852.023 7 -14075722.27529  20931593.666
 -14053502.419 7 -10950771.67129  22175604.647
 92  3 13 12 56  0.0020000  0  5G12G11G17G21G23
   -953293.802 4   -742829.83722  24849725.799
 -18330107.357 7 -14283197.68726  22629473.642
  -2002465.016 5  -1560359.01622  23904638.758
 -18068535.914 7 -14079372.05629  20930702.082
 -13996890.354 7 -10906658.37828  22186379.493
 92  3 13 12 56 30.0020000  0  5G12G11G17G21G23
  -1013119.363 5   -789447.03522  24838342.079
 -18401275.161 7 -14338653.10425  22615920.023
  -1911561.333 6  -1489525.00623  23921942.185
 -18072901.957 7 -14082774.16629  20929869.550
 -13940081.687 7 -10862391.89129  22197187.914
 92  3 13 12 57  0.0020000  0  5G12G11G17G21G23
  -1072482.513 5   -835704.00521  24827046.798
 -18471947.821 7 -14393722.69525  22602469.238
  -1820460.902 5  -1418537.71923  23939273.182
 -18076944.305 7 -14085924.03429  20929099.088
 -13883066.374 7 -10817964.40029  22208035.894
 92  3 13 12 57 30.0020000  0  5G12G11G17G21G23
  -1131387.069 5   -881603.61822  24815840.547
 -18542129.285 7 -14448409.56025  22589115.284
  -1729181.012 5  -1347410.57424  23956647.055
 -18080651.537 7 -14088812.78929  20928399.072
 -13825838.512 7 -10773371.27029  22218928.861
 92  3 13 12 58  0.0020000  0  5G12G11G17G21G23
  -1189827.771 5   -927141.83122  24804713.154
 -18611814.201 7 -14502709.49625  22575854.253
  -1637717.098 5  -1276140.01523  23974048.814
 -18084016.868 7 -14091435.11829  20927755.421
 -13768403.343 7 -10728616.60528  22229855.995
 92  3 13 12 58 30.0020000  0  5G12G11G17G21G23
  -1247801.826 5   -972316.35721  24793675.089
 -18680999.955 7 -14556620.47326  22562696.964
  -1546067.544 5  -1204724.82523  23991495.542
 -18087046.907 7 -14093796.18129  20927177.714
 -13710773.544 7 -10683710.28328  22240823.597
 92  3 13 12 59  0.0020000  0  5G12G11G17G21G23
  -1305301.456 5  -1017121.27923  24782739.264
 -18749678.807 7 -14610136.45526  22549623.016
  -1454209.998 5  -1133147.57523  24008972.231
 -18089742.084 7 -14095896.32429  20926665.376
 -13652958.528 7 -10638659.64028  22251824.476
 92  3 13 12 59 30.0020000  0  5G12G11G17G21G23
  -1362326.251 5  -1061556.17922  24771888.282
 -18817850.824 7 -14663257.50726  22536652.496
  -1362139.801 5  -1061404.61623  24026487.905
 -18092103.300 7 -14097736.23329  20926216.888
 -13594975.461 7 -10593478.03829  22262859.836
 92  3 13 13  0  0.0020000  0  5G12G11G17G21G23
  -1418871.206 5  -1105617.15022  24761133.521
 -18885510.576 7 -14715979.38825  22523774.323
  -1269854.488 5   -989494.04424  24044050.956
 -18094140.552 7 -14099323.69829  20925826.544
 -13536838.156 7 -10548176.25728  22273922.192
 92  3 13 13  0 30.0020000  0  5G12G11G17G21G23
  -1474940.053 5  -1149307.12121  24750461.806
 -18952661.881 7 -14768305.08625  22511000.763
  -1177359.118 5   -917419.76523  24061652.973
 -18095868.365 7 -14100670.04629  20925501.882
 -13478549.551 7 -10502756.57928  22285013.010
 92  3 13 13  1  0.0020000  0  5G12G11G17G21G23
  -1530534.901 4  -1192627.69922  24739886.031
 -19019307.297 7 -14820236.55926  22498316.235
  -1084664.498 5   -845190.20924  24079291.845
 -18097289.501 8 -14101777.41829  20925231.771
 -13420112.100 7 -10457220.91728  22296132.603
 92  3 13 13  1 30.0020000  0  5G12G11G17G21G23
  -1585644.650 4  -1235570.31124  24729386.410
 -19085435.544 7 -14871765.06126  22485731.853
   -991768.207 5   -772803.55324  24096975.407
 -18098402.795 8 -14102644.91729  20925016.208
 -13361521.048 7 -10411565.56929  22307286.381
 92  3 13 13  2  0.0020000  0  5G12G11G17G21G23
  -1640266.475 4  -1278132.70622  24718994.090
 -19151044.122 7 -14922888.62627  22473246.100
   -898666.544 5   -700256.88823  24114691.950
 -18099214.722 8 -14103277.58829  20924864.513
 -13302761.031 7 -10365778.55828  22318465.950
 92  3 13 13  2 30.0020000  0  5G12G11G17G21G23
  -1694387.354 4  -1320304.76623  24708692.336
 -19216119.634 7 -14973596.82526  22460862.571
   -805348.639 5   -627541.70422  24132440.863
 -18099706.169 8 -14103660.52129  20924773.388
 -13243809.567 7 -10319842.36728  22329684.485
 92  3 13 13  3  0.0020000  0  5G12G11G17G21G23
  -1747995.285 5  -1362077.15323  24698492.492
 -19280650.501 7 -15023880.59826  22448579.764
   -711817.669 5   -554660.44223  24150242.842
 -18099865.546 8 -14103784.73129  20924744.299
 -13184659.248 7 -10273751.22529  22340940.783
 92  3 13 13  3 30.0020000  0  5G12G11G17G21G23
  -1801107.287 5  -1403463.12521  24688390.683
 -19344653.630 7 -15073753.16126  22436404.904
   -618092.667 5   -481628.01423  24168080.786
 -18099713.639 8 -14103666.35729  20924769.776
 -13125326.017 7 -10227517.55928  22352228.282
 92  3 13 13  4  0.0020000  0  5G12G11G17G21G23
  -1853727.466 5  -1444465.79723  24678377.015
 -19408133.281 7 -15123217.82126  22424317.260
   -524191.240 5   -408458.12122  24185947.523
 -18099257.205 8 -14103310.69729  20924854.026
 -13065798.107 7 -10181132.19328  22363556.824
 92  3 13 13  4 30.0020000  0  5G12G11G17G21G23
  -1905847.470 5  -1485078.78522  24668450.895
 -19471081.244 7 -15172268.17927  22412344.160
   -430125.699 5   -335160.37723  24203848.428
 -18098482.662 8 -14102707.16529  20925003.016
 -13006085.494 7 -10134602.89728  22374920.772
 92  3 13 13  5  0.0020000  0  5G12G11G17G21G23
  -1957458.410 5  -1525295.07822  24658637.189
 -19533488.444 7 -15220897.16126  22400474.470
   -335890.802 5   -261730.67723  24221779.609
 -18097387.892 8 -14101854.09329  20925214.076
 -12946196.197 7 -10087935.93528  22386320.668
 92  3 13 13  5 30.0020000  0  5G12G11G17G21G23
  -2008563.446 5  -1565117.19522  24648915.516
 -19595358.117 7 -15269107.29526  22388696.829
   -241487.739 5   -188169.87523  24239744.067
 -18095974.574 8 -14100752.80729  20925480.000
 -12886130.679 7 -10041131.64627  22397750.264
 92  3 13 13  6  0.0020000  0  5G12G11G17G21G23
  -2059162.614 4  -1604545.10223  24639283.781
 -19656690.143 7 -15316898.49226  22377022.913
   -146927.493 5   -114486.64023  24257743.617
 -18094245.113 8 -14099405.17429  20925809.757
 -12825899.187 7  -9994198.04028  22409207.728
 92  3 13 13  6 30.0020000  0  5G12G11G17G21G23
  -2109246.233 4  -1643571.29422  24629752.769
 -19717474.960 7 -15364263.27726  22365460.206
    -52198.321 5    -40671.73423  24275767.145
 -18092187.188 8 -14097801.59629  20926200.397
 -12765513.636 7  -9947144.38728  22420696.375
 92  3 13 13  7  0.0020000  0  5G12G11G17G21G23
  -2158809.446 4  -1682191.93022  24620333.595
 -19777707.938 7 -15411198.07226  22353991.347
     42713.706 5     33285.63622  24293822.431
 -18089810.247 8 -14095949.43329  20926653.387
 -12704975.171 7  -9899971.58328  22432221.302
 92  3 13 13  7 30.0020000  0  5G12G11G17G21G23
  -2207852.243 3  -1720407.05022  24610984.274
 -19837388.870 7 -15457702.68426  22342633.716
    137806.572 5    107383.88421  24311917.609
 -18087118.596 8 -14093852.04429  20927163.928
 -12644280.120 7  -9852676.75528  22443769.297
 92  3 13 13  8  0.0020000  0  5G12G11G17G21G23
  -2256369.280 4  -1758212.49122  24601759.653
 -19896512.410 7 -15503772.97726  22331388.202
    233094.023 5    181633.84821  24330050.252
 -18084115.780 8 -14091512.18029  20927735.336
 -12583433.760 7  -9805264.03029  22455351.478
